     2              OBSERVATION DATA    G (GPS)             RINEX VERSION / TYPE
ASRINEXO V2.4.4 UX USGS 20-AUG-96 15:59                     PGM / RUN BY / DATE
Crustal Strain Project                                      COMMENT
U.S. Geological Survey, Menlo Park, California 94025        COMMENT
345 Middlefield Road, MS/977                                COMMENT
Contact: kwendt@isdmnl.wr.usgs.gov (Ph: 415-329-4866)       COMMENT
HI's are vertical to base of antenna                        COMMENT
h112                                                        MARKER NAME
JLS USGS                                                    OBSERVER / AGENCY
O4582 ASHTECH Z-XII3 1F00                                   REC # / TYPE / VERS
1068 ASH700228D NONE                                        ANT # / TYPE
 -2508641.0000 -4314311.0000  3962053.0000                  APPROX POSITION XYZ
        1.1960        0.0000        0.0000                  ANTENNA: DELTA H/E/N
     1     1                                                WAVELENGTH FACT L1/2
     5    C1    L1    L2    P1    P2                        # / TYPES OF OBSERV
    30                                                      INTERVAL
  1996     7    15    15    53   30.000000                  TIME OF FIRST OBS
                                                            END OF HEADER
 96  7 15 15 53 30.0000000  0  3  4  7  9
  19828826.333       -8768.25719
  21718272.100        9771.86219
  20220407.926       -7069.05119
 96  7 15 15 54  0.0000000  0  6 24  2  4  5  7  9
  20368789.711     -117341.23819
  23438307.100       45305.49119
  19820972.541      -50028.744 9
  21042918.011     -104573.54519    -62470.49059                  21042923.6384
  21723584.900       37735.39659     23161.30759  21723590.5454   21723595.9024
  20215032.657      -35323.70559    -23370.71259  20215031.2684   20215035.7934
 96  7 15 15 54 30.0000000  0  3  4  7  9
  20712399.003      -91822.218 9
  22628086.433       64631.88749     44119.58749  22628085.5214   22628091.6694
  21108912.476      -64193.99049    -45867.06049  21108914.6904   21108919.4174
 96  7 15 15 55  0.0000000  0  6 24  2  4  5  7  9
  21224942.374     -344464.537 9
  24353754.158      129768.05459     95605.90859  24353758.5854   24353762.8894
  20704355.592     -134099.585 9
  21896737.221     -343975.16759   -249017.18549  21896739.9144   21896744.4764
  22633011.825       90541.81559     64309.11359  22633016.7094   22633021.6024
  21103318.298      -93603.40559    -68783.50659  21103318.4884   21103323.1294
 96  7 15 15 55 30.0000000  0  6 24  2  4  5  7  9
  21203172.547     -458875.943 9    -72265.69859                  21203179.4514
  24361562.943      170777.89359    127561.59659  24361561.4484   24361569.1684
  20696231.315     -176781.47959    -33047.14959  20696233.6214   20696237.7934
  21873716.456     -464949.88359   -343283.19259  21873718.7534   21873723.2514
  22637776.422      115567.87649     83809.91149  22637779.3854   22637783.8424
  21097638.443     -123436.82549    -92030.35349  21097641.2254   21097645.8884
 96  7 15 15 56  0.0000000  0  6 24  2  4  5  7  9
  21181319.049     -573730.39759   -161762.64049  21181317.6114   21181323.4444
  24369231.064      211068.58149    158956.82149  24369230.9054   24369235.0014
  20688046.227     -219793.37359    -66562.90349  20688048.4964   20688052.8384
  21850561.518     -586631.70049   -438100.18849  21850563.4274   21850568.5784
  22642391.275      139798.14549    102690.60849  22642390.1134   22642395.3894
  21091900.016     -153601.33249   -115535.17049  21091900.8944   21091906.1484
 96  7 15 15 56 30.0000000  0  6 24  2  4  5  7  9
  21159386.656     -688970.58149   -251560.15749  21159388.3154   21159394.0004
  24376773.393      250702.01749    189839.93849  24376770.3844   24376776.2834
  20679811.171     -263073.07349   -100287.34449  20679812.6674   20679817.2414
  21827282.924     -708955.55049   -533417.45849  21827285.6844   21827291.1044
  22646855.455      163281.12149    120989.01549  22646859.5224   22646864.3464
  21086112.556     -184013.48149   -139232.96749  21086114.3354   21086118.6494
 96  7 15 15 56 59.9990000  0  6 24  2  4  5  7  9
  21137390.609     -804550.08649   -341622.07949  21137394.1264   21137399.7964
  24384191.998      289725.78249    220248.09649  24384196.6614   24384204.6304
  20671534.372     -306560.32649   -134173.50649  20671537.5934   20671542.1684
  21803896.815     -831871.86549   -629196.39749  21803895.5554   21803900.4834
  22651190.988      186055.14849    138734.97249  22651192.0154   22651198.0224
  21080286.372     -214634.30349   -163093.36449  21080286.8824   21080291.8424
 96  7 15 15 57 29.9990000  0  6 24  2  4  5  7  9
  21115340.055     -920442.99349   -431928.21249  21115340.6124   21115346.4414
  24391512.322      328165.54649    250201.05149  24391512.0344   24391518.8844
  20663231.055     -350207.45049   -168184.25349  20663231.8144   20663236.2784
  21780396.446     -955351.19549   -725414.05649  21780398.6704   21780402.7954
  22655396.456      208140.18549    155944.07049  22655395.4564   22655400.1454
  21074426.007     -245452.34449   -187107.43549  21074422.8504   21074427.4004
 96  7 15 15 57 59.9990000  0  5 24  4  5  7  9
  21093232.809    -1036609.94649   -522447.88949  21093235.0734   21093240.5954
  20654904.858     -393963.10749   -202279.56049  20654905.3454   20654910.0154
  21756796.743    -1079366.94749   -822049.69949  21756799.2294   21756803.9204
  22659467.065      229548.47949    172625.82849  22659469.8414   22659474.7014
  21068523.121     -276450.22149   -211261.64249  21068524.2434   21068528.5774
 96  7 15 15 58 29.9990000  0  5 24  4  5  7  9
  21071087.287    -1152997.87149   -613139.74149  21071087.1754   21071092.6534
  20646560.446     -437803.26049   -236440.71949  20646562.9054   20646567.4684
  21733099.152    -1203901.79749   -919089.83349  21733101.0494   21733105.8704
  22663418.306      250308.32849    188802.30749  22663420.3124   22663425.3104
  21062596.696     -307598.61549   -235533.13449  21062597.2544   21062601.5314
 96  7 15 15 58 59.9990000  0  5 24  4  5  7  9
  21048899.518    -1269570.46549   -703975.49749  21048903.8494   21048909.5564
  20638206.211     -481706.20149   -270650.80249  20638208.2254   20638212.9324
  21709309.722    -1328935.95949  -1016519.03749  21709307.7954   21709312.4774
  22667254.435      270461.35249    204505.94649  22667254.3594   22667260.3044
  21056644.302     -338874.04949   -259903.61649  21056645.2154   21056649.5134
 96  7 15 15 59 29.9990000  0  5 24  4  5  7  9
  21026687.514    -1386313.25649   -794943.88749  21026688.5084   21026694.4904
  20629841.093     -525668.58449   -304907.20449  20629842.8184   20629847.2244
  21685420.496    -1454442.89849  -1114316.65149  21685424.9074   21685429.1424
  22670975.715      290032.47149    219756.12549  22670979.6294   22670985.0204
  21050678.207     -370226.31949   -284333.97749  21050679.3954   21050683.8844
 96  7 15 15 59 59.9990000  0  5 24  4  5  7  9
  21004444.223    -1503202.61649   -886026.47549  21004445.1674   21004450.4274
  20621467.263     -569675.70549   -339198.46649  20621468.4874   20621473.1844
  21661453.514    -1580408.20149  -1212471.41649  21661454.2034   21661458.4874
  22674597.882      309058.84449    234581.85349  22674598.9864   22674605.2064
  21044706.154     -401608.88549   -308787.94649  21044707.3814   21044712.2224
 96  7 15 16  0 29.9990000  0  5 24  4  5  7  9
  20982174.223    -1620230.53949   -977217.03949  20982175.2654   20982181.1464
  20613084.009     -613721.44149   -373519.82149  20613087.1654   20613091.5474
  21637399.985    -1706814.74849  -1310970.01649  21637399.8934   21637404.5884
  22678124.864      327571.52949    249007.30149  22678122.5584   22678127.8874
  21038729.421     -433010.21949   -333256.54449  21038731.5664   21038736.4514
 96  7 15 16  0 59.9990000  0  5 24  4  5  7  9
  20959880.397    -1737386.57349  -1068507.42749  20959881.1894   20959886.9314
  20604701.689     -657774.77049   -407847.08549  20604703.8834   20604708.2514
  21613265.132    -1833634.58049  -1409790.65149  21613266.5394   21613271.5214
  22681546.782      345580.79449    263040.45549  22681549.4274   22681555.4644
  21032756.507     -464411.16949   -357724.83349  21032756.7644   21032760.9744
 96  7 15 16  1 29.9990000  0  5 24  4  5  7  9
  20937566.503    -1854649.04649  -1159880.75149  20937567.1354   20937572.6594
  20596321.448     -701816.02449   -442164.94249  20596323.1324   20596327.6484
  21589060.880    -1960849.37649  -1508919.05049  21589058.9094   21589063.5134
  22684879.498      363089.88249    276683.88449  22684882.2344   22684887.4754
  21026779.367     -495819.95749   -382199.23649  21026779.8404   21026784.3824
 96  7 15 16  1 59.9990000  0  5 24  4  5  7  9
  20915238.844    -1971985.77049  -1251311.94249  20915238.5754   20915244.2984
  20587948.269     -745817.96349   -476452.16749  20587949.6464   20587954.3194
  21564780.901    -2088430.81949  -1608333.14749  21564781.2214   21564785.4534
  22688119.389      380108.62249    289945.19349  22688120.6714   22688125.3534
  21020794.812     -527258.02449   -406696.44949  21020797.3674   21020801.8404
 96  7 15 16  2 29.9990000  0  5 24  4  5  7  9
  20892896.305    -2089384.02649  -1342791.07549  20892898.6564   20892904.2664
  20579586.009     -789758.84149   -510691.80849  20579588.0624   20579592.6334
  21540439.279    -2216344.46449  -1708006.11049  21540439.8064   21540444.4264
  22691263.927      396639.21949    302826.15349  22691266.2254   22691271.6324
  21014809.094     -558722.01149   -431213.85949  21014810.2104   21014814.7494
 96  7 15 16  2 59.9990000  0  5 24  4  5  7  9
  20870550.955    -2206813.20849  -1434294.30349  20870552.4704   20870558.2914
  20571241.212     -833615.94349   -544866.16449  20571242.3424   20571246.8524
  21516037.544    -2344570.02549  -1807922.11149  21516039.3704   21516043.6474
  22694315.284      412693.01949    315335.57649  22694320.7624   22694325.6324
  21008823.469     -590178.98349   -455725.80549  21008824.2014   21008828.7584
 96  7 15 16  3 29.9990000  0  5 24  4  5  7  9
  20848204.697    -2324249.84149  -1525803.34349  20848205.1364   20848210.9834
  20562913.040     -877376.56449   -578965.34649  20562915.0984   20562919.6484
  21491577.880    -2473093.45749  -1908070.23549  21491582.0314   21491586.3074
  22697287.765      428296.06649    327493.75749  22697291.0224   22697295.5444
  21002841.591     -621613.53749   -480220.27649  21002842.1284   21002846.7914
 96  7 15 16  3 59.9990000  0  5 24  4  5  7  9
  20825855.872    -2441682.19649  -1617309.05449  20825858.3474   20825864.2454
  20554607.154     -921030.98049   -612981.76749  20554608.0374   20554612.4914
  21467072.960    -2601890.64749  -2008431.67149  21467073.1704   21467077.0664
  22700175.906      443472.24049    339319.32049  22700178.7384   22700182.6084
  20996872.853     -652989.43949   -504669.05149  20996871.8444   20996876.2924
 96  7 15 16  4 29.9990000  0  5 24  4  5  7  9
  20803515.974    -2559079.98749  -1708787.82449  20803518.3384   20803523.9944
  20546322.323     -964565.03949   -646904.40949  20546323.8744   20546327.9604
  21442512.835    -2730952.72249  -2108999.51849  21442512.9994   21442517.7144
  22702988.993      458256.66749    350839.61749  22702991.7694   22702996.7674
  20990921.364     -684256.30249   -529032.86049  20990921.6614   20990925.9444
 96  7 15 16  4 59.9990000  0  5 24  4  5  7  9
  20781191.098    -2676409.55649  -1800213.45149  20781191.0014   20781196.4604
  20538063.689    -1007967.07249   -680724.17549  20538064.6524   20538068.8024
  21417906.374    -2860262.49349  -2209760.35749  21417906.6024   21417911.1304
  22705734.624      472681.27349    362079.53449  22705736.9284   22705741.1604
  20984994.916     -715400.53049   -553301.10349  20984995.2504   20984999.8724
 96  7 15 16  5 29.9990000  0  5 24  4  5  7  9
  20758877.704    -2793655.61149  -1891573.99249  20758879.9954   20758885.5324
  20529834.521    -1051217.01949   -714425.42749  20529834.5154   20529838.5104
  21393258.006    -2989783.01049  -2310685.42549  21393259.3994   21393263.7284
  22708414.948      486773.78549    373060.68049  22708417.7334   22708423.6174
  20979093.472     -746410.94649   -577465.07849  20979094.9154   20979098.9364
 96  7 15 16  5 59.9990000  0  5 24  4  5  7  9
  20736587.664    -2910797.10349  -1982853.05249  20736589.0864   20736594.7544
  20521635.653    -1094295.86249   -747993.35349  20521637.1454   20521641.0914
  21368576.897    -3119486.57849  -2411753.12449  21368577.8694   21368581.9664
  22711040.696      500563.06849    383805.55549  22711042.6344   22711048.1104
  20973222.046     -777258.16749   -601501.88749  20973224.3604   20973228.5904
 96  7 15 16  6 29.9990000  0  5 24  4  5  7  9
  20714320.714    -3027812.88749  -2074034.15749  20714321.5294   20714326.9174
  20513474.137    -1137183.49849   -781412.28949  20513475.6224   20513479.9724
  21343863.707    -3249355.38249  -2512949.58149  21343864.5484   21343869.0624
  22713607.604      514056.61949    394319.96149  22713610.1474   22713616.2404
  20967386.337     -807927.85949   -625400.36249  20967388.1244   20967392.6354
 96  7 15 16  6 59.9990000  0  5 24  4  5  7  9
  20692078.680    -3144692.70749  -2165109.31749  20692079.9414   20692085.1704
  20505354.860    -1179854.85449   -814662.69149  20505355.8214   20505359.6664
  21319126.121    -3379362.69849  -2614253.96049  21319124.7654   21319129.9674
  22716123.804      527267.70149    404614.29249  22716123.8874   22716129.7844
  20961586.007     -838411.24549   -649153.66349  20961587.3764   20961592.0514
 96  7 15 16  7 29.9990000  0  5 24  4  5  7  9
  20669862.020    -3261435.38749  -2256077.61949  20669865.0724   20669869.6964
  20497278.344    -1222294.12149   -847732.24849  20497279.6694   20497283.8124
  21294360.408    -3509496.45749  -2715656.87249  21294361.0914   21294366.0064
  22718582.876      540202.32749    414693.18149  22718585.5784   22718590.0084
  20955827.103     -868687.14249   -672745.29049  20955825.8914   20955830.4874
 96  7 15 16  7 59.9990000  0  5 24  4  5  7  9
  20647675.554    -3378032.71749  -2346932.66649  20647677.0374   20647682.0954
  20489248.025    -1264497.32449   -880617.86049  20489248.7994   20489252.6164
  21269573.399    -3639755.64049  -2817157.53049  21269573.8594   21269578.3264
  22720992.868      552855.07649    424552.44449  22720992.7864   22720998.6484
  20950104.408     -898749.33849   -696170.39049  20950105.3094   20950109.9924
 96  7 15 16  8 29.9990000  0  5 24  4  5  7  9
  20625520.468    -3494457.02249  -2437652.87949  20625521.9474   20625527.5594
  20481264.088    -1306443.00549   -913302.80249  20481266.7104   20481270.8354
  21244764.897    -3770117.84849  -2918738.46349  21244766.5684   21244771.6454
  22723346.420      565240.19849    434203.17249  22723350.0434   22723355.0894
  20944426.326     -928584.71149   -719418.74749  20944427.7714   20944432.5314
 96  7 15 16  8 59.9990000  0  5 24  4  5  7  9
  20603398.911    -3610704.11749  -2528235.01049  20603400.8964   20603406.6564
  20473335.400    -1348123.58649   -945781.16749  20473335.2464   20473338.8514
  21219939.349    -3900579.31949  -3020396.73749  21219940.4814   21219945.0144
  22725658.290      577372.14049    443656.60149  22725658.3464   22725662.7324
  20938792.806     -958200.79049   -742496.22949  20938791.9064   20938796.8224
 96  7 15 16  9 29.9990000  0  5 24  4  5  7  9
  20581314.172    -3726768.77249  -2618674.98049  20581314.6424   20581320.4234
  20465454.658    -1389526.60449   -978043.26649  20465456.5474   20465460.5524
  21195099.567    -4031131.32749  -3122125.57249  21195097.6564   21195102.0274
  22727919.767      589253.90349    452915.10149  22727920.0904   22727924.7464
  20933197.565     -987600.32049   -765404.97549  20933197.7254   20933202.1574
 96  7 15 16  9 59.9990000  0  5 24  4  5  7  9
  20559265.701    -3842620.32049  -2708948.89149  20559268.5164   20559274.1314
  20457632.667    -1430632.97149  -1010074.19849  20457634.2904   20457638.4724
  21170241.072    -4161758.82649  -3223913.22949  21170239.9174   21170244.1944
  22730137.753      600910.50249    461998.11749  22730138.6014   22730144.2134
  20927646.697    -1016767.35149   -788132.55049  20927647.3774   20927652.3694
 96  7 15 16 10 29.9980000  0  5 24  4  5  7  9
  20537265.854    -3958237.23849  -2799039.98449  20537267.4984   20537272.8124
  20449870.019    -1471425.56949  -1041860.63549  20449871.4524   20449875.8144
  21145370.330    -4292451.10749  -3325751.37449  21145369.8474   21145374.1874
  22732317.484      612359.84849    470919.66749  22732316.9344   22732322.1784
  20922145.170    -1045684.21649   -810665.19149  20922144.7764   20922149.2954
 96  7 15 16 10 59.9980000  0  5 24  4  5  7  9
  20515312.870    -4073608.58849  -2888939.72349  20515313.2614   20515318.4404
  20442171.122    -1511887.37749  -1073389.31949  20442172.0684   20442176.1514
  21120487.080    -4423196.81749  -3427631.14349  21120490.4124   21120494.5404
  22734459.070      623614.81949    479689.75749  22734458.1764   22734465.2674
  20916696.198    -1074320.11549   -832978.90149  20916695.8964   20916700.1174
 96  7 15 16 11 29.9980000  0  5 24  4  5  7  9
  20493409.520    -4188705.17549  -2978625.35349  20493411.1724   20493416.3264
  20434534.665    -1552009.65549  -1104653.42849  20434537.2974   20434541.3174
  21095605.379    -4553965.40549  -3529528.74649  21095605.5294   21095609.6914
  22736560.157      634684.55549    488315.47649  22736565.0994   22736570.1244
  20911304.370    -1102637.69449   -855044.56149  20911306.8404   20911311.5694
 96  7 15 16 11 59.9980000  0  5 24  4  5  7  9
  20471566.376    -4303496.57249  -3068073.18049  20471567.0854   20471572.5234
  20426968.211    -1591788.45349  -1135649.89249  20426967.4284   20426971.9044
  21070722.584    -4684730.44749  -3631423.57749  21070721.6344   21070726.0364
  22738638.924      645584.11149    496808.60849  22738639.1334   22738643.8134
  20905985.032    -1130601.04749   -876834.20649  20905986.0274   20905990.1784
 96  7 15 16 12 29.9980000  0  5 24  4  5  7  9
  20449781.679    -4417967.11749  -3157270.98549  20449783.9064   20449789.7034
  20419462.966    -1631211.73849  -1166369.32949  20419465.2914   20419469.8524
  21045843.479    -4815466.06749  -3733295.47949  21045843.5974   21045848.0804
  22740679.038      656314.85849    505170.18049  22740681.6064   22740687.4814
  20900733.503    -1158199.89149   -898339.81749  20900733.9024   20900738.8874
 96  7 15 16 12 59.9980000  0  5 24  4  5  7  9
  20428063.997    -4532110.53649  -3246213.88249  20428063.2084   20428068.6554
  20412029.764    -1670274.16449  -1196807.57949  20412032.2284   20412036.1144
  21020973.967    -4946150.03949  -3835127.13649  21020975.4524   21020979.8124
  22742692.167      666886.98049    513408.16949  22742692.8964   22742698.9454
  20895546.039    -1185447.88749   -919572.03749  20895548.6504   20895553.1414
 96  7 15 16 13 29.9980000  0  5 24  4  5  7  9
  20406404.673    -4645922.64349  -3334898.62349  20406405.7334   20406410.7154
  20404667.817    -1708970.18449  -1226960.32049  20404668.9114   20404672.5354
  20996118.304    -5076769.21249  -3936908.30649  20996119.2084   20996123.8134
  22744677.282      677308.85649    521529.06749  22744677.9434   22744681.9334
  20890425.341    -1212362.10049   -940544.17749  20890427.0664   20890431.6744
 96  7 15 16 13 59.9980000  0  5 24  4  5  7  9
  20384808.636    -4759408.45149  -3423329.10449  20384810.1324   20384815.0924
  20397374.903    -1747293.06249  -1256822.30049  20397376.1044   20397379.9854
  20971273.785    -5207329.29649  -4038643.43249  20971274.6104   20971279.5194
  22746633.759      687596.04049    529545.02049  22746634.7654   22746639.4704
  20885364.397    -1238959.94749   -961269.78949  20885365.8274   20885370.1834
 96  7 15 16 14 29.9980000  0  5 24  4  5  7  9
  20363275.184    -4872564.20149  -3511502.39949  20363277.0224   20363282.3834
  20390155.691    -1785231.15949  -1286384.45849  20390156.2514   20390160.7994
  20946441.958    -5337826.08949  -4140329.24049  20946442.0994   20946446.6854
  22748568.571      697766.50349    537470.01049  22748570.5154   22748575.2964
  20880362.130    -1265246.41849   -981752.77549  20880364.0694   20880368.0544
 96  7 15 16 14 59.9980000  0  5 24  4  5  7  9
  20341804.143    -4985392.37549  -3599420.43949  20341806.4664   20341812.1314
  20383009.352    -1822780.17749  -1315643.42849  20383011.1304   20383015.4934
  20921621.296    -5468252.54149  -4241960.23549  20921622.5044   20921627.0254
  22750483.612      707839.35149    545318.93449  22750486.7034   22750491.1344
  20875422.080    -1291212.63449  -1001986.21349  20875422.7774   20875427.1854
 96  7 15 16 15 29.9980000  0  5 24  4  5  7  9
  20320397.687    -5097892.18349  -3687082.60849  20320398.4844   20320403.9334
  20375936.633    -1859946.24249  -1344603.99449  20375938.8084   20375942.8544
  20896816.846    -5598604.44949  -4343533.14049  20896817.5614   20896821.8284
  22752386.726      717823.35249    553098.66449  22752386.2974   22752391.5794
  20870544.461    -1316837.03449  -1021953.29449  20870546.3474   20870550.8184
 96  7 15 16 15 59.9980000  0  5 24  4  5  7  9
  20299057.068    -5210032.86049  -3774464.92649  20299058.9424   20299064.1464
  20368942.784    -1896708.01949  -1373249.53249  20368943.4594   20368947.4804
  20872027.885    -5728860.94749  -4445031.71849  20872030.7194   20872034.7794
  22754275.192      727749.85649    560833.54149  22754275.8814   22754281.1504
  20865739.723    -1342088.45549  -1041629.75049  20865741.3764   20865745.8434
 96  7 15 16 16 29.9980000  0  5 24  4  5  7  9
  20277787.345    -5321804.78649  -3861559.90849  20277789.4394   20277794.8384
  20362021.986    -1933071.90049  -1401585.01949  20362023.3594   20362027.3934
  20847263.184    -5859009.58749  -4546446.23449  20847263.7804   20847267.9714
  22756142.216      737597.49949    568507.00249  22756149.8384   22756153.9824
  20861009.271    -1366959.74349  -1061009.99149  20861008.7164   20861012.9934
 96  7 15 16 16 59.9980000  0  5 24  4  5  7  9
  20256587.299    -5433204.76249  -3948365.07549  20256590.4394   20256596.0424
  20355177.981    -1969036.41749  -1429609.31449  20355179.7804   20355183.5204
  20822520.934    -5989039.44749  -4647768.19649  20822520.0894   20822524.1644
  22758006.758      747360.70249    576114.64249  22758007.3344   22758012.5454
  20856346.384    -1391447.75849  -1080091.58949  20856348.3914   20856353.1964
 96  7 15 16 17 29.9980000  0  5 24  4  5  7  9
  20235463.591    -5544229.42549  -4034877.78649  20235463.4804   20235468.7464
  20348407.064    -2004609.33649  -1457328.45849  20348410.8704   20348414.4294
  20797794.966    -6118965.73949  -4749009.45449  20797796.0894   20797800.2694
  22759839.223      757015.18949    583637.59049  22759844.3454   22759849.7214
  20851760.042    -1415556.01549  -1098877.28849  20851761.1114   20851765.7784
 96  7 15 16 17 59.9980000  0  5 24  4  5  7  9
  20214408.926    -5654865.55449  -4121087.72749  20214410.0254   20214415.4094
  20341715.628    -2039780.81949  -1484734.81249  20341717.5474   20341721.4014
  20773091.642    -6248795.85449  -4850175.77149  20773090.1144   20773094.1404
  22761652.566      766545.89849    591064.07849  22761658.2464   22761663.6254
  20847243.094    -1439290.42049  -1117371.63649  20847244.3944   20847249.1184
 96  7 15 16 18 29.9980000  0  5 24  4  5  7  9
  20193425.767    -5765130.54649  -4207008.48649  20193427.5064   20193432.6024
  20335097.763    -2074557.46149  -1511833.49649  20335099.7534   20335103.8254
  20748401.775    -6378534.00049  -4951270.42449  20748402.0974   20748406.0124
  22763447.704      775941.13249    598385.02349  22763446.1414   22763452.2824
  20842798.044    -1462653.74349  -1135576.84649  20842798.8744   20842803.6574
 96  7 15 16 18 59.9980000  0  5 24  4  5  7  9
  20172515.419    -5875010.03749  -4292628.84549  20172517.8574   20172522.9844
  20328559.749    -2108919.59449  -1538609.18449  20328560.8714   20328564.5364
  20723731.483    -6508179.85049  -5052293.15749  20723731.2444   20723735.5954
  22765209.877      785226.43949    605620.25449  22765212.0494   22765218.0234
  20838426.743    -1485632.46349  -1153482.36549  20838425.5954   20838430.0644
 96  7 15 16 19 29.9980000  0  5 24  4  5  7  9
  20151684.150    -5984487.60049  -4377936.02049  20151684.7834   20151690.4354
  20322102.762    -2142851.45749  -1565049.59349  20322104.1034   20322107.9914
  20699078.734    -6637726.96549  -5153238.95049  20699078.8544   20699083.6624
  22766959.521      794414.00249    612779.35249  22766960.8914   22766968.7084
  20834123.957    -1508228.14949  -1171089.41349  20834126.0754   20834130.6934
 96  7 15 16 19 59.9980000  0  5 24  4  5  7  9
  20130927.862    -6093564.59649  -4462931.06049  20130928.5194   20130933.5284
  20315722.723    -2176359.65249  -1591159.87649  20315727.4954   20315731.4944
  20674446.572    -6767164.43549  -5254099.29949  20674447.3884   20674452.3544
  22768692.687      803520.04449    619874.90949  22768693.9884   22768699.5484
  20829892.741    -1530457.07649  -1188410.67749  20829895.8084   20829900.7614
 96  7 15 16 20 29.9980000  0  5 24  4  5  7  9
  20110248.056    -6202236.24549  -4547610.24349  20110249.1394   20110253.8014
  20309430.667    -2209444.92149  -1616940.60449  20309431.6774   20309435.2954
  20649837.605    -6896480.44649  -5354865.01949  20649839.9004   20649844.3784
  22770409.705      812549.12849    626910.52549  22770411.8354   22770418.9834
  20825738.825    -1552304.73549  -1205434.85049  20825738.3874   20825742.9914
 96  7 15 16 20 59.9980000  0  5 24  4  5  7  9
  20089647.501    -6310491.17549  -4631964.71349  20089648.2404   20089653.6684
  20303214.772    -2242110.21349  -1642394.08449  20303215.6114   20303219.3104
  20625254.933    -7025673.83949  -5455535.18149  20625255.3974   20625259.6114
  22772112.733      821495.68849    633881.77249  22772114.9564   22772119.7414
  20821649.272    -1573790.85649  -1222177.30549  20821649.4644   20821655.1174
 96  7 15 16 21 29.9980000  0  5 24  4  5  7  9
  20069124.373    -6418332.00749  -4715996.50849  20069126.8494   20069132.3414
  20297078.610    -2274354.31549  -1667519.35749  20297079.8254   20297083.5264
  20600696.532    -7154719.62449  -5556090.32549  20600698.7964   20600703.2514
  22773803.125      830366.54249    640794.11249  22773802.7734   22773808.1034
  20817629.181    -1594913.03149  -1238636.16649  20817630.5244   20817635.1914
 96  7 15 16 21 59.9980000  0  5 24  4  5  7  9
  20048680.045    -6525772.12949  -4799716.06049  20048681.7224   20048687.2754
  20291018.077    -2306198.78149  -1692333.22849  20291019.9234   20291023.7384
  20576169.385    -7283617.29549  -5656530.05949  20576170.1304   20576174.7034
  22775475.810      839154.79649    647642.04149  22775475.1224   22775481.2784
  20813682.886    -1615643.90449  -1254790.12049  20813685.7854   20813690.7574
 96  7 15 16 22 29.9970000  0  5 24  4  5  7  9
  20028312.545    -6632802.78349  -4883116.54649  20028314.7994   20028320.1214
  20285038.574    -2337626.65249  -1716822.48149  20285039.7834   20285043.4754
  20551672.943    -7412349.65349  -5756840.97049  20551673.4914   20551677.5724
  22777131.960      847866.90049    654430.63449  22777133.4524   22777139.2854
  20809819.622    -1635958.21149  -1270619.47549  20809820.3384   20809825.0054
 96  7 15 16 22 59.9970000  0  5 24  4  5  7  9
  20008020.823    -6739435.73749  -4966207.13949  20008023.1824   20008028.4614
  20279134.539    -2368642.09249  -1740990.36049  20279137.7624   20279141.3874
  20527205.394    -7540921.69549  -5857026.95649  20527207.2804   20527211.1024
  22778774.629      856515.71449    661169.91049  22778779.4694   22778785.1584
  20806026.539    -1655875.89749  -1286139.77249  20806029.9714   20806034.6024
 96  7 15 16 23 29.9970000  0  5 24  4  5  7  9
  19987808.049    -6845659.31949  -5048978.74049  19987809.4754   19987814.7334
  20273312.192    -2399247.31449  -1764838.58749  20273313.5144   20273317.5304
  20502772.231    -7669317.71849  -5957075.79749  20502773.8644   20502778.3714
  22780415.173      865110.94149    667867.44249  22780414.8094   22780419.7794
  20802321.424    -1675368.11449  -1301328.53849  20802321.2244   20802325.4484
 96  7 15 16 23 59.9970000  0  5 24  4  5  7  9
  19967674.590    -6951453.62249  -5131415.84449  19967677.4894   19967682.6244
  20267568.019    -2429426.16449  -1788354.57349  20267570.8234   20267574.2814
  20478372.788    -7797537.81149  -6056987.54449  20478374.2344   20478378.9004
  22782037.741      873657.78149    674527.27449  22782041.7604   22782047.8094
  20798691.654    -1694433.49449  -1316184.71049  20798692.8134   20798697.0934
 96  7 15 16 24 29.9970000  0  5 24  4  5  7  9
  19947633.880    -7056781.01149  -5213489.11049  19947634.5484   19947639.4074
  20261914.706    -2459141.03649  -1811509.01649  20261916.0044   20261919.8974
  20454010.498    -7925559.92249  -6156745.03349  20454012.7004   20454017.2744
  22783667.536      882191.63749    681176.97049  22783665.7424   22783670.8264
  20795141.102    -1713098.65349  -1330729.01549  20795141.1244   20795145.8354
 96  7 15 16 24 59.9970000  0  5 24  4  5  7  9
  19927678.118    -7161640.48349  -5295197.77249  19927680.3054   19927685.1904
  20256346.698    -2488404.36749  -1834311.62049  20256347.6414   20256351.3094
  20429688.989    -8053383.39149  -6256347.73049  20429688.5984   20429692.9504
  22785286.075      890711.15049    687815.49549  22785287.3614   22785292.5524
  20791658.204    -1731387.69849  -1344980.24049  20791660.0994   20791665.3194
 96  7 15 16 25 29.9970000  0  5 24  4  5  7  9
  19907821.065    -7265999.59549  -5376516.54749  19907821.3704   19907826.4924
  20250871.242    -2517180.36649  -1856734.47949  20250871.8414   20250875.3234
  20405407.306    -8180981.09049  -6355774.50449  20405407.8704   20405412.0404
  22786910.772      899248.33449    694467.79049  22786911.3594   22786917.1624
  20788255.109    -1749266.08749  -1358911.48549  20788258.4494   20788263.3134
 96  7 15 16 25 59.9970000  0  5 24  4  5  7  9
  19888056.896    -7369855.02949  -5457442.84349  19888058.3724   19888063.3484
  20245488.899    -2545454.30249  -1878766.12449  20245491.2504   20245494.9714
  20381170.231    -8308344.43749  -6455018.67349  20381171.1044   20381175.4094
  22788541.796      907819.09149    701146.24549  22788542.1754   22788549.1614
  20784931.888    -1766736.01549  -1372524.44049  20784933.8984   20784938.8354
 96  7 15 16 26 29.9970000  0  5 24  4  5  7  9
  19868390.922    -7473211.24949  -5537980.14249  19868390.5274   19868395.2204
  20240199.403    -2573247.79949  -1900423.40049  20240202.5844   20240206.0514
  20356978.370    -8435471.50749  -6554078.72949  20356979.6744   20356984.0344
  22790179.231      916413.95049    707843.47649  22790177.7324   22790183.8964
  20781687.836    -1783793.34649  -1385815.89449  20781688.7044   20781693.1144
 96  7 15 16 26 59.9970000  0  5 24  4  5  7  9
  19848811.778    -7576082.60849  -5618139.62449  19848814.6074   19848819.7554
  20234997.422    -2600585.85649  -1921725.78749  20235000.2594   20235003.7264
  20332832.326    -8562361.81449  -6652954.29349  20332833.1634   20332837.5224
  22791809.860      925009.18649    714541.00249  22791813.2434   22791819.4984
  20778524.356    -1800409.27049  -1398763.41049  20778526.3934   20778531.3724
 96  7 15 16 27 29.9970000  0  5 24  4  5  7  9
  19829331.692    -7678456.22049  -5697911.25849  19829333.1244   19829338.3714
  20229883.576    -2627461.94349  -1942668.19949  20229885.6654   20229889.6834
  20308733.094    -8689002.66849  -6751635.47749  20308734.5924   20308738.3284
  22793445.788      933597.84849    721233.42649  22793448.6684   22793453.7414
  20775453.111    -1816556.78249  -1411345.92449  20775453.8564   20775458.2544
 96  7 15 16 27 59.9970000  0  5 24  4  5  7  9
  19809946.556    -7780317.85349  -5777283.94649  19809949.7504   19809954.7214
  20224859.142    -2653871.52449  -1963247.09949  20224860.3884   20224863.9424
  20284687.668    -8815362.03049  -6850097.30049  20284688.8324   20284693.4914
  22795081.143      942179.96549    727920.76249  22795080.5894   22795087.8454
  20772471.266    -1832226.13449  -1423555.84249  20772471.9674   20772476.8224
 96  7 15 16 28 29.9970000  0  5 24  4  5  7  9
  19790661.661    -7881673.58249  -5856262.41849  19790662.3734   19790667.5984
  20219921.110    -2679821.96749  -1983468.22849  20219922.2754   20219925.9934
  20260694.891    -8941441.39449  -6948340.95649  20260696.8374   20260701.1304
  22796711.838      950745.25049    734594.94949  22796711.6424   22796717.5704
  20769578.068    -1847428.84049  -1435402.14649  20769578.8014   20769583.6414
 96  7 15 16 28 59.9970000  0  5 24  4  5  7  9
  19771469.114    -7982523.73849  -5934846.93849  19771471.0674   19771476.1224
  20215070.544    -2705297.57049  -2003319.35449  20215074.1654   20215078.1154
  20236760.136    -9067230.85449  -7046358.71149  20236759.7264   20236764.2054
  22798337.159      959303.26349    741263.46749  22798338.5504   22798345.7744
  20766773.440    -1862169.04149  -1446888.05249  20766774.4194   20766778.6134
 96  7 15 16 29 29.9970000  0  5 24  4  5  7  9
  19752375.931    -8082860.92849  -6013031.74349  19752377.5884   19752382.7144
  20210319.466    -2730275.53349  -2022782.71549  20210321.2844   20210325.2154
  20212878.343    -9192726.64149  -7144147.63549  20212879.0194   20212883.1874
  22799969.461      967865.90449    747935.63549  22799968.7104   22799974.4514
  20764051.326    -1876459.96149  -1458023.86649  20764054.2514   20764059.6474
 96  7 15 16 29 59.9970000  0  5 24  4  5  7  9
  19733380.383    -8182693.87649  -6090823.64049  19733380.3594   19733385.4524
  20205661.787    -2754751.75249  -2041855.10349  20205663.3374   20205667.5094
  20189049.530    -9317944.04649  -7241719.63849  20189050.8404   20189055.4174
  22801602.133      976451.00249    754625.26749  22801601.8134   22801608.2994
  20761416.498    -1890310.68449  -1468816.66949  20761419.2464   20761423.5944
 96  7 15 16 30 29.9970000  0  5 24  4  5  7  9
  19714475.786    -8282023.04249  -6168222.98349  19714478.7154   19714483.6244
  20201098.890    -2778731.05349  -2060540.28449  20201100.4854   20201104.2714
  20165271.278    -9442906.81249  -7339093.22149  20165271.0084   20165275.6844
  22803238.248      985051.88349    761327.20949  22803239.0144   22803245.3264
  20758865.605    -1903722.89649  -1479267.78249  20758866.4904   20758871.5734
 96  7 15 16 30 59.9970000  0  5 24  4  5  7  9
  19695670.844    -8380852.84349  -6245233.20249  19695671.8894   19695676.7224
  20196627.865    -2802219.62049  -2078843.07249  20196630.5744   20196634.6834
  20141536.919    -9567622.70249  -7436274.43149  20141538.7104   20141542.9204
  22804878.351      993647.04849    768024.69449  22804875.7494   22804881.5034
  20756395.169    -1916702.94749  -1489382.14349  20756396.1664   20756401.2404
 96  7 15 16 31 29.9970000  0  5 24  4  5  7  9
  19676956.547    -8479182.66149  -6321853.82449  19676960.1424   19676964.9444
  20192251.137    -2825224.47649  -2096768.94449  20192252.9584   20192256.7944
  20117851.453    -9692101.66049  -7533271.01949  20117851.0074   20117855.5204
  22806508.905     1002231.09149    774713.52049  22806508.8644   22806514.9364
  20754008.354    -1929242.83549  -1499153.51349  20754010.4204   20754015.0034
 96  7 15 16 31 59.9970000  0  5 24  4  5  7  9
  19658345.081    -8577002.68449  -6398077.20549  19658345.6924   19658350.2514
  20187964.152    -2847752.10449  -2114322.95349  20187966.0434   20187970.1024
  20094209.591    -9816334.93949  -7630076.17349  20094210.3204   20094214.5314
  22808139.839     1010806.74349    781395.79349  22808141.2924   22808145.1034
  20751707.013    -1941332.23249  -1508573.86749  20751709.9814   20751715.0894
 96  7 15 16 32 29.9970000  0  5 24  4  5  7  9
  19639830.396    -8674294.19849  -6473888.76349  19639832.0034   19639836.8654
  20183770.024    -2869795.60949  -2131499.72249  20183771.3394   20183775.5434
  20070621.145    -9940293.01749  -7726666.88249  20070621.7814   20070626.1354
  22809767.460     1019369.74749    788068.21849  22809770.3974   22809776.1434
  20749492.611    -1952963.50549  -1517637.23449  20749496.6124   20749501.7164
 96  7 15 16 32 59.9970000  0  5 24  4  5  7  9
  19621418.303    -8771047.77349  -6549281.14849  19621420.2554   19621425.3214
  20179668.647    -2891335.60249  -2148284.14349  20179672.6384   20179676.3984
  20047087.980   -10063948.80649  -7823022.04449  20047090.7494   20047095.2794
  22811401.837     1027941.91949    794747.78949  22811400.8614   22811407.5584
  20747368.476    -1964129.83749  -1526338.30849  20747371.7784   20747376.2294
 96  7 15 16 33 29.9970000  0  5 24  4  5  7  9
  19603110.318    -8867260.56549  -6624252.14349  19603111.3904   19603116.4354
  20175665.959    -2912376.98749  -2164680.03349  20175668.5004   20175672.4734
  20023615.837   -10187298.68549  -7919138.83449  20023618.0674   20023622.5334
  22813040.192     1036547.26949    801453.20449  22813041.0114   22813044.9334
  20745331.135    -1974840.40349  -1534684.24849  20745333.5974   20745338.7404
 96  7 15 16 33 59.9960000  0  5 24  4  5  7  9
  19584906.987    -8962920.60449  -6698792.42349  19584907.9064   19584912.7224
  20171756.714    -2932920.68649  -2180688.11849  20171759.1784   20171763.0644
  20000206.053   -10310323.41649  -8015002.25949  20000207.4094   20000211.4034
  22814680.447     1045190.91749    808188.46549  22814683.6674   22814690.4444
  20743374.638    -1985114.13649  -1542689.79349  20743378.6884   20743383.4224
 96  7 15 16 34 29.9960000  0  5 24  4  5  7  9
  19566806.855    -9058038.85649  -6772910.53049  19566807.4794   19566812.4294
  20167943.470    -2952960.68249  -2196303.71449  20167945.8634   20167949.6054
  19976856.371   -10433030.26549  -8110617.98749  19976856.7344   19976861.2324
  22816335.935     1053872.95849    814953.62249  22816336.2414   22816341.3704
  20741505.900    -1994958.09349  -1550360.44849  20741505.5084   20741510.1154
 96  7 15 16 34 59.9960000  0  5 24  4  5  7  9
  19548810.822    -9152607.55649  -6846600.41249  19548811.8754   19548816.7324
  20164224.597    -2972505.78849  -2211533.67849  20164226.4164   20164230.5234
  19953563.469   -10555426.60549  -8205991.75349  19953565.5524   19953569.8854
  22817996.301     1062606.75749    821759.14649  22817998.4034   22818002.7654
  20739711.014    -2004377.30149  -1557700.13049  20739712.9384   20739717.9334
 96  7 15 16 35 29.9960000  0  5 24  4  5  7  9
  19530918.243    -9246626.55749  -6919861.95549  19530920.5884   19530925.2614
  20160594.329    -2991583.75949  -2226399.64349  20160596.1724   20160599.6044
  19930331.118   -10677520.50349  -8301129.86449  19930332.2864   19930336.3054
  22819673.548     1071392.58649    828605.21149  22819669.5324   22819676.0734
  20738000.333    -2013377.17449  -1564713.04649  20737999.9694   20738004.7764
 96  7 15 16 35 59.9960000  0  5 24  4  5  7  9
  19513133.208    -9340092.31249  -6992692.40749  19513134.8264   19513139.1304
  20157051.410    -3010195.71949  -2240902.48049  20157054.3634   20157058.3784
  19907154.886   -10799305.60749  -8396027.35049  19907157.2454   19907161.4574
  22821348.163     1080224.52149    835487.16449  22821350.4314   22821358.1364
  20736369.713    -2021943.54949  -1571388.18449  20736370.0844   20736374.9394
 96  7 15 16 36 29.9960000  0  5 24  4  5  7  9
  19495452.066    -9433013.36149  -7065098.41049  19495452.4054   19495457.0124
  20153600.083    -3028341.06449  -2255041.72649  20153601.4514   20153605.7084
  19884037.759   -10920787.17349  -8490688.31549  19884040.0674   19884044.1404
  22823041.261     1089106.67549    842408.27949  22823041.1354   22823047.8594
  20734823.074    -2030065.64349  -1577717.13149  20734825.2334   20734829.6054
 96  7 15 16 36 59.9960000  0  5 24  4  5  7  9
  19477873.317    -9525391.03849  -7137081.00549  19477873.4244   19477878.3074
  20150231.126    -3046041.44949  -2268834.24149  20150233.1384   20150237.2214
  19860979.969   -11041961.54649  -8585109.90749  19860981.2834   19860985.5114
  22824739.639     1098045.67549    849373.73049  22824740.9314   22824748.1954
  20733361.333    -2037752.75749  -1583707.12949  20733361.8984   20733366.6944
 96  7 15 16 37 29.9960000  0  5 24  4  5  7  9
  19460391.839    -9617243.78649  -7208654.56249  19460394.3084   19460399.2904
  20146946.792    -3063299.80949  -2282282.32549  20146948.7914   20146952.7834
  19837981.204   -11162818.52549  -8679284.18049  19837982.9074   19837986.9244
  22826450.366     1107019.53649    856366.28749  22826448.4684   22826455.8754
  20731981.209    -2045013.55949  -1589364.93849  20731980.2324   20731984.8374
 96  7 15 16 37 59.9960000  0  5 24  4  5  7  9
  19443011.857    -9708580.23149  -7279825.80649  19443013.3974   19443018.3964
  20143749.685    -3080105.52949  -2295377.70449  20143750.8834   20143754.8214
  19815046.221   -11283351.00349  -8773205.58349  19815046.3934   19815050.6454
  22828158.914     1116012.83249    863374.01649  22828160.5664   22828166.5524
  20730678.852    -2051847.80649  -1594690.36749  20730680.0614   20730684.6554
 96  7 15 16 38 29.9960000  0  5 24  4  5  7  9
  19425730.539    -9799395.33149  -7350590.81049  19425731.8714   19425736.7284
  20140638.471    -3096453.42149  -2308116.33449  20140640.1314   20140643.5844
  19792173.208   -11403552.28749  -8866868.92149  19792172.6614   19792177.0714
  22829874.084     1125028.40949    870399.10449  22829876.1424   22829883.6344
  20729460.457    -2058262.13549  -1599688.57949  20729459.4114   20729463.9934
 96  7 15 16 38 59.9960000  0  5 24  4  5  7  9
  19408549.262    -9889684.10749  -7420945.69049  19408550.7084   19408555.6044
  20137614.980    -3112347.94749  -2320501.69349  20137615.5394   20137619.1454
  19769363.892   -11523406.81649  -8960262.06449  19769365.3314   19769369.7604
  22831593.313     1134056.89349    877434.20949  22831594.3724   22831601.1474
  20728316.506    -2064248.99749  -1604353.70149  20728320.2334   20728324.9634
 96  7 15 16 39 29.9960000  0  5 24  4  5  7  9
  19391467.758    -9979447.76849  -7490891.38749  19391469.4524   19391474.0544
  20134677.487    -3127777.94549  -2332525.08349  20134679.3584   20134683.0604
  19746623.189   -11642912.39849  -9053383.29449  19746624.4054   19746628.6304
  22833308.649     1143084.51249    884468.69349  22833313.1074   22833318.6604
  20727261.267    -2069796.45949  -1608676.42949  20727264.5564   20727269.2174
 96  7 15 16 39 59.9960000  0  5 24  4  5  7  9
  19374486.464   -10068690.20849  -7560430.94349  19374487.1864   19374491.5444
  20131831.453    -3142745.31749  -2344187.99049  20131830.9324   20131834.8334
  19723943.576   -11762088.70049  -9146247.93449  19723945.8864   19723949.8764
  22835030.669     1152121.93149    891510.74549  22835031.3144   22835037.6854
  20726291.594    -2074910.30349  -1612661.27049  20726291.8224   20726296.3214
 96  7 15 16 40 29.9960000  0  5 24  4  5  7  9
  19357600.879   -10157413.80149  -7629566.19249  19357603.4324   19357608.0484
  20129067.503    -3157258.99649  -2355497.35849  20129069.1624   20129073.1254
  19701325.410   -11880950.93149  -9238867.85049  19701326.9224   19701331.1134
  22836755.519     1161168.00849    898559.59849  22836754.3344   22836759.9534
  20725396.270    -2079606.81349  -1616320.90149  20725398.2584   20725402.4914
 96  7 15 16 40 59.9960000  0  5 24  4  5  7  9
  19340815.901   -10245616.45049  -7698295.51449  19340818.8734   19340823.5984
  20126392.648    -3171317.29049  -2366451.88349  20126393.8534   20126397.9134
  19678764.088   -11999506.59749  -9331248.88649  19678766.5614   19678770.5454
  22838477.257     1170219.60349    905612.70949  22838476.3334   22838483.2604
  20724581.360    -2083886.10749  -1619655.44049  20724583.6154   20724587.6564
 96  7 15 16 41 29.9960000  0  5 24  4  5  7  9
  19324134.037   -10333294.46749  -7766616.03549  19324134.4364   19324139.0914
  20123802.399    -3184921.44549  -2377052.53749  20123805.1994   20123809.2204
  19656262.490   -12117763.57849  -9423397.18149  19656262.8334   19656267.1284
  22840204.723     1179293.10549    912682.95149  22840204.0204   22840208.9934
  20723842.522    -2087772.39749  -1622683.74849  20723843.9884   20723848.3724
 96  7 15 16 41 59.9960000  0  5 24  4  5  7  9
  19307549.109   -10420442.66349  -7834523.71349  19307550.7224   19307555.3724
  20121297.313    -3198083.00849  -2387308.31749  20121300.3424   20121304.4154
  19633815.562   -12235720.84149  -9515311.92049  19633816.5044   19633820.5684
  22841933.866     1188392.84349    919773.61149  22841935.4644   22841941.4654
  20723175.096    -2091276.75649  -1625414.44649  20723176.7124   20723182.0544
 96  7 15 16 42 29.9960000  0  5 24  4  5  7  9
  19291066.067   -10507057.88349  -7902016.08349  19291068.1724   19291073.2244
  20118875.779    -3210812.15949  -2397227.15049  20118878.3824   20118882.1644
  19611428.911   -12353366.62949  -9606983.95849  19611429.2644   19611433.5904
  22843664.666     1197502.25349    926871.79949  22843669.3564   22843674.3594
  20722583.096    -2094399.82149  -1627848.03249  20722582.9054   20722588.2524
 96  7 15 16 42 59.9960000  0  5 24  4  5  7  9
  19274684.903   -10593143.61449  -7969095.85649  19274686.4814   19274691.7134
  20116532.153    -3223121.23949  -2406818.64949  20116535.8634   20116539.7824
  19589104.563   -12470683.44549  -9698399.65149  19589104.5244   19589108.8634
  22845403.585     1206621.43749    933977.61049  22845404.4584   22845410.0344
  20722058.117    -2097139.19449  -1629982.62949  20722061.5714   20722066.6504
 96  7 15 16 43 29.9960000  0  5 24  4  5  7  9
  19258403.420   -10678699.01849  -8035762.39549  19258405.9214   19258410.8714
  20114270.244    -3235018.32749  -2416089.11849  20114272.2174   20114276.0204
  19566844.206   -12587652.42149  -9789544.30649  19566846.0334   19566850.2444
  22847140.193     1215755.30249    941094.86349  22847141.5834   22847149.0234
  20721613.476    -2099489.09449  -1631813.73949  20721614.3264   20721619.3634
 96  7 15 16 43 59.9960000  0  5 24  4  5  7  9
  19242224.875   -10763722.68449  -8102014.58749  19242226.8094   19242231.2884
  20112086.552    -3246494.55349  -2425031.64349  20112088.0694   20112092.0084
  19544652.529   -12704271.67449  -9880416.45249  19544654.2874   19544658.3824
  22848882.679     1224892.04449    948214.34149  22848880.0114   22848886.9774
  20721241.828    -2101432.87949  -1633328.40449  20721244.5954   20721249.4144
 96  7 15 16 44 29.9960000  0  5 24  4  5  7  9
  19226145.241   -10848214.22149  -8167852.13749  19226148.1344   19226153.1054
  20109983.787    -3257541.35749  -2433639.55249  20109986.2064   20109989.2904
  19522528.964   -12820534.59049  -9971010.92949  19522530.0684   19522534.0264
  22850616.560     1234032.19849    955336.51349  22850620.9784   22850625.8134
  20720952.845    -2102968.69149  -1634525.16449  20720952.8004   20720957.2114
 96  7 15 16 44 59.9960000  0  5 24  4  5  7  9
  19210170.670   -10932168.55049  -8233271.07949  19210172.1274   19210177.2094
  20107965.328    -3268153.71249  -2441908.92649  20107966.8404   20107970.3334
  19500471.363   -12936444.17249 -10061330.08049  19500473.2484   19500477.5964
  22852357.057     1243177.56549    962462.70349  22852360.4654   22852365.8894
  20720736.046    -2104101.17349  -1635407.64749  20720736.9434   20720741.9004
 96  7 15 16 45 29.9950000  0  5 24  4  5  7  9
  19194295.678   -11015592.08449  -8298276.41549  19194297.1584   19194302.1334
  20106030.010    -3278329.04749  -2449837.76849  20106030.5234   20106034.2944
  19478482.781   -13052010.24349 -10151381.55749  19478481.6904   19478485.8784
  22854097.888     1252314.89449    969582.63949  22854099.1914   22854103.4714
  20720592.620    -2104846.56649  -1635988.48449  20720595.0784   20720599.9444
 96  7 15 16 45 59.9950000  0  5 24  4  5  7  9
  19178518.678   -11098502.65549  -8362882.04549  19178520.0364   19178524.9834
  20104175.130    -3288066.49149  -2457425.40249  20104177.4394   20104181.2884
  19456552.205   -13167248.13549 -10241177.31849  19456552.9734   19456557.1374
  22855836.876     1261439.59749    976692.74249  22855836.6394   22855841.3214
  20720517.953    -2105221.81649  -1636280.89349  20720523.0034   20720528.7704
 96  7 15 16 46 29.9950000  0  5 24  4  5  7  9
  19162838.633   -11180901.50749  -8427088.92849  19162840.2844   19162844.7754
  20102405.460    -3297375.45149  -2464679.14149  20102405.6714   20102409.8194
  19434685.330   -13282150.88249 -10330711.92649  19434687.3654   19434691.8514
  22857567.914     1270552.92749    983793.99649  22857568.6044   22857576.5874
  20720517.793    -2105239.65549  -1636294.79949  20720520.6684   20720525.3174
 96  7 15 16 46 59.9950000  0  5 24  4  5  7  9
  19147253.769   -11262795.75949  -8490902.62049  19147256.3534   19147260.9534
  20100713.654    -3306267.80449  -2471608.25849  20100713.7954   20100717.4464
  19412883.346   -13396727.57849 -10419992.46649  19412884.1124   19412888.4484
  22859303.238     1279663.55749    990893.14549  22859304.7884   22859310.4884
  20720580.916    -2104912.43849  -1636039.82549  20720582.4914   20720587.9924
 96  7 15 16 47 29.9950000  0  5 24  4  5  7  9
  19131765.896   -11344191.35249  -8554327.74549  19131767.1564   19131771.4554
  20099098.386    -3314749.40049  -2478217.30649  20099099.9184   20099103.5094
  19391145.122   -13510965.63249 -10509009.13549  19391145.3354   19391149.8754
  22861039.440     1288796.02849    998009.29949  22861041.9704   22861048.2954
  20720710.130    -2104233.23049  -1635510.57649  20720711.6954   20720716.6894
 96  7 15 16 47 59.9950000  0  5 24  4  5  7  9
  19116373.705   -11425071.48849  -8617351.21649  19116376.0494   19116381.0634
  20097559.356    -3322826.80349  -2484511.39149  20097562.7894   20097566.4454
  19369469.372   -13624866.65249 -10597763.17149  19369470.8394   19369475.0164
  22862782.361     1297959.10449   1005149.29449  22862785.6564   22862792.0174
  20720909.078    -2103183.94749  -1634692.96849  20720911.6544   20720916.0544
 96  7 15 16 48 29.9950000  0  6 24  6  4  5  7  9
  19101082.502   -11505423.60949  -8679963.24849  19101085.3124   19101090.1244
  23566928.155    -2883199.70759  -2214184.28959  23566932.2844   23566939.4834
  20096097.895    -3330508.09549  -2490496.82749  20096101.0384   20096104.8394
  19347858.884   -13738432.20949 -10686255.81449  19347859.7464   19347864.1424
  22864534.616     1307158.59449   1012317.69649  22864536.5324   22864542.4894
  20721182.327    -2101756.88349  -1633580.96849  20721182.7334   20721188.2784
 96  7 15 16 48 59.9950000  0  6 24  6  4  5  7  9
  19085893.365   -11585240.88449  -8742158.51249  19085896.4504   19085901.3464
  23538661.941    -3031753.10649  -2329940.12849  23538664.8484   23538667.6434
  20094711.241    -3337800.02649  -2496178.85849  20094713.6444   20094717.4434
  19326312.987   -13851656.31649 -10774482.38949  19326314.0674   19326318.0884
  22866293.820     1316395.92449   1019515.61349  22866292.9604   22866300.1344
  20721524.090    -2099951.68349  -1632174.32749  20721526.5324   20721531.5204
 96  7 15 16 49 29.9950000  0  6 24  6  4  5  7  9
  19070810.643   -11664516.19149  -8803931.47749  19070811.4594   19070816.0274
  23510404.986    -3180250.86249  -2445652.70949  23510404.9234   23510410.3694
  20093398.852    -3344697.90549  -2501553.84649  20093401.0734   20093404.9934
  19304835.043   -13964525.42549 -10862432.34249  19304835.8364   19304839.6644
  22868057.747     1325654.85549   1026730.26549  22868056.0644   22868061.8724
  20721944.910    -2097761.58349  -1630467.75449  20721943.0394   20721947.9284
 96  7 15 16 49 59.9950000  0  6 24  6  4  5  7  9
  19055828.456   -11743238.44849  -8865273.48649  19055830.8124   19055835.5864
  23482158.330    -3328682.69149  -2561313.82749  23482159.1634   23482165.1824
  20092165.334    -3351190.67249  -2506613.15549  20092165.6454   20092169.4124
  19283423.389   -14077041.40949 -10950107.14049  19283424.8044   19283428.9394
  22869815.538     1334916.56249   1033947.07649  22869818.7144   22869822.4544
  20722428.921    -2095198.72149  -1628470.73649  20722430.8334   20722436.4254
 96  7 15 16 50 29.9950000  0  6 24  6  4  5  7  9
  19040949.240   -11821424.35049  -8926197.56449  19040952.7734   19040957.1124
  23453927.309    -3477061.38349  -2676933.58649  23453924.2734   23453929.3014
  20091005.376    -3357274.42649  -2511353.75549  20091007.6544   20091011.5934
  19262081.560   -14189191.64349 -11037496.93549  19262083.3124   19262087.3874
  22871585.275     1344188.53349   1041171.94649  22871580.5564   22871585.0744
  20722983.763    -2092292.90249  -1626206.46149  20722983.8174   20722988.6974
 96  7 15 16 50 59.9950000  0  6 24  6  4  5  7  9
  19026172.470   -11899085.00849  -8986712.34649  19026174.1934   19026178.8654
  23425696.754    -3625388.09649  -2792512.83649  23425698.0484   23425702.3054
  20089926.725    -3362939.35549  -2515767.99949  20089929.9104   20089933.4314
  19240811.741   -14300970.84549 -11124597.61049  19240812.2084   19240816.6034
  22873347.427     1353474.44249   1048407.68949  22873347.8884   22873354.7854
  20723598.770    -2089047.72349  -1623677.75949  20723601.7604   20723606.5764
 96  7 15 16 51 29.9950000  0  6 24  6  4  5  7  9
  19011489.922   -11976238.76349  -9046832.14949  19011492.2654   19011497.0504
  23397483.341    -3773663.84549  -2908052.36649  23397482.4994   23397487.5374
  20088927.636    -3368188.48749  -2519858.24349  20088931.1534   20088934.4274
  19219607.339   -14412390.86849 -11211418.40049  19219609.9114   19219614.2224
  22875121.330     1362769.55549   1055650.56249  22875120.5564   22875123.5494
  20724280.333    -2085468.71549  -1620888.92449  20724282.6854   20724287.7134
 96  7 15 16 51 59.9950000  0  6 24  6  4  5  7  9
  18996906.619   -12052885.53449  -9106556.89849  18996907.0694   18996911.8084
  23369276.019    -3921892.72249  -3023555.36549  23369274.6124   23369280.6114
  20088007.003    -3373033.93049  -2523633.93049  20088009.1994   20088012.4444
  19198474.059   -14523456.05049 -11297962.70549  19198475.1264   19198479.4114
  22876892.501     1372077.55049   1062903.49449  22876890.7794   22876895.8434
  20725024.281    -2081565.01949  -1617847.07949  20725026.0154   20725030.3634
 96  7 15 16 52 29.9950000  0  6 24  6  4  5  7  9
  18982413.913   -12129030.73549  -9165890.81649  18982416.8974   18982421.8494
  23341074.977    -4070079.32549  -3139025.44149  23341075.1494   23341081.2434
  20087159.173    -3377490.28349  -2527106.42149  20087160.9604   20087164.3044
  19177405.994   -14634162.14649 -11384227.19349  19177408.2794   19177412.2804
  22878658.226     1381406.91049   1070173.06949  22878664.4184   22878669.4764
  20725829.661    -2077330.81049  -1614547.68449  20725831.6754   20725836.2224
 96  7 15 16 52 59.9950000  0  6 24  6  4  5  7  9
  18968024.656   -12204660.63649  -9224823.19649  18968025.0564   18968029.8654
  23312882.801    -4218218.79649  -3254458.73749  23312884.8494   23312892.8784
  20086384.801    -3381563.24249  -2530280.16149  20086385.9314   20086389.4974
  19156407.062   -14744514.18649 -11470215.80249  19156408.9074   19156412.9424
  22880438.784     1390733.35249   1077440.37849  22880441.4804   22880445.2234
  20726701.459    -2072746.70449  -1610975.64449  20726704.1814   20726709.0634
 96  7 15 16 53 29.9950000  0  6 24  6  4  5  7  9
  18953733.657   -12279750.42649  -9283334.71149  18953736.0474   18953740.9054
  23284702.564    -4366305.98849  -3369851.34749  23284705.9164   23284712.5024
  20085680.531    -3385255.48449  -2533157.24549  20085683.1814   20085687.0484
  19135478.601   -14854495.60549 -11555915.61149  19135480.1804   19135484.2814
  22882211.298     1400051.01849   1084700.83849  22882213.3884   22882218.7594
  20727642.479    -2067802.12549  -1607122.72949  20727644.1124   20727649.3554
 96  7 15 16 53 59.9950000  0  6 24  6  4  5  7  9
  18939549.997   -12354291.07249  -9341418.32149  18939551.5334   18939556.3194
  23256534.791    -4514345.36349  -3485206.70349  23256535.3014   23256541.3174
  20085049.967    -3388570.87149  -2535740.67149  20085052.5304   20085056.1994
  19114621.346   -14964100.17749 -11641321.76549  19114623.3124   19114627.3974
  22883985.035     1409364.50749   1091958.03149  22883986.6124   22883990.9574
  20728652.211    -2062496.45949  -1602988.41149  20728653.9394   20728658.7354
 96  7 15 16 54 29.9950000  0  6 24  6  4  5  7  9
  18925466.744   -12428294.11849  -9399083.02149  18925469.0404   18925473.8774
  23228371.069    -4662349.33149  -3600534.41649  23228370.3444   23228377.0404
  20084492.028    -3391516.62949  -2538036.07949  20084491.9204   20084495.7754
  19093835.149   -15073330.56549 -11726436.34849  19093837.3514   19093841.5164
  22885756.239     1418675.81749   1099213.54849  22885757.5044   22885763.2854
  20729729.032    -2056830.42649  -1598573.32349  20729732.3974   20729736.8414
 96  7 15 16 54 59.9950000  0  6 24  6  4  5  7  9
  18911484.595   -12501770.87349  -9456337.62549  18911486.8544   18911491.6304
  23200207.570    -4810327.94349  -3715842.45949  23200210.6034   23200217.9774
  20083999.029    -3394095.26849  -2540045.42249  20084001.1654   20084004.6874
  19073118.944   -15182196.59849 -11811267.02049  19073121.0354   19073124.9174
  22887527.792     1427965.82649   1106452.44549  22887526.7784   22887530.8154
  20730876.119    -2050815.41449  -1593886.29749  20730877.3764   20730881.6794
 96  7 15 16 55 29.9950000  0  6 24  6  4  5  7  9
  18897600.062   -12574737.15449  -9513194.46449  18897601.7474   18897606.4064
  23172060.833    -4958282.72649  -3831131.86349  23172057.8414   23172062.3734
  20083577.307    -3396315.98049  -2541775.85649  20083578.7394   20083581.9984
  19052474.158   -15290692.02749 -11895808.90549  19052474.6404   19052479.2744
  22889291.538     1437254.26749   1113690.11649  22889292.9654   22889298.8104
  20732083.688    -2044465.47349  -1588938.28349  20732084.6304   20732089.4194
 96  7 15 16 55 59.9950000  0  6 24  6  4  5  7  9
  18883807.452   -12647221.00949  -9569675.37849  18883808.7964   18883813.1744
  23143902.805    -5106223.25549  -3946410.16049  23143905.2424   23143911.5764
  20083221.268    -3398184.35949  -2543231.74549  20083223.3464   20083226.4944
  19031897.104   -15398825.44649 -11980068.71149  19031897.7784   19031901.7314
  22891062.874     1446543.15749   1120928.18049  22891059.1864   22891066.7324
  20733351.521    -2037807.93549  -1583750.56249  20733352.1304   20733357.4714
 96  7 15 16 56 29.9940000  0  6 24  6  4  5  7  9
  18870102.149   -12719228.95549  -9625785.46149  18870106.0404   18870110.7984
  23115763.531    -5254137.04749  -4061667.63849  23115758.2904   23115762.8344
  20082933.171    -3399692.29449  -2544406.77249  20082935.9704   20082939.6564
  19011390.200   -15506587.57949 -12064039.19849  19011390.9354   19011395.1144
  22892821.983     1455825.85849   1128161.36249  22892826.6214   22892833.1094
  20734674.002    -2030857.09849  -1578334.31249  20734674.9024   20734679.4684
 96  7 15 16 56 59.9940000  0  5 24  6  4  5  9
  18856490.350   -12790764.46149  -9681527.40849  18856493.2624   18856498.0364
  23087621.101    -5402012.40749  -4176895.24949  23087617.8864   23087625.1814
  20082716.491    -3400831.99649  -2545294.86949  20082719.0854   20082722.8134
  18990954.191   -15613979.41549 -12147721.15049  18990954.9774   18990959.2024
  20736053.105    -2023603.60849  -1572682.22449  20736054.8754   20736060.5884
 96  7 15 16 57 29.9940000  0  5 24  6  4  5  9
  18842972.600   -12861812.19749  -9736889.27249  18842973.2834   18842977.8994
  23059488.893    -5549816.84449  -4292067.48749  23059490.5124   23059496.8264
  20082568.357    -3401609.53949  -2545900.76349  20082571.3064   20082574.8754
  18970591.789   -15720982.81449 -12231100.42049  18970592.9604   18970597.2224
  20737493.550    -2016036.21049  -1566785.53049  20737495.1464   20737499.5594
 96  7 15 16 57 59.9940000  0  5 24  6  4  5  9
  18829549.125   -12932352.05049  -9791855.39049  18829550.1064   18829554.5834
  23031376.313    -5697546.13549  -4407181.19549  23031378.4724   23031385.3884
  20082491.630    -3402016.13349  -2546217.60649  20082493.4134   20082497.3474
  18950305.570   -15827593.60949 -12314173.77149  18950305.9054   18950309.8784
  20738991.910    -2008149.28849  -1560639.87649  20738995.7924   20739000.7084
 96  7 15 16 58 29.9940000  0  5 24  6  4  5  9
  18816225.317   -13002360.54149  -9846407.44449  18816227.8694   18816232.6954
  23003279.021    -5845195.34549  -4522232.53349  23003283.7134   23003289.7534
  20082481.806    -3402067.49449  -2546257.63549  20082484.1914   20082488.0054
  18930092.305   -15933808.59449 -12396938.68949  18930093.6404   18930097.8734
  20740560.333    -1999913.70849  -1554222.54749  20740562.3624   20740568.3374
 96  7 15 16 58 59.9940000  0  5 24  6  4  5  9
  18803008.972   -13071818.66349  -9900530.64849  18803010.5864   18803015.2634
  22975193.997    -5992780.46349  -4637233.86449  22975197.8034   22975204.0294
  20082539.118    -3401771.88949  -2546027.31749  20082540.1004   20082544.1594
  18909955.867   -16039626.07449 -12479393.86749  18909957.3384   18909961.4164
  20742197.568    -1991321.68649  -1547527.46849  20742198.5354   20742203.0334
 96  7 15 16 59 29.9940000  0  5 24  6  4  5  9
  18789897.197   -13140714.06749  -9954215.37249  18789900.1064   18789904.7614
  22947113.508    -6140324.03649  -4752202.88049  22947122.5184   22947127.5854
  20082662.466    -3401120.09949  -2545519.44949  20082664.4574   20082668.7544
  18889897.085   -16145037.68449 -12561532.78949  18889898.2594   18889902.6224
  20743891.983    -1982395.18949  -1540571.75249  20743896.4564   20743901.7624
 96  7 15 16 59 59.9940000  0  5 24  6  4  5  9
  18776892.170   -13209058.82949 -10007471.02449  18776894.3384   18776899.1754
  22919045.880    -6287847.48249  -4867156.16449  22919048.5334   22919055.2314
  20082853.116    -3400103.59349  -2544727.38949  20082857.7674   20082861.8794
  18869913.970   -16250041.73249 -12643354.12749  18869916.5534   18869920.8244
  20745653.858    -1973146.04949  -1533364.66149  20745656.7344   20745662.1224
 96  7 15 17  0 29.9940000  0  5 24  6  4  5  9
  18763987.248   -13276871.60349 -10060312.13849  18763989.7744   18763994.6974
  22890983.397    -6435336.96049  -4982082.98249  22890983.7624   22890989.2274
  20083118.959    -3398708.93849  -2543640.66449  20083123.2674   20083127.4514
  18850011.769   -16354631.74349 -12724852.83849  18850013.7034   18850017.8254
  20747476.262    -1963581.98849  -1525912.14349  20747476.8724   20747482.1824
 96  7 15 17  0 59.9940000  0  5 24  6  4  5  9
  18751180.521   -13344165.57749 -10112748.99549  18751184.4184   18751189.3404
  22862922.870    -6582782.29649  -5096975.42349  22862925.4304   22862930.5524
  20083466.044    -3396908.85649  -2542238.02549  20083465.8534   20083470.2004
  18830190.198   -16458798.75349 -12806021.93949  18830191.5754   18830195.6884
  20749348.183    -1953734.51849  -1518238.81249  20749350.7054   20749355.8204
 96  7 15 17  1 29.9940000  0  5 24  6  4  5  9
  18738473.848   -13410952.68649 -10164790.88649  18738475.1444   18738480.1414
  22834876.357    -6730172.30649  -5211824.75249  22834877.0934   22834882.9944
  20083882.110    -3394715.76149  -2540529.14949  20083883.4364   20083887.1304
  18810448.006   -16562544.12349 -12886862.48949  18810449.7074   18810453.6944
  20751276.339    -1943608.68649  -1510348.55549  20751278.0954   20751283.0254
 96  7 15 17  1 59.9940000  0  5 24  6  4  5  9
  18725860.074   -13477238.98249 -10216442.53949  18725861.3014   18725866.3384
  22806836.782    -6877492.12749  -5326619.41849  22806844.8014   22806849.0424
  20084372.354    -3392137.65549  -2538520.25749  20084373.7874   20084377.8134
  18790785.303   -16665874.34049 -12967379.54249  18790786.4644   18790790.6654
  20753258.201    -1933188.20349  -1502228.71249  20753260.5314   20753265.8444
 96  7 15 17  2 29.9940000  0  5 24  6  4  5  9
  18713343.055   -13543006.41349 -10267689.88449  18713345.9794   18713351.0164
  22778827.187    -7024725.13049  -5441346.37149  22778826.8684   22778831.5384
  20084934.973    -3389180.71749  -2536216.17449  20084936.8574   20084940.1424
  18771199.798   -16768797.44349 -13047579.36449  18771200.7524   18771204.9114
  20755296.045    -1922477.18849  -1493882.47749  20755298.5734   20755303.8134
 96  7 15 17  2 59.9940000  0  5 24  6  4  5  9
  18700931.657   -13608234.70149 -10318517.11849  18700933.6764   18700938.6964
  22750822.643    -7171880.01949  -5556012.43249  22750823.3834   22750828.8734
  20085564.294    -3385869.89649  -2533636.34049  20085566.6904   20085570.4224
  18751688.422   -16871327.52749 -13127472.93149  18751690.0414   18751693.9664
  20757392.205    -1911461.20749  -1485298.61049  20757394.5924   20757399.8964
 96  7 15 17  3 29.9940000  0  5 24  6  4  5  9
  18688621.015   -13672929.71549 -10368928.80849  18688622.6974   18688627.3364
  22722831.429    -7318964.87749  -5670623.99349  22722833.6764   22722839.5924
  20086258.070    -3382230.47249  -2530800.44949  20086259.3084   20086263.0174
  18732251.430   -16973469.30049 -13207063.92349  18732252.9264   18732256.9194
  20759553.455    -1900127.06749  -1476466.80549  20759551.5824   20759556.9024
 96  7 15 17  3 59.9940000  0  5 24  6  4  5  9
  18676410.266   -13737098.46949 -10418930.42949  18676411.9454   18676416.7184
  22694862.757    -7465977.19749  -5785178.99149  22694858.2974   22694864.2494
  20087012.826    -3378259.26049  -2527706.01849  20087014.8534   20087018.5594
  18712890.226   -17075215.47949 -13286346.66449  18712891.5484   18712895.3834
  20761765.241    -1888479.80049  -1467391.01849  20761768.2374   20761772.7744
 96  7 15 17  4 29.9940000  0  5 24  6  4  5  9
  18664299.864   -13800739.17449 -10468520.58649  18664301.4564   18664306.2044
  22666888.796    -7612927.06549  -5899685.32749  22666894.8194   22666900.5104
  20087827.989    -3373975.93749  -2524368.39349  20087829.8914   20087833.5164
  18693605.006   -17176557.82349 -13365314.73149  18693606.4024   18693610.5164
  20764039.022    -1876530.55749  -1458079.92449  20764042.1004   20764047.0494
 96  7 15 17  4 59.9940000  0  6 24  6 16  4  5  9
  18652287.675   -13863865.40249 -10517709.84949  18652289.1914   18652293.3474
  22638937.921    -7759829.17649  -6014154.46349  22638939.9314   22638945.9044
  22902111.176     -638126.88319   -455648.48059                  22902132.7094
  20088703.288    -3369384.05549  -2520790.32849  20088703.7824   20088707.1314
  18674401.437   -17277475.12749 -13443951.59649  18674402.3134   18674406.4164
  20766372.294    -1864277.86549  -1448532.36049  20766374.1894   20766378.1144
 96  7 15 17  5 29.9940000  0  6 24  6 16  4  5  9
  18640371.537   -13926486.14249 -10566505.22349  18640372.8394   18640377.0854
  22610993.873    -7906673.95649  -6128578.95749  22610996.7144   22611002.6844
  22870097.066     -806449.57359   -586809.01759  22870096.0254   22870100.2544
  20089638.586    -3364469.13549  -2516960.53949  20089638.9084   20089642.8774
  18655281.321   -17377944.31849 -13522239.28449  18655283.8394   18655287.7314
  20768760.460    -1851734.01949  -1438757.95349  20768761.0644   20768766.3124
 96  7 15 17  5 59.9940000  0  6 24  6 16  4  5  9
  18628551.296   -13988591.90049 -10614899.31249  18628554.0794   18628558.7804
  22583057.041    -8053469.36349  -6242964.93649  22583061.7024   22583068.8394
  22838048.653     -974829.52859   -718014.11849  22838052.8674   22838060.8174
  20090636.213    -3359227.48749  -2512876.15549  20090636.8154   20090640.3204
  18636246.637   -17477980.09049 -13600189.23749  18636247.7774   18636251.8274
  20771197.003    -1838905.51949  -1428761.73549  20771201.7704   20771206.8264
 96  7 15 17  6 29.9940000  0  6 24  6 16  4  5  9
  18616831.350   -14050181.85949 -10662891.47949  18616833.9114   18616838.5064
  22555136.498    -8200210.51249  -6357308.68549  22555138.3654   22555143.9454
  22805996.668    -1143268.50749   -849265.19149  22805999.2484   22806006.7544
  20091695.481    -3353652.50449  -2508532.04249  20091697.0654   20091701.2944
  18617293.948   -17577584.43549 -13677803.02049  18617293.6424   18617297.9044
  20773691.326    -1825791.56849  -1418543.07349  20773697.5244   20773702.4034
 96  7 15 17  6 59.9940000  0  6 24  6 16  4  5  9
  18605207.555   -14111266.86949 -10710490.18949  18605210.1734   18605214.5614
  22527226.358    -8346882.68549  -6471598.65849  22527228.3034   22527232.8774
  22773940.257    -1311775.74349   -980569.51049  22773934.9554   22773941.8654
  20092825.914    -3347726.25149  -2503914.20949  20092825.4594   20092828.9034
  18598418.132   -17676768.00149 -13755088.91949  18598419.5604   18598423.8124
  20776244.558    -1812399.69049  -1408107.85149  20776246.0794   20776250.5514
 96  7 15 17  7 29.9940000  0  6 24  6 16  4  5  9
  18593678.412   -14171857.24649 -10757703.46549  18593680.2034   18593684.4854
  22499324.988    -8493486.27949  -6585835.18949  22499330.6004   22499335.3454
  22741855.675    -1480357.83849  -1111932.15449  22741854.7804   22741861.2374
  20094015.757    -3341449.17849  -2499022.99649  20094019.7354   20094023.3304
  18579620.483   -17775549.58449 -13832061.58049  18579622.2464   18579626.5244
  20778843.621    -1798735.32249  -1397460.29049  20778845.9764   20778850.9774
 96  7 15 17  7 59.9930000  0  6 24  6 16  4  5  9
  18582240.434   -14231963.66249 -10804539.63049  18582242.1044   18582246.5974
  22471444.887    -8640025.58649  -6700021.69649  22471442.6474   22471449.2174
  22709769.648    -1649010.03549  -1243349.39749  22709762.0034   22709767.4474
  20095278.208    -3334830.43349  -2493865.55249  20095279.1804   20095282.9814
  18560897.525   -17873937.85849 -13908727.76749  18560899.3574   18560903.8694
  20781492.615    -1784806.50249  -1386606.65749  20781496.1294   20781501.1464
 96  7 15 17  8 29.9930000  0  6 24  6 16  4  5  9
  18570889.122   -14291614.19049 -10851020.55849  18570890.9944   18570895.7544
  22443565.404    -8786511.13949  -6814166.27249  22443568.4634   22443575.5714
  22677651.758    -1817746.21149  -1374832.06849  22677651.5644   22677658.1064
  20096601.755    -3327877.90849  -2488448.02449  20096601.9264   20096606.0854
  18542252.189   -17971918.35149 -13985076.20549  18542254.2644   18542258.4004
  20784191.111    -1770628.21549  -1375558.65949  20784194.7834   20784200.0184
 96  7 15 17  8 59.9930000  0  6 24  6 16  4  5  9
  18559626.540   -14350805.44049 -10897143.60449  18559627.4494   18559631.7484
  22415701.288    -8932952.93449  -6928276.80549  22415700.2064   22415706.9554
  22645534.169    -1986550.80649  -1506368.08249  22645530.6154   22645537.0744
  20097979.289    -3320606.69849  -2482782.17049  20097985.7124   20097989.5724
  18523686.346   -18069485.08249 -14061102.22949  18523687.9544   18523692.1514
  20786933.617    -1756209.67949  -1364323.43749  20786938.6414   20786943.6764
 96  7 15 17  9 29.9930000  0  6 24  6 16  4  5  9
  18548449.372   -14409542.96549 -10942913.10249  18548449.9354   18548454.2324
  22387842.925    -9079362.55749  -7042362.19149  22387840.1134   22387847.6254
  22613391.769    -2155422.89449  -1637956.65949  22613394.1664   22613400.8304
  20099424.105    -3313037.31449  -2476883.97249  20099426.5144   20099430.3264
  18505200.750   -18166630.88749 -14136800.26349  18505202.1584   18505206.0094
  20789728.194    -1741548.96149  -1352899.52249  20789728.3454   20789733.5114
 96  7 15 17  9 59.9930000  0  6 24  6 16  4  5  9
  18537358.204   -14467819.05849 -10988323.04249  18537360.1114   18537364.7784
  22359981.700    -9225741.47649  -7156423.64549  22359985.5474   22359991.6994
  22581248.370    -2324346.78549  -1769585.62649  22581248.4534   22581254.7874
  20100918.838    -3305181.34149  -2470762.45049  20100921.4684   20100925.2404
  18486798.382   -18263339.58949 -14212157.70049  18486798.7884   18486803.1044
  20792560.342    -1726651.43549  -1341291.06549  20792564.3824   20792568.5104
 96  7 15 17 10 29.9930000  0  6 24  6 16  4  5  9
  18526358.697   -14525625.33849 -11033366.89549  18526360.0564   18526364.5934
  22332133.952    -9372095.99349  -7270466.05649  22332137.1644   22332139.4944
  22549096.993    -2493314.54849  -1901248.79849  22549094.8534   22549101.6774
  20102469.928    -3297046.41849  -2464423.57549  20102469.2944   20102472.8174
  18468477.820   -18359608.37649 -14287172.34349  18468479.3504   18468483.6834
  20795440.076    -1711524.73549  -1329504.02649  20795441.3824   20795446.5234
 96  7 15 17 10 59.9930000  0  6 24  6 16  4  5  9
  18515450.370   -14582944.13949 -11078030.89649  18515452.6134   18515457.1734
  22304293.244    -9518424.40249  -7384488.14949  22304288.7334   22304295.4364
  22516930.213    -2662324.73949  -2032944.99549  22516932.6764   22516940.9974
  20104067.778    -3288641.65549  -2457874.43349  20104068.9064   20104073.2074
  18450238.289   -18455455.06049 -14361858.06949  18450240.1134   18450244.8364
  20798363.995    -1696170.05149  -1317539.33249  20798363.1564   20798368.4724
 96  7 15 17 11 29.9930000  0  6 24  6 16  4  5  9
  18504637.696   -14639769.31949 -11122310.24949  18504639.1924   18504643.6954
  22276437.174    -9664714.74449  -7498480.58049  22276450.1764   22276457.5034
  22484763.850    -2831377.37549  -2164674.28849  22484764.9464   22484770.1064
  20105718.728    -3279963.87149  -2451112.54949  20105720.2464   20105724.0274
  18432081.887   -18550871.43549 -14436208.49049  18432083.2954   18432087.7634
  20801327.381    -1680585.70049  -1305395.70149  20801329.8114   20801334.1684
 96  7 15 17 11 59.9930000  0  6 24  6 16  4  5  9
  18493922.491   -14696076.60449 -11166186.05549  18493924.3624   18493928.8324
  22248618.462    -9810963.06349  -7612440.28849  22248622.3174   22248628.2054
  22452584.423    -3000452.31649  -2296420.92149  22452589.4384   22452597.2524
  20107423.748    -3271008.42849  -2444134.29649  20107424.3694   20107428.0944
  18414009.300   -18645846.07149 -14510214.70649  18414010.0824   18414014.4554
  20804335.261    -1664774.39849  -1293075.22449  20804337.1484   20804343.3524
 96  7 15 17 12 29.9930000  0  6 24  6 16  4  5  9
  18483308.615   -14751857.26049 -11209651.50249  18483309.8814   18483314.4214
  22220801.612    -9957159.89049  -7726359.81749  22220802.4974   22220806.3014
  22420415.391    -3169556.63849  -2428190.46849  22420411.6684   22420416.3974
  20109179.560    -3261775.72549  -2436940.00449  20109181.0144   20109185.0724
  18396018.519   -18740385.41649 -14583881.72749  18396020.2214   18396024.1534
  20807388.342    -1648736.43649  -1280578.12349  20807390.2204   20807394.2084
 96  7 15 17 12 59.9930000  0  6 24  6 16  4  5  9
  18472795.236   -14807105.13349 -11252701.79449  18472796.3784   18472800.8154
  22192995.550   -10103290.34249  -7840227.67049  22192993.1704   22193000.2244
  22388224.769    -3338681.80349  -2559976.33549  22388226.6624   22388233.9754
  20110988.871    -3252268.17449  -2429531.54549  20110990.3164   20110994.2724
  18378113.056   -18834477.12649 -14657199.95049  18378114.6574   18378119.0604
  20810489.042    -1632455.20849  -1267891.46249  20810488.8764   20810493.2724
 96  7 15 17 13 29.9930000  0  6 24  6 16  4  5  9
  18462378.872   -14861835.99649 -11295349.22049  18462381.4764   18462386.1474
  22165202.247   -10249357.63949  -7954046.31649  22165198.3794   22165203.0444
  22356042.757    -3507820.06149  -2691772.36349  22356041.1374   22356047.0934
  20112851.517    -3242474.52049  -2421900.14449  20112854.0374   20112858.2724
  18360294.858   -18928113.39649 -14730163.27649  18360296.3244   18360300.8104
  20813635.484    -1615927.70149  -1255012.91449  20813634.1614   20813638.6964
 96  7 15 17 13 59.9930000  0  6 24  6 16  4  5  9
  18452061.263   -14916058.61749 -11337600.61449  18452062.8894   18452067.8864
  22137409.666   -10395374.44449  -8067825.56649  22137413.0894   22137417.6684
  22323852.819    -3676977.45149  -2823583.31149  22323851.5644   22323857.8134
  20114773.820    -3232387.65849  -2414040.27449  20114773.8284   20114777.5924
  18342560.542   -19021306.29749 -14802781.13049  18342562.4644   18342566.7824
  20816830.355    -1599145.45049  -1241935.84449  20816828.1824   20816831.3774
 96  7 15 17 14 29.9930000  0  6 24  6 16  4  5  9
  18441836.312   -14969792.69349 -11379471.32249  18441838.0124   18441842.6844
  22109633.262   -10541339.89149  -8181564.84949  22109636.0764   22109641.8784
  22291657.950    -3846161.22149  -2955414.82449  22291656.8674   22291663.5014
  20116745.115    -3222002.58149  -2405948.02649  20116749.7604   20116753.7704
  18324908.567   -19114069.42849 -14875064.08749  18324910.4014   18324914.7484
  20820067.589    -1582105.87249  -1228658.26249  20820069.1524   20820074.4734
 96  7 15 17 14 59.9930000  0  6 24  6 16  4  5  9
  18431699.285   -15023060.36349 -11420978.59649  18431701.4584   18431706.2744
  22081866.110   -10687258.33549  -8295267.52649  22081867.3304   22081872.9374
  22259456.246    -4015363.33449  -3087260.58549  22259457.9694   22259464.1224
  20118784.545    -3211312.32249  -2397617.97649  20118783.6354   20118788.3234
  18307337.317   -19206409.30249 -14947017.24049  18307338.6404   18307342.8814
  20823357.068    -1564812.56449  -1215182.98449  20823360.1694   20823365.4224
 96  7 15 17 15 29.9930000  0  6 24  6 16  4  5  9
  18421651.037   -15075863.65249 -11462124.02049  18421653.2864   18421658.2244
  22054108.944   -10833143.38549  -8408944.16049  22054106.8754   22054112.7514
  22227255.600    -4184589.08349  -3219124.78549  22227256.5434   22227261.3074
  20120875.190    -3200307.60149  -2389042.89649  20120878.0224   20120882.5834
  18289846.059   -19298331.84749 -15018645.20249  18289846.3454   18289850.5964
  20826691.374    -1547287.08049  -1201526.75349  20826695.4004   20826700.1154
 96  7 15 17 15 59.9930000  0  6 24  6 16  4  5  9
  18411694.086   -15128187.58149 -11502895.90949  18411696.0444   18411700.9564
  22026350.384   -10978987.35049  -8522588.75749  22026353.6184   22026360.0434
  22195054.460    -4353818.49649  -3350991.82049  22195051.5804   22195059.3614
  20123029.475    -3188999.44349  -2380231.36649  20123030.1784   20123034.1374
  18272435.698   -19389818.29749 -15089933.35249  18272437.2544   18272441.0054
  20830068.493    -1529537.22949  -1187695.71049  20830071.9444   20830078.3244
 96  7 15 17 16 29.9930000  0  6 24  6 16  4  5  9
  18401827.617   -15180037.60749 -11543298.53049  18401829.3684   18401834.3064
  21998608.833   -11124767.29349  -8636183.48249  21998612.2814   21998618.6714
  22162853.195    -4523028.62649  -3482843.83549  22162853.0084   22162859.6414
  20125236.577    -3177393.46249  -2371187.76449  20125238.7004   20125242.5814
  18255113.781   -19480848.39949 -15160865.90249  18255114.8004   18255118.6784
  20833490.449    -1511580.68449  -1173703.61049  20833489.9204   20833495.3954
 96  7 15 17 16 59.9930000  0  6 24  6 16  4  5  9
  18392050.976   -15231413.04549 -11583331.33649  18392053.1554   18392057.9764
  21970877.415   -11270487.21949  -8749731.45149  21970882.6784   21970889.5894
  22130657.659    -4692210.33549  -3614673.74649  22130659.1484   22130664.8284
  20127501.192    -3165498.16849  -2361918.72449  20127502.1024   20127506.5544
  18237882.480   -19571399.33549 -15231425.07549  18237883.5954   18237887.7264
  20836940.103    -1493437.88449  -1159566.37349  20836942.1464   20836948.4464
 96  7 15 17 17 29.9930000  0  6 24  6 16  4  5  9
  18382367.985   -15282297.37749 -11622981.46649  18382370.2374   18382374.9474
  21943165.919   -11416145.65049  -8863231.48449  21943165.7704   21943171.7364
  22098472.431    -4861352.84949  -3746473.05849  22098473.6084   22098479.5904
  20129812.483    -3153330.09049  -2352437.13349  20129817.7294   20129822.0344
  18220746.421   -19661449.76049 -15301594.24349  18220747.4464   18220751.8434
  20840430.648    -1475104.41849  -1145280.59049  20840430.9774   20840436.6884
 96  7 15 17 17 59.9930000  0  6 24  6 16  4  5  9
  18372772.278   -15332716.97649 -11662269.47149  18372775.5074   18372780.7104
  21915457.875   -11561738.61349  -8976680.49549  21915460.0954   21915465.5924
  22066289.161    -5030457.75249  -3878242.99949  22066293.1824   22066298.8544
  20132180.292    -3140910.39449  -2342759.47649  20132181.1504   20132185.3304
  18203704.163   -19751008.95449 -15371380.62849  18203705.0794   18203709.1644
  20843958.259    -1456568.85349  -1130837.29349  20843958.4884   20843963.4694
 96  7 15 17 18 29.9930000  0  6 24  6 16  4  5  9
  18363266.652   -15382672.30249 -11701195.70249  18363269.3694   18363274.2564
  21887765.712   -11707266.80549  -9090079.02849  21887767.5224   21887772.9564
  22034129.353    -5199548.55449  -4010002.02749  22034114.3594   22034121.1084
  20134592.277    -3128238.89349  -2332885.59849  20134593.0884   20134596.5814
  18186751.228   -19840096.94049 -15440799.84349  18186752.0064   18186756.1104
  20847524.142    -1437819.66849  -1116227.54549  20847526.1824   20847530.7364
 96  7 15 17 18 59.9920000  0  6 24  6 16  4  5  9
  18353852.278   -15432148.08449 -11739748.26249  18353854.5384   18353859.4264
  21860079.614   -11852742.57049  -9203436.75049  21860083.9194   21860090.1294
  22001943.086    -5368634.25949  -4141757.03249  22001939.0204   22001947.5004
  20137045.784    -3115330.10449  -2322826.82149  20137048.9204   20137052.8984
  18169886.721   -19928720.49249 -15509857.16049  18169887.3724   18169891.3094
  20851137.108    -1418845.81949  -1101442.74549  20851136.9804   20851141.5854
 96  7 15 17 19 29.9920000  0  6 24  6 16  4  5  9
  18344527.408   -15481154.64649 -11777935.19349  18344528.8914   18344533.7634
  21832405.703   -11998174.33049  -9316760.16349  21832408.3854   21832414.4814
  21969760.954    -5537747.88849  -4273533.83449  21969759.0154   21969764.5814
  20139544.918    -3102195.19549  -2312591.85649  20139548.8864   20139552.5044
  18153105.121   -20016908.27749 -15578574.92149  18153105.8484   18153110.0604
  20854792.576    -1399635.19149  -1086473.42549  20854792.9104   20854797.7454
 96  7 15 17 19 59.9920000  0  6 24  6 16  4  5  9
  18335288.735   -15529695.49249 -11815759.22949  18335291.8414   18335296.8514
  21804748.249   -12143545.95949  -9430036.73449  21804745.9424   21804751.4644
  21937566.391    -5706892.62449  -4405334.86949  21937571.7014   21937576.5784
  20142091.536    -3088815.77949  -2302166.36249  20142094.2624   20142098.3334
  18136405.086   -20104664.85149 -15646956.66949  18136406.3254   18136410.4724
  20858489.785    -1380200.67749  -1071329.66449  20858491.3964   20858495.8064
 96  7 15 17 20 29.9920000  0  6 24  6 16  4  5  9
  18326144.795   -15577744.81249 -11853200.26149  18326148.4544   18326153.1794
  21777090.450   -12288850.79349  -9543261.25049  21777093.7384   21777100.5674
  21905376.725    -5876063.03949  -4537155.94249  21905378.7884   21905385.9534
  20144687.484    -3075192.61349  -2291550.92549  20144687.1394   20144691.1334
  18119789.917   -20191974.66149 -15714990.28749  18119791.7254   18119796.1084
  20862224.762    -1360566.64549  -1056030.44949  20862227.7094   20862232.3174
 96  7 15 17 20 59.9920000  0  6 24  6 16  4  5  9
  18317097.090   -15625304.37749 -11890259.66349  18317098.4934   18317102.8254
  21749460.231   -12434082.64849  -9656428.87949  21749457.8244   21749463.4054
  21873177.680    -6045235.68549  -4668978.71149  21873187.0684   21873192.9504
  20147323.380    -3061318.12949  -2280739.66049  20147327.4364   20147330.9374
  18103264.383   -20278820.80949 -15782662.61349  18103265.3704   18103269.9944
  20865998.485    -1340741.53549  -1040582.34049  20866000.3554   20866004.1304
 96  7 15 17 21 29.9920000  0  6 24  6 16  4  5  9
  18308137.215   -15672385.79649 -11926946.47949  18308138.9354   18308143.5234
  21721831.802   -12579242.65349  -9769540.51949  21721834.7714   21721840.7314
  21840995.452    -6214402.33149  -4800796.82449  21840995.5394   21841000.7474
  20150014.952    -3047177.45449  -2269720.98149  20150018.3074   20150022.0954
  18086823.388   -20365217.76949 -15849984.91849  18086824.8524   18086829.0334
  20869802.908    -1320749.89349  -1025004.44049  20869804.2354   20869809.4534
 96  7 15 17 21 59.9920000  0  6 24  6 16  4  5  9
  18299268.729   -15718983.85549 -11963256.65749  18299271.5414   18299276.1284
  21694221.332   -12724338.87549  -9882602.50349  21694223.5454   21694229.2174
  21808806.611    -6383537.92549  -4932590.76049  21808809.7564   21808815.6614
  20152756.722    -3032763.57349  -2258489.41049  20152761.1574   20152765.1544
  18070467.865   -20451167.39749 -15916958.65449  18070469.1554   18070473.2044
  20873638.280    -1300604.34549  -1009306.63649  20873637.0774   20873642.7044
 96  7 15 17 22 29.9920000  0  6 24  6 16  4  5  9
  18290493.639   -15765105.54449 -11999195.63449  18290494.9934   18290499.3974
  21666621.585   -12869387.81049  -9995627.58049  21666621.2964   21666626.6734
  21776631.995    -6552631.16249  -5064351.67649  21776632.5464   21776638.6474
  20155551.340    -3018090.31749  -2247055.72849  20155553.1784   20155556.8714
  18054198.831   -20536666.19749 -15983581.10049  18054199.6744   18054203.5234
  20877501.077    -1280299.38749   -993484.63349  20877501.0644   20877505.9024
 96  7 15 17 22 59.9920000  0  6 24  6 16  4  5  9
  18281803.781   -15810769.81849 -12034778.18449  18281805.0674   18281809.8074
  21639024.334   -13014403.03049 -10108626.40049  21639027.1584   21639032.9784
  21744469.086    -6721673.79749  -5196073.13249  21744464.8904   21744471.0004
  20158394.269    -3003146.97049  -2235411.58749  20158396.8094   20158400.6954
  18038012.983   -20621718.91349 -16049855.95049  18038014.3884   18038018.4024
  20881389.386    -1259831.80049   -977535.88949  20881395.6584   20881400.5254
 96  7 15 17 23 29.9920000  0  6 24  6 16  4  5  9
  18273199.456   -15855984.21149 -12070010.17949  18273201.3424   18273205.7494
  21611434.992   -13159379.99749 -10221595.42849  21611438.2974   21611443.6164
  21712305.110    -6890658.76049  -5327749.64349  21712308.6304   21712313.7924
  20161292.618    -2987941.28049  -2223563.02949  20161290.0614   20161294.8344
  18021915.091   -20706317.08649 -16115776.61049  18021916.2014   18021919.9184
  20885322.383    -1239200.66149   -961459.69349  20885321.9214   20885327.1294
 96  7 15 17 23 59.9920000  0  6 24  6 16  4  5  9
  18264677.762   -15900759.37449 -12104899.92149  18264680.7364   18264685.4564
  21583861.386   -13304315.92449 -10334532.45949  21583856.8354   21583863.4664
  21680161.985    -7059576.41849  -5459373.73049  21680164.1734   21680168.1594
  20164226.571    -2972502.93149  -2211533.16949  20164228.2094   20164232.6034
  18005909.659   -20790428.86449 -16181318.26349  18005910.0104   18005914.0294
  20889277.694    -1218402.62349   -945253.44949  20889280.0954   20889286.0344
 96  7 15 17 24 29.9920000  0  6 24  6 16  4  5  9
  18256238.316   -15945114.88349 -12139462.65649  18256240.3304   18256245.0844
  21556280.745   -13449222.96749 -10447447.02349  21556283.7984   21556287.6134
  21648033.235    -7228445.10249  -5590959.65149  21648028.5154   21648033.8844
  20167207.538    -2956850.39249  -2199336.41349  20167206.9654   20167210.5044
  17989997.718   -20874046.43549 -16246474.80649  17989998.3254   17990002.0224
  20893266.819    -1197439.25749   -928918.40049  20893269.1604   20893274.4634
 96  7 15 17 24 59.9920000  0  6 24  6 16  4  5  9
  18247877.756   -15989051.40449 -12173698.90449  18247879.5544   18247884.2114
  21528714.614   -13594100.63349 -10560338.69349  21528714.2224   21528719.7004
  21615900.628    -7397268.52749  -5722510.33249  21615902.3474   21615908.4844
  20170225.113    -2940994.80549  -2186981.43349  20170224.0794   20170228.2574
  17974176.053   -20957178.99149 -16311253.41849  17974178.5234   17974182.5074
  20897289.503    -1176316.19549   -912458.89249  20897288.8904   20897293.6414
 96  7 15 17 25 29.9920000  0  6 24  6 16  4  5  9
  18239596.222   -16032567.75549 -12207607.75249  18239598.5384   18239603.3794
  21501150.968   -13738951.32049 -10673209.30549  21501149.6804   21501155.0154
  21583785.341    -7566047.33749  -5854026.22549  21583784.9594   21583790.7014
  20173276.944    -2924942.96449  -2174473.52949  20173278.7434   20173283.1544
  17958450.684   -21039822.49349 -16375650.95649  17958451.9904   17958456.1514
  20901335.926    -1155024.81249   -895868.21349  20901340.8794   20901346.0284
 96  7 15 17 25 59.9920000  0  6 24  6 16  4  5  9
  18231398.860   -16075654.34949 -12241181.71649  18231399.6904   18231404.5564
  21473588.769   -13883785.52649 -10786067.10649  21473588.1224   21473593.7594
  21551673.371    -7734789.88049  -5985513.89449  21551675.3444   21551681.0934
  20176370.245    -2908691.19149  -2161809.84349  20176371.3374   20176375.3144
  17942817.968   -21121976.72349 -16439667.23949  17942818.5144   17942822.8014
  20905424.364    -1133563.26249   -879144.96449  20905424.2144   20905430.0144
 96  7 15 17 26 29.9920000  0  6 24  6 16  4  5  9
  18223281.833   -16118298.25249 -12274410.72749  18223284.6874   18223289.5004
  21446029.454   -14028599.02549 -10898908.75449  21446031.1094   21446036.2664
  21519571.261    -7903506.98949  -6116981.72449  21519569.8684   21519575.0604
  20179502.023    -2892222.21949  -2148976.90849  20179506.1894   20179509.6644
  17927271.765   -21203662.71849 -16503318.67249  17927274.1174   17927278.3534
  20909542.599    -1111928.05249   -862286.37549  20909540.7734   20909547.0494
 96  7 15 17 26 59.9920000  0  6 24  6 16  4  5  9
  18215254.993   -16160482.93349 -12307281.90749  18215256.9524   18215261.9274
  21418479.526   -14173370.28049 -11011717.49649  21418481.8234   21418489.0264
  21487469.901    -8072179.28949  -6248414.66849  21487472.2724   21487477.8164
  20182683.422    -2875523.49649  -2135964.94049  20182683.3994   20182686.8404
  17911816.052   -21284887.17049 -16566610.45549  17911817.5044   17911821.6934
  20913683.366    -1090133.67549   -845303.76549  20913688.4814   20913693.8614
 96  7 15 17 27 29.9920000  0  6 24  6 16  4  5  9
  18207314.568   -16202211.34449 -12339797.55849  18207316.4904   18207321.0114
  21390941.440   -14318090.59549 -11124486.51549  21390943.2734   21390949.1054
  21455378.939    -8240802.40849  -6379809.26649  21455382.3524   21455389.7304
  20185902.224    -2858589.66949  -2122769.78549  20185905.3484   20185909.4454
  17896448.274   -21365642.10849 -16629536.38749  17896450.3684   17896454.6644
  20917864.153    -1068188.70149   -828203.82649  20917864.3964   20917870.6134
 96  7 15 17 27 59.9920000  0  6 24  6 16  4  5  9
  18199463.850   -16243469.10649 -12371946.45949  18199465.4964   18199470.1524
  21363418.196   -14462732.10649 -11237194.17749  21363418.4524   21363424.9574
  21423311.190    -8409359.56949  -6511152.47549  21423308.0534   21423314.0924
  20189169.699    -2841424.30149  -2109394.19149  20189172.0264   20189176.5834
  17881170.393   -21445932.24349 -16692100.13049  17881171.8594   17881176.1024
  20922068.159    -1046098.58349   -810990.78449  20922068.5014   20922073.8554
 96  7 15 17 28 29.9920000  0  6 24  6 16  4  5  9
  18191704.304   -16284245.87149 -12403720.56549  18191705.6894   18191710.2244
  21335912.463   -14607278.12149 -11349827.39349  21335912.7764   21335917.4174
  21391245.411    -8577827.22849  -6642425.91249  21391249.2794   21391255.3084
  20192488.299    -2824009.44249  -2095824.20149  20192486.3824   20192490.3624
  17865982.317   -21525753.97649 -16754298.88049  17865982.3994   17865986.4344
  20926296.100    -1023865.29849   -793666.19449  20926299.0514   20926304.4654
 96  7 15 17 28 59.9920000  0  6 24  6 16  4  5  9
  18184032.062   -16324554.81649 -12435130.13349  18184035.1624   18184039.9354
  21308425.108   -14751728.64349 -11462386.17349  21308424.4254   21308429.8754
  21359211.232    -8746190.74349  -6773618.22449  21359210.4044   21359217.8624
  20195843.485    -2806345.10049  -2082059.80349  20195847.7664   20195851.7014
  17850882.897   -21605094.52349 -16816122.68549  17850884.3514   17850888.3614
  20930551.460    -1001494.67149   -776234.57449  20930557.1134   20930561.5294
 96  7 15 17 29 29.9920000  0  6 24  6 16  4  5  9
  18176450.072   -16364403.16349 -12466180.79149  18176452.7124   18176457.3124
  21280951.686   -14896082.80349 -11574869.93149  21280954.0554   21280960.7874
  21327191.068    -8914452.10349  -6904730.92349  21327193.0974   21327198.1654
  20199252.846    -2788440.92749  -2068108.53549  20199254.4824   20199258.9344
  17835880.993   -21683937.75649 -16877558.97249  17835880.9534   17835885.0434
  20934840.896     -978973.82149   -758685.86849  20934843.1034   20934846.9104
 96  7 15 17 29 59.9920000  0  6 24  6 16  4  5  9
  18168956.441   -16403786.05249 -12496868.75549  18168958.1264   18168962.9004
  21253502.038   -15040346.97249 -11687283.54449  21253502.5724   21253507.0174
  21295185.142    -9082610.01249  -7035763.09649  21295192.7804   21295199.3724
  20202702.034    -2770304.54249  -2053976.32949  20202706.2224   20202709.5454
  17820972.737   -21762278.54949 -16938603.74749  17820973.0634   17820977.1514
  20939154.567     -956311.30149   -741026.76649  20939154.7224   20939159.3484
 96  7 15 17 30 29.9910000  0  6 24  6 16  4  5  9
  18161546.266   -16442723.77549 -12527209.84149  18161548.6424   18161553.0754
  21226065.306   -15184528.60749 -11799632.82649  21226065.3634   21226070.1634
  21263210.769    -9250673.66349  -7166721.74049  21263209.7754   21263218.2244
  20206199.479    -2751941.33349  -2039667.36749  20206199.9434   20206204.2124
  17806162.845   -21840107.42049 -16999249.62149  17806162.9324   17806166.8184
  20943493.126     -933508.45649   -723258.32149  20943494.5364   20943499.0004
 96  7 15 17 30 59.9910000  0  6 24  6 16  4  5  9
  18154219.784   -16481223.91349 -12557209.94749  18154222.3364   18154226.7894
  21198644.798   -15328623.00649 -11911914.13549  21198644.3294   21198650.1824
  21231246.808    -9418654.63149  -7297615.95749  21231246.5854   21231251.6894
  20209731.774    -2733377.68849  -2025202.21049  20209732.8714   20209737.0364
  17791450.584   -21917417.16549 -17059490.98449  17791451.4844   17791455.5334
  20947861.462     -910555.09249   -705372.63249  20947863.2674   20947865.6104
 96  7 15 17 31 29.9910000  0  6 24  6 16  4  5  9
  18146963.538   -16519355.02649 -12586922.50049  18146966.1464   18146970.9884
  21171225.703   -15472707.49549 -12024187.72949  21171226.2644   21171231.4504
  21199281.327    -9586629.27649  -7428505.25349  21199282.6604   21199287.4504
  20213283.387    -2714699.57949  -2010647.87049  20213286.9744   20213291.1064
  17776821.250   -21994287.02049 -17119389.57449  17776823.4164   17776827.6684
  20952243.683     -887527.25849   -687428.85049  20952245.1324   20952249.2244
 96  7 15 17 31 59.9910000  0  6 24  6 16  4  5  9
  18139773.052   -16557138.42449 -12616364.10949  18139775.8514   18139780.7634
  21143802.346   -15616811.30049 -12136476.36549  21143805.0154   21143809.0184
  21167313.205    -9754613.84049  -7559402.30949  21167314.6974   21167319.6894
  20216862.747    -2695918.17149  -1996013.04749  20216861.4794   20216865.4634
  17762273.437   -22070741.37449 -17178964.39449  17762274.4804   17762278.7344
  20956631.006     -864445.63349   -669443.16749  20956636.8524   20956640.9254
 96  7 15 17 32 29.9910000  0  6 24  6 16  4  5  9
  18132647.872   -16594600.39049 -12645555.25249  18132647.3424   18132652.2064
  21116373.201   -15760957.09649 -12248797.71149  21116374.5524   21116377.8764
  21135348.551    -9922621.67949  -7690317.44849  21135343.5674   21135351.2894
  20220448.942    -2677047.55149  -1981308.69249  20220452.5544   20220456.0014
  17747800.031   -22146800.30449 -17238231.09949  17747801.1824   17747805.0924
  20961037.174     -841322.88449   -651425.48549  20961035.1744   20961042.5454
 96  7 15 17 32 59.9910000  0  6 24  6 16  4  5  9
  18125597.497   -16631640.63449 -12674417.77649  18125598.7564   18125603.8114
  21088950.420   -15905064.00749 -12361088.77349  21088952.1334   21088956.4684
  21103392.439   -10090546.83449  -7821168.18149  21103389.0374   21103394.5854
  20224078.280    -2657988.61349  -1966457.61449  20224079.0884   20224082.9964
  17733418.184   -22222369.68449 -17297116.33449  17733420.5984   17733424.8904
  20965456.316     -818078.62549   -633313.10849  20965459.2044   20965464.4754
 96  7 15 17 33 29.9910000  0  6 24  6 16  4  5  9
  18118622.814   -16668282.44549 -12702969.83549  18118625.8824   18118630.8904
  21061525.383   -16049170.36649 -12473379.39149  21061529.6924   21061534.4324
  21071446.137   -10258395.59349  -7951959.38349  21071448.8894   21071453.3834
  20227734.740    -2638743.26249  -1951461.24449  20227741.4464   20227745.5824
  17719126.915   -22297478.83949 -17355642.94249  17719127.7064   17719131.9804
  20969897.759     -794740.90449   -615127.87949  20969900.1984   20969906.0204
 96  7 15 17 33 59.9910000  0  6 24  6 16  4  5  9
  18111728.565   -16704510.02549 -12731199.12049  18111732.1774   18111737.1344
  21034111.237   -16193244.34649 -12585644.82349  21034112.3764   21034118.6004
  21039529.054   -10426140.14049  -8082669.37449  21039527.1854   21039533.4734
  20231443.322    -2619291.04049  -1936303.71849  20231442.4114   20231446.9544
  17704925.690   -22372101.21549 -17413790.25849  17704927.7304   17704931.9924
  20974364.839     -771298.04249   -596860.74549  20974361.0614   20974367.9534
 96  7 15 17 34 29.9910000  0  6 24  6 16  4  5  9
  18104919.089   -16740304.23549 -12759090.70849  18104920.5994   18104925.4984
  21006703.397   -16337267.64149 -12697870.71449  21006706.7044   21006709.9614
  21007631.350   -10593763.84549  -8213285.20649  21007629.9754   21007636.4334
  20235181.027    -2599626.98949  -1920981.10049  20235184.6504   20235189.4564
  17690820.219   -22446228.45049 -17471551.73649  17690821.6274   17690825.9384
  20978845.921     -747733.60349   -578498.88249  20978845.5074   20978851.3294
 96  7 15 17 34 59.9910000  0  6 24  6 16  4  5  9
  18098190.183   -16775666.18549 -12786645.48149  18098191.4514   18098196.6134
  20979311.639   -16481225.24849 -12810045.42449  20979311.9464   20979317.2684
  20975759.007   -10761252.99949  -8343796.20349  20975756.8134   20975762.6554
  20238961.979    -2579749.12549  -1905491.88549  20238967.6614   20238972.3924
  17676809.037   -22519864.20049 -17528930.24749  17676809.2324   17676813.3704
  20983347.982     -724037.74249   -560034.61949  20983354.1844   20983360.3584
 96  7 15 17 35 29.9910000  0  6 24  6 16  4  5  9
  18091541.370   -16810597.91649 -12813865.01449  18091544.0254   18091549.1204
  20951929.677   -16625097.39849 -12922153.58749  20951933.2134   20951939.0104
  20943910.750   -10928611.93949  -8474205.75059  20943911.0574   20943915.4014
  20242784.970    -2559670.35849  -1889846.13049  20242788.3464   20242792.7244
  17662889.674   -22593009.55249 -17585926.63049  17662890.0584   17662894.2584
  20987890.293     -700198.33849   -541458.46549  20987891.3574   20987897.2014
 96  7 15 17 35 59.9910000  0  6 24  6 16  4  5  9
  18084979.894   -16845096.33749 -12840746.89749  18084979.5674   18084984.4334
  20924569.952   -16768884.55849 -13034195.50049  20924572.6414   20924577.7474
  20912085.720   -11095851.25849  -8604522.05949  20912085.0854   20912091.8444
  20246643.227    -2539404.44249  -1874054.52949  20246644.5264   20246649.3974
  17649064.091   -22665656.56449 -17642534.69949  17649066.2414   17649070.2584
  20992447.672     -676213.60149   -522769.08349  20992455.6124   20992461.2684
 96  7 15 17 36 29.9910000  0  6 24  6 16  4  5  9
  18078494.044   -16879160.71749 -12867290.57349  18078497.1734   18078502.2614
  20897223.315   -16912603.69849 -13146184.38549  20897223.0744   20897227.9934
  20880286.863   -11262958.12849  -8734735.17449  20880284.9794   20880291.7454
  20250537.186    -2518956.37249  -1858121.02149  20250535.4464   20250540.4364
  17635335.793   -22737800.86949 -17698751.04449  17635337.3914   17635341.4984
  20997048.228     -652080.76049   -503964.31349  20997048.3624   20997053.7574
 96  7 15 17 36 59.9910000  0  6 24  6 16  4  5  9
  18072095.322   -16912787.96249 -12893493.62649  18072098.1274   18072102.7744
  20869885.868   -17056245.84749 -13258113.29249  20869889.0124   20869894.7934
  20848515.130   -11429921.03849  -8864836.08249  20848514.4004   20848520.7724
  20254456.899    -2498337.14549  -1842054.12349  20254459.7844   20254463.7184
  17621707.206   -22809421.83149 -17754559.58249  17621708.3874   17621712.5614
  21001661.439     -627819.09249   -485059.13249  21001664.6424   21001670.1544
 96  7 15 17 37 29.9910000  0  6 24  6 16  4  5  9
  18065784.137   -16945963.74749 -12919344.88749  18065785.0504   18065789.6544
  20842563.385   -17199824.97249 -13369993.09749  20842567.1964   20842572.6854
  20816768.236   -11596746.99049  -8994830.26449  20816768.0524   20816774.3864
  20258412.383    -2477550.65849  -1825856.88049  20258415.5394   20258419.9984
  17608179.607   -22880506.03549 -17809949.88149  17608181.4424   17608185.7724
  21006303.802     -603439.41649   -466061.99249  21006304.3104   21006309.1244
 96  7 15 17 37 59.9910000  0  6 24  6 16  4  5  9
  18059556.524   -16978682.77949 -12944840.23749  18059558.8144   18059563.4544
  20815249.329   -17343360.18349 -13481838.67949  20815252.6594   20815258.6664
  20785051.588   -11763421.65149  -9124706.56849  20785051.5154   20785055.6364
  20262405.240    -2456582.41849  -1809518.04049  20262405.5794   20262409.5624
  17594756.009   -22951056.22249 -17864924.05749  17594756.4384   17594760.6114
  21010961.898     -578947.58049   -446977.46449  21010966.0714   21010970.8554
 96  7 15 17 38 29.9910000  0  6 24  6 16  4  5  9
  18053413.546   -17010964.10149 -12969994.52149  18053415.9234   18053420.3834
  20787951.274   -17486837.02349 -13593638.78149  20787949.8104   20787955.8364
  20753362.638   -11929945.93149  -9254465.70749  20753360.7654   20753368.7354
  20266426.533    -2435435.58449  -1793040.00549  20266429.7794   20266433.5474
  17581430.585   -23021080.18349 -17919488.18849  17581431.3484   17581435.5204
  21015635.411     -554362.53849   -427820.30749  21015643.4834   21015649.7204
 96  7 15 17 38 59.9910000  0  6 24  6 16  4  5  9
  18047351.605   -17042819.57049 -12994816.97349  18047354.1954   18047358.5414
  20760664.427   -17630237.33949 -13705379.26949  20760661.0204   20760666.7464
  20721701.374   -12096331.42049  -9384116.64449  20721700.7034   20721706.2254
  20270487.936    -2414096.03349  -1776411.81749  20270491.1044   20270494.8104
  17568202.345   -23090590.10049 -17973651.76449  17568203.8724   17568208.0994
  21020337.602     -529691.44149   -408596.11749  21020337.7594   21020344.1124
 96  7 15 17 39 29.9910000  0  6 24  6 16  4  5  9
  18041367.525   -17074265.45449 -13019320.26049  18041369.9614   18041374.3774
  20733382.068   -17773560.60449 -13817059.70649  20733387.3154   20733393.2914
  20690064.865   -12262581.81549  -9513662.42249  20690063.3634   20690069.3434
  20274585.089    -2392548.66149  -1759621.70349  20274591.0714   20274595.5204
  17555071.363   -23159596.75849 -18027423.19449  17555072.4494   17555076.5894
  21025053.835     -504923.36549   -389296.33049  21025051.2034   21025056.8334
 96  7 15 17 39 59.9910000  0  6 24  6 16  4  5  9
  18035457.266   -17105320.00149 -13043518.61549  18035460.3294   18035465.3264
  20706133.823   -17916785.90849 -13928663.81949  20706133.7004   20706137.3124
  20658455.038   -12428693.21249  -9643099.81649  20658453.3754   20658460.0214
  20278727.472    -2370806.91449  -1742680.11149  20278728.0344   20278732.5144
  17542035.375   -23228097.11549 -18080800.10449  17542037.2254   17542041.3774
  21029780.041     -480072.06849   -369931.73649  21029780.6774   21029785.5024
 96  7 15 17 40 29.9910000  0  6 24  6 16  4  5  9
  18029625.628   -17135979.54049 -13067409.17249  18029626.3674   18029631.1504
  20678895.671   -18059894.28449 -14040176.81249  20678900.6724   20678904.7804
  20626868.615   -12594657.19449  -9772422.36549  20626871.7094   20626879.7304
  20282898.464    -2348882.59349  -1725596.26349  20282900.6414   20282904.7584
  17529100.406   -23296072.96149 -18133768.30449  17529102.0194   17529106.0784
  21034522.334     -455144.41549   -350507.63249  21034523.9014   21034529.6654
 96  7 15 17 40 59.9910000  0  6 24  6 16  4  5  9
  18023866.266   -17166232.04149 -13090982.56249  18023869.2074   18023874.1254
  20651687.124   -18202914.69949 -14151621.28649  20651685.6334   20651689.3624
  20595319.874   -12760471.47049  -9901628.28949  20595317.9914   20595323.8584
  20287105.426    -2326784.41449  -1708376.93749  20287105.3824   20287109.6984
  17516264.194   -23363523.72949 -18186327.35849  17516266.1634   17516270.4274
  21039281.606     -430137.74249   -331021.94949  21039282.1674   21039288.5674
 96  7 15 17 41 29.9900000  0  6 24  6 16  4  5  9
  18018186.375   -17196072.08649 -13114234.55049  18018190.9334   18018196.3474
  20624482.510   -18345854.08449 -14263002.61349  20624482.7604   20624490.0724
  20563793.405   -12926123.34949 -10030707.60949  20563795.6734   20563802.1244
  20291333.297    -2304543.50049  -1691046.39549  20291337.8014   20291341.9044
  17503531.124   -23430444.17349 -18238473.16749  17503531.8854   17503535.9924
  21044048.471     -405058.84049   -311479.94149  21044054.6714   21044059.9164
 96  7 15 17 41 59.9900000  0  6 24  6 16  4  5  9
  18012588.829   -17225500.83949 -13137166.05549  18012590.7464   18012596.0134
  20597296.212   -18488732.64649 -14374336.53949  20597295.1124   20597300.0514
  20532299.920   -13091614.72049 -10159661.90949  20532302.3094   20532308.9344
  20295591.840    -2282166.88549  -1673610.10449  20295595.8924   20295600.6624
  17490896.430   -23496838.97649 -18290209.38749  17490897.1974   17490901.5614
  21048838.417     -379921.93949   -291892.78549  21048838.7954   21048843.5394
 96  7 15 17 42 29.9900000  0  6 24  6 16  4  5  9
  18007064.838   -17254526.97849 -13159783.83049  18007067.6044   18007072.2784
  20570112.470   -18631571.06149 -14485639.16449  20570113.5694   20570119.3084
  20500845.020   -13256939.64849 -10288486.50049  20500844.5354   20500849.0864
  20299878.834    -2259645.23849  -1656060.82049  20299881.8884   20299885.7374
  17478357.153   -23562725.46049 -18341549.51249  17478359.5894   17478363.8144
  21053630.234     -354719.94849   -272254.87649  21053633.6334   21053639.3684
 96  7 15 17 42 59.9900000  0  6 24  6 16  4  5  9
  18001614.033   -17283180.49849 -13182111.26149  18001615.1454   18001619.5394
  20542931.631   -18774376.57049 -14596916.13649  20542937.9864   20542944.6444
  20469409.166   -13422107.83649 -10417188.95649  20469413.5634   20469418.9124
  20304197.001    -2236986.90949  -1638405.02649  20304192.4934   20304197.6474
  17465913.780   -23628122.73149 -18392508.43749  17465914.7774   17465919.1024
  21058441.605     -329457.80949   -252570.14949  21058441.4134   21058445.7334
 96  7 15 17 43 29.9900000  0  6 24  6 16  4  5  9
  17996229.980   -17311470.05649 -13204155.08049  17996231.9374   17996236.2034
  20515775.006   -18917121.44049 -14708145.87149  20515776.4834   20515780.1434
  20438014.634   -13587108.43949 -10545760.84149  20438014.7234   20438020.6394
  20308528.384    -2214182.11749  -1620635.10449  20308532.7704   20308537.8514
  17453561.940   -23693033.97149 -18443088.63549  17453562.6754   17453566.9404
  21063257.521     -304144.99049   -232845.88849  21063257.9214   21063263.2014
 96  7 15 17 43 59.9900000  0  6 24  6 16  4  5  9
  17990914.606   -17339397.81449 -13225916.97649  17990917.3354   17990921.5684
  20488616.260   -19059822.62249 -14819341.54249  20488620.2284   20488625.6084
  20406644.504   -13751951.22649 -10674209.76049  20406646.3794   20406652.3224
  20312901.265    -2191224.74849  -1602746.28849  20312901.5144   20312906.2454
  17441300.736   -23757461.79949 -18493292.14649  17441302.2594   17441306.8984
  21068083.699     -278793.20349   -213091.31549  21068083.4234   21068087.7174
 96  7 15 17 44 29.9900000  0  6 24  6 16  4  5  9
  17985669.311   -17366964.26049 -13247397.33149  17985671.4994   17985675.8884
  20461475.149   -19202480.73649 -14930503.67949  20461473.5014   20461478.9484
  20375305.995   -13916639.03649 -10802537.90149  20375306.2454   20375312.5974
  20317294.842    -2168122.78249  -1584744.79349  20317298.1194   20317302.5924
  17429131.889   -23821408.30549 -18543120.59749  17429133.8804   17429138.2034
  21072914.269     -253401.26549   -193305.38849  21072915.3394   21072919.5574
 96  7 15 17 44 59.9900000  0  6 24  6 16  4  5  9
  17980493.428   -17394158.68449 -13268587.79849  17980496.4214   17980500.8244
  20434335.453   -19345079.59249 -15041619.64049  20434337.8884   20434344.3804
  20343996.311   -14081172.81249 -10930746.00149  20343997.2334   20344002.7914
  20321720.444    -2144884.82849  -1566637.33649  20321718.8654   20321724.7704
  17417057.522   -23884857.12349 -18592561.24549  17417059.8264   17417064.5664
  21077749.527     -227979.53249   -173496.28349  21077752.2104   21077758.1124
 96  7 15 17 45 29.9900000  0  6 24  6 16  4  5  9
  17975397.401   -17420958.03649 -13289470.41949  17975397.2494   17975401.6294
  20407207.654   -19487627.83749 -15152696.21049  20407210.9474   20407216.4474
  20312719.273   -14245544.18849 -11058827.57949  20312717.5574   20312724.4034
  20326162.499    -2121502.35149  -1548417.27549  20326169.3244   20326174.3654
  17405079.693   -23947798.58749 -18641606.55149  17405082.7084   17405086.9704
  21082594.303     -202525.23749   -153661.78649  21082596.8084   21082601.3524
 96  7 15 17 45 59.9900000  0  6 24  6 16  4  5  9
  17970369.080   -17447366.38149 -13310048.36049  17970371.4234   17970375.9174
  20380091.760   -19630141.16649 -15263745.53649  20380093.2904   20380097.7464
  20281470.378   -14409759.99649 -11186787.90749  20281469.2944   20281474.4574
  20330641.884    -2097990.67549  -1530096.53449  20330643.5354   20330648.2894
  17393202.884   -24010225.31449 -18690250.76749  17393202.9814   17393207.5154
  21087450.801     -177032.01249   -133796.98849  21087447.7684   21087451.9284
 96  7 15 17 46 29.9900000  0  6 24  6 16  4  5  9
  17965412.429   -17473404.02549 -13330337.44149  17965416.3344   17965421.1124
  20352981.329   -19772601.95349 -15374753.92049  20352982.4884   20352987.7824
  20250246.504   -14573813.46749 -11314621.78349  20250249.8774   20250255.5694
  20335139.811    -2074358.90349  -1511682.20249  20335141.0394   20335145.8504
  17381420.227   -24072141.40549 -18738497.08349  17381420.8834   17381425.3994
  21092300.614     -151494.10449   -113897.41749  21092307.8044   21092312.9164
 96  7 15 17 46 59.9900000  0  6 24  6 16  4  5  9
  17960531.875   -17499065.94849 -13350333.75249  17960533.0784   17960537.8724
  20325885.197   -19915001.96149 -15485714.93149  20325885.2104   20325890.0254
  20219062.322   -14737705.71349 -11442330.00549  20219063.7894   20219069.6284
  20339658.329    -2050615.53049  -1493180.91549  20339659.1054   20339663.7354
  17369733.752   -24133547.56749 -18786346.05649  17369735.4754   17369739.8814
  21097176.082     -125911.83249    -93963.19549  21097173.9554   21097179.7214
 96  7 15 17 47 29.9900000  0  6 24  6 16  4  5  9
  17955718.929   -17524342.55649 -13370029.82049  17955722.9444   17955727.8564
  20298800.844   -20057332.48549 -15596621.80749  20298801.6814   20298805.5254
  20187910.161   -14901423.29849 -11569902.11749  20187908.7974   20187914.8494
  20344192.308    -2026765.90049  -1474596.83449  20344197.7534   20344202.5284
  17358146.145   -24194439.93449 -18833794.66549  17358148.3004   17358152.7574
  21102055.487     -100277.78149    -73988.67549  21102052.8614   21102058.8024
 96  7 15 17 47 59.9900000  0  6 24  6 16  4  5  9
  17950980.929   -17549255.59849 -13389442.58449  17950982.3634   17950986.9194
  20271726.904   -20199589.65249 -15707471.49849  20271729.7444   20271734.7904
  20156784.581   -15064966.77249 -11697338.59249  20156787.1594   20156792.9684
  20348750.122    -2002825.54649  -1455942.04449  20348753.0844   20348757.4104
  17346657.043   -24254819.65649 -18880843.80449  17346658.2604   17346662.7694
  21106935.757      -74610.36949    -53988.16849  21106938.3124   21106943.8324
 96  7 15 17 48 29.9900000  0  6 24  6 16  4  5  9
  17946309.221   -17573806.97249 -13408573.53649  17946310.6214   17946315.2534
  20244672.945   -20341767.95049 -15818259.75349  20244674.3114   20244679.9524
  20125699.860   -15228315.43049 -11824623.22049  20125701.8434   20125708.5624
  20353325.119    -1978783.04649  -1437207.66949  20353329.0874   20353333.3014
  17335264.980   -24314683.75349 -18927491.16349  17335266.6644   17335270.8124
  21111827.131      -48919.64249    -33969.44749  21111826.6184   21111830.9114
 96  7 15 17 48 59.9900000  0  6 24  6 16  4  5  9
  17941709.054   -17597978.74449 -13427408.69749  17941710.9234   17941715.3664
  20217632.474   -20483868.28149 -15928987.28249  20217634.1994   20217637.5944
  20094661.933   -15391456.58349 -11951746.19649  20094658.2704   20094663.4344
  20357926.195    -1954632.14149  -1418388.83249  20357925.2704   20357928.4674
  17323972.794   -24374024.27549 -18973730.53849  17323974.6564   17323978.9284
  21116716.890      -23210.00549    -13935.99649  21116718.7164   21116724.8494
 96  7 15 17 49 29.9900000  0  6 24  6 16  4  5  9
  17937180.190   -17621780.11149 -13445955.23049  17937181.7724   17937186.2674
  20190605.779   -20625910.23849 -16039669.32049  20190603.7394   20190608.2904
  20063657.577   -15554371.45549 -12078692.81249  20063656.3684   20063663.4694
  20362535.387    -1930351.74749  -1399469.07649  20362543.8024   20362548.7154
  17312781.509   -24432835.37249 -19019557.38449  17312783.3044   17312787.4924
  21121612.240        2509.38849      6105.02849  21121613.3724   21121618.7174
 96  7 15 17 49 59.9900000  0  6 24  6 16  4  5  9
  17932721.512   -17645208.33749 -13464211.00049  17932723.5114   17932728.0384
  20163580.029   -20767896.96549 -16150308.30349  20163584.3864   20163590.1224
  20032701.149   -15717045.02349 -12205451.38749  20032701.3624   20032706.6484
  20367198.511    -1905910.19149  -1380423.72949  20367196.3104   20367200.6584
  17301693.805   -24491107.19749 -19064964.02149  17301694.3764   17301698.9164
  21126512.684       28253.95849     26165.69749  21126512.3874   21126518.0714
 96  7 15 17 50 29.9900000  0  6 24  6 16  4  5  9
  17928338.749   -17668244.64249 -13482161.38149  17928340.0304   17928344.3634
  20136575.405   -20909829.60549 -16260905.12249  20136575.4244   20136581.8964
  20001790.253   -15879474.47449 -12332019.77249  20001791.7724   20001798.3174
  20371875.026    -1881317.56449  -1361260.69549  20371876.0624   20371880.5594
  17290703.441   -24548847.49549 -19109956.47149  17290706.9234   17290711.3424
  21131419.899       54040.35649     46258.96049  21131420.3734   21131424.7764
 96  7 15 17 50 59.9900000  0  6 24  6 16  4  5  9
  17924029.438   -17690888.41349 -13499805.89349  17924030.6594   17924035.4814
  20109573.585   -21051718.82149 -16371468.12249  20109575.4134   20109580.2644
  19970924.233   -16041682.77449 -12458415.81449  19970924.2024   19970929.9254
  20376577.828    -1856597.44149  -1341998.30149  20376579.9204   20376583.0274
  17279816.199   -24606072.48449 -19154547.38349  17279817.4354   17279821.9434
  21136331.449       79867.07049     66383.63349  21136335.0344   21136339.5514
 96  7 15 17 51 29.9900000  0  6 24  6 16  4  5  9
  17919791.288   -17713151.07449 -13517153.43449  17919794.3334   17919799.3234
  20082579.163   -21193564.92249 -16481997.52849  20082582.9184   20082586.8554
  19940094.465   -16203682.90049 -12584649.65649  19940096.9174   19940102.1994
  20381307.435    -1831755.76249  -1322641.19049  20381307.6194   20381311.5244
  17269023.331   -24662787.06849 -19198740.58549  17269025.1004   17269029.5314
  21141253.490      105727.71549     86534.73849  21141255.2604   21141260.9114
 96  7 15 17 51 59.9900000  0  6 24  6 16  4  5  9
  17915623.997   -17735048.02549 -13534216.00549  17915627.3874   17915632.3204
  20055601.586   -21335349.61949 -16592479.09849  20055602.1104   20055607.1484
  19909305.115   -16365489.49249 -12710732.67949  19909306.2054   19909311.3314
  20386051.176    -1806821.80949  -1303212.17349  20386052.2704   20386056.2574
  17258324.984   -24719009.56549 -19242550.33849  17258326.2544   17258330.7214
  21146179.091      131615.28549    106706.83449  21146182.0724   21146187.6174
 96  7 15 17 52 29.9900000  0  6 24  6 16  4  5  9
  17911525.721   -17756596.14749 -13551006.76549  17911527.1604   17911531.8804
  20028635.935   -21477065.93249 -16702907.38549  20028634.3174   20028638.6894
  19878553.628   -16527098.21549 -12836661.53149  19878553.4894   19878557.8374
  20390809.542    -1781807.20749  -1283720.31049  20390812.7454   20390816.3034
  17247719.876   -24774747.72549 -19285982.68549  17247719.5354   17247723.7004
  21151109.024      157519.71949    126892.08249  21151111.5094   21151116.5654
 96  7 15 17 52 59.9890000  0  6 24  6 16  4  5  9
  17907486.075   -17777814.81249 -13567540.80349  17907489.1644   17907493.9894
  20001676.123   -21618712.38449 -16813281.24849  20001679.2654   20001683.0464
  19847837.356   -16688505.41549 -12962433.32949  19847838.9244   19847843.0904
  20395590.483    -1756692.82249  -1264150.69449  20395591.8694   20395595.4844
  17237202.846   -24830001.01549 -19329037.20949  17237205.0524   17237209.4444
  21156036.881      183417.22749    147071.91349  21156039.1344   21156044.6364
 96  7 15 17 53 29.9890000  0  6 24  6 16  4  5  9
  17903510.226   -17798717.48949 -13583828.61549  17903511.6264   17903516.1604
  19974732.956   -21760299.19749 -16923608.61049  19974736.0554   19974741.2174
  19817163.044   -16849703.09649 -13088041.89449  19817163.3524   19817168.8354
  20400389.162    -1731465.08049  -1244492.77249  20400391.4894   20400396.2564
  17226780.794   -24884771.47649 -19371715.50849  17226782.5664   17226786.9434
  21160959.638      209306.03149    167244.97749  21160964.8214   21160971.9764
 96  7 15 17 53 59.9890000  0  6 24  6 16  4  5  9
  17899592.687   -17819296.25249 -13599864.02649  17899595.9954   17899600.6074
  19947804.351   -21901819.17749 -17033883.88049  19947806.0664   19947810.7234
  19786533.410   -17010661.86749 -13213464.28249  19786533.9574   19786539.3004
  20405212.651    -1706120.05249  -1224743.44449  20405215.5804   20405218.9024
  17216452.988   -24939046.63749 -19414007.86149  17216454.4314   17216458.8814
  21165894.096      235198.37649    187420.74549  21165892.1964   21165897.8464
 96  7 15 17 54 29.9890000  0  6 24  6 16  4  5  9
  17895739.126   -17839554.78849 -13615649.91649  17895740.7404   17895745.3064
  19920884.099   -22043291.20949 -17144121.80249  19920884.5944   19920889.5564
  19755945.946   -17171392.18149 -13338708.65149  19755947.7994   19755953.2344
  20410059.121    -1680659.44849  -1204904.07149  20410060.5804   20410064.9864
  17206220.898   -24992816.10549 -19455906.16749  17206222.4984   17206227.2504
  21170820.842      261089.95849    207595.95949  21170819.1214   21170826.3784
 96  7 15 17 54 59.9890000  0  6 24  6 16  4  5  9
  17891946.632   -17859477.16349 -13631173.85249  17891949.6744   17891953.9244
  19893973.164   -22184711.53449 -17254319.43149  19893973.9264   19893979.0954
  19725405.693   -17331899.64049 -13463779.37449  19725404.1724   19725409.7994
  20414926.139    -1655093.96749  -1184982.97249  20414925.1604   20414929.5454
  17196087.732   -25046067.55849 -19497400.82649  17196089.3044   17196093.5514
  21175741.850      286970.78549    227762.77049  21175745.2644   21175751.3034
 96  7 15 17 55 29.9890000  0  6 24  6 16  4  5  9
  17888220.082   -17879066.01049 -13646437.89849  17888221.8944   17888226.1294
  19867072.033   -22326072.95149 -17364471.16749  19867073.9194   19867078.2814
  19694903.677   -17492180.78449 -13588673.72149  19694902.7744   19694909.1584
  20419804.297    -1629435.82149  -1164989.65449  20419807.2984   20419812.2074
  17186056.827   -25098786.96549 -19538480.89349  17186057.2244   17186061.2734
  21180665.961      312842.08749    247922.16649  21180667.9424   21180674.6214
 96  7 15 17 55 59.9890000  0  6 24  6 16  4  5  9
  17884551.010   -17898331.36549 -13661449.88449  17884555.9024   17884560.5114
  19840183.357   -22467375.45349 -17474576.98149  19840184.6624   19840189.5734
  19664439.779   -17652254.44849 -13713406.40049  19664442.9794   19664448.4644
  20424698.444    -1603705.76549  -1144940.30949  20424704.8114   20424709.3804
  17176127.760   -25150960.65049 -19579135.72949  17176128.7404   17176132.7684
  21185588.718      338690.41949    268063.68149  21185586.4994   21185591.7484
 96  7 15 17 56 29.9890000  0  6 24  6 16  4  5  9
  17880949.796   -17917271.56449 -13676208.49149  17880951.8734   17880956.0424
  19813309.429   -22608612.69849 -17584631.94249  19813307.2484   19813312.4074
  19634019.147   -17812119.55349 -13837976.57949  19634021.1744   19634027.8824
  20429610.927    -1577905.83349  -1124836.52549  20429613.8864   20429618.6384
  17166303.230   -25202583.08749 -19619361.01749  17166305.4264   17166309.4484
  21190494.967      364512.03549    288184.31849  21190501.4494   21190507.5154
 96  7 15 17 56 59.9890000  0  6 24  6 16  4  5  9
  17877407.081   -17935885.81849 -13690713.11349  17877409.4054   17877414.2054
  19786445.296   -22749773.75049 -17694627.54949  19786445.4214   19786449.8234
  19603639.301   -17971758.46949 -13962370.51949  19603643.1424   19603649.2704
  20434536.856    -1552041.57749  -1104682.59149  20434534.9874   20434539.9054
  17156585.654   -25253659.55649 -19659160.87849  17156586.0094   17156590.2774
  21195409.813      390305.73549    308283.25249  21195407.6854   21195415.3574
 96  7 15 17 57 29.9890000  0  6 24  6 16  4  5  9
  17873924.606   -17954188.66149 -13704975.08349  17873926.4714   17873930.9364
  19759598.098   -22890861.38249 -17804565.96349  19759598.3664   19759601.7644
  19573310.397   -18131160.26649 -14086579.67349  19573309.9554   19573315.6264
  20439465.617    -1526112.38749  -1084478.08449  20439469.4334   20439474.2794
  17146967.613   -25304193.21849 -19698537.77149  17146969.7844   17146974.1074
  21200309.866      416081.73749    328368.37949  21200313.4884   21200320.0344
 96  7 15 17 57 59.9890000  0  6 24  6 16  4  5  9
  17870499.767   -17972177.35849 -13718992.26149  17870503.5574   17870508.2014
  19732761.471   -23031868.14849 -17914441.34549  19732766.3264   19732769.4704
  19543022.574   -18290307.90349 -14210590.78049  19543024.7134   19543031.1984
  20444415.563    -1500117.08349  -1064222.05749  20444416.3644   20444421.0494
  17137451.768   -25354203.20549 -19737506.60649  17137452.9964   17137457.3824
  21205219.911      441852.34249    348449.30249  21205217.3464   21205223.2124
 96  7 15 17 58 29.9890000  0  6 24  6 16  4  5  9
  17867142.524   -17989833.75249 -13732750.50049  17867143.5264   17867148.1144
  19705951.187   -23172786.19249 -18024247.58949  19705949.1164   19705952.3764
  19512794.950   -18449172.39449 -14334381.26449  19512794.4764   19512800.7324
  20449373.729    -1474040.70449  -1043902.86549  20449379.4824   20449383.6724
  17128031.574   -25403705.90849 -19776080.15749  17128033.1044   17128037.4014
  21210116.560      467622.46549    368529.86049  21210122.1024   21210128.3834
 96  7 15 17 58 59.9890000  0  6 24  6 16  4  5  9
  17863842.626   -18007159.42449 -13746251.03449  17863846.7114   17863851.2494
  19679148.302   -23313616.58949 -18133985.54449  19679149.7004   19679154.3044
  19482616.963   -18607750.37049 -14457948.46749  19482616.7294   19482623.8024
  20454355.021    -1447882.63049  -1023520.01349  20454357.2894   20454360.3214
  17118706.947   -25452700.12249 -19814257.48749  17118709.6664   17118713.9904
  21215022.706      493378.48949    388599.46449  21215023.0014   21215028.6154
 96  7 15 17 59 29.9890000  0  6 24  6 16  4  5  9
  17860611.149   -18024151.15749 -13759491.36049  17860613.1614   17860617.7724
  19652365.953   -23454361.86249 -18243657.15849  19652366.9174   19652372.0164
  19452493.159   -18766036.18949 -14581288.03649  19452495.7744   19452502.9814
  20459348.078    -1421635.01649  -1003067.36049  20459351.2334   20459355.1524
  17109481.668   -25501189.50349 -19852041.43749  17109482.6344   17109486.6484
  21219917.537      519115.21049    408653.97149  21219921.1504   21219926.7774
 96  7 15 17 59 59.9890000  0  6 24  6 16  4  5  9
  17857445.838   -18040785.39949 -13772453.12149  17857448.1534   17857452.3684
  19625593.279   -23595023.39249 -18353263.50349  19625600.8074   19625605.2614
  19422431.630   -18924024.72749 -14704395.94149  19422432.4214   19422438.2164
  20464362.884    -1395298.38549   -982545.36549  20464362.6344   20464367.2914
  17100350.531   -25549175.24849 -19889432.94649  17100350.9734   17100355.5724
  21224809.296      544824.89549    428687.43049  21224813.0064   21224818.0104
 96  7 15 18  0 29.9890000  0  6 24  6 16  4  5  9
  17854352.323   -18057051.14349 -13785127.73949  17854352.6674   17854357.0104
  19598845.428   -23735617.45349 -18462817.29749  19598846.5274   19598850.1114
  19392420.021   -19081733.79749 -14827286.10149  19392420.3674   19392427.0394
  20469392.811    -1368879.94449   -961959.63449  20469389.4724   20469394.1684
  17091317.219   -25596637.87049 -19926416.82849  17091319.4204   17091323.5104
  21229695.002      570489.32449    448685.61649  21229696.4764   21229702.2324
 96  7 15 18  0 59.9890000  0  6 24  6 16  4  5  9
  17851321.379   -18072959.90149 -13797524.18549  17851325.3824   17851329.7814
  19572103.655   -23876150.06949 -18572323.20149  19572103.3314   19572107.5604
  19362463.242   -19239179.25349 -14949970.84749  19362460.8114   19362465.5984
  20474426.972    -1342379.80349   -941310.23349  20474433.4394   20474437.6124
  17082386.630   -25643574.25049 -19962990.64649  17082387.9084   17082392.1774
  21234574.290      596102.03249    468643.56449  21234571.8274   21234578.4094
 96  7 15 18  1 29.9890000  0  6 24  6 16  4  5  9
  17848363.128   -18088515.09249 -13809645.13549  17848365.5164   17848369.7714
  19545368.215   -24016632.06249 -18681789.68749  19545371.3124   19545374.7134
  19332548.128   -19396364.44549 -15072452.79149  19332549.0624   19332554.4944
  20479491.448    -1315792.88349   -920593.23149  20479491.5574   20479497.2254
  17073552.815   -25690000.83949 -19999167.22549  17073553.1644   17073557.3364
  21239430.968      621666.05149    488563.49049  21239434.9074   21239442.0944
 96  7 15 18  1 59.9890000  0  6 24  6 16  4  5  9
  17845472.621   -18103719.01249 -13821492.35549  17845472.1824   17845476.5094
  19518645.143   -24157063.21649 -18791216.54949  19518647.2214   19518652.1574
  19302687.936   -19553292.75249 -15194734.56849  19302686.4624   19302691.6504
  20484567.109    -1289120.23449   -899809.36749  20484568.9624   20484572.5434
  17064816.796   -25735905.81849 -20034937.35449  17064817.8864   17064822.0104
  21244288.875      647178.37949    508443.19249  21244291.6474   21244295.2454
 96  7 15 18  2 29.9890000  0  6 24  6 16  4  5  9
  17842636.219   -18118607.41649 -13833093.72549  17842638.8144   17842643.4384
  19491935.314   -24297436.47549 -18900598.28049  19491935.0914   19491940.1454
  19272867.601   -19709959.38649 -15316812.43749  19272874.5174   19272879.1094
  20489658.011    -1262355.34049   -878953.65549  20489661.5354   20489665.2544
  17056181.658   -25781281.27449 -20070294.86749  17056183.0284   17056187.2244
  21249132.315      672640.36949    528283.66349  21249137.9154   21249142.9544
 96  7 15 18  2 59.9890000  0  6 24  6 16  4  5  9
  17839858.344   -18133204.10249 -13844467.78149  17839861.1524   17839865.8654
  19465231.620   -24437742.17149 -19009927.36749  19465236.3394   19465239.6494
  19243114.242   -19866336.65149 -15438664.81549  19243116.0714   19243121.9144
  20494766.255    -1235505.56749   -858031.80249  20494771.0234   20494775.0874
  17047645.757   -25826133.11749 -20105244.37449  17047647.8174   17047651.9754
  21253971.515      698060.56649    548091.53249  21253973.0184   21253978.7114
 96  7 15 18  3 29.9890000  0  6 24  6 16  4  5  9
  17837132.833   -18147519.00349 -13855622.25949  17837137.2474   17837141.7664
  19438549.292   -24577971.96349 -19119197.31749  19438551.2934   19438555.6414
  19213415.153   -20022404.94449 -15560276.43849  19213417.2034   19213423.0214
  20499887.597    -1208594.95149   -837062.53149  20499891.7784   20499896.1574
  17039209.764   -25870461.19649 -20139785.74949  17039212.4714   17039216.8164
  21258806.426      723443.91749    567870.70649  21258804.4804   21258810.0324
 96  7 15 18  3 59.9880000  0  6 24  6 16  4  5  9
  17834463.999   -18161558.34149 -13866562.02549  17834465.5234   17834470.2044
  19411881.597   -24718110.08949 -19228395.84549  19411883.7214   19411888.1974
  19183781.532   -20178147.44349 -15681634.20549  19183781.1654   19183786.9724
  20505015.056    -1181646.24949   -816063.60049  20505019.7784   20505024.6774
  17030879.788   -25914247.74149 -20173905.15549  17030880.2774   17030884.4294
  21263625.709      748790.46049    587621.16849  21263626.5904   21263634.0934
 96  7 15 18  4 29.9880000  0  6 24  6 16  4  5  9
  17831844.721   -18175326.13949 -13877290.19649  17831845.8964   17831850.1014
  19385234.317   -24858163.29149 -19337528.17249  19385232.6524   19385237.0654
  19154205.747   -20333571.06849 -15802743.50749  19154204.8334   19154209.4094
  20510152.899    -1154663.85349   -795038.41049  20510153.6504   20510159.7384
  17022647.410   -25957502.42249 -20207610.11749  17022649.1284   17022653.4814
  21268446.970      774103.59149    607345.64349  21268444.8764   21268450.3754
 96  7 15 18  4 59.9880000  0  6 24  6 16  4  5  9
  17829284.329   -18188788.20249 -13887780.13149  17829284.4344   17829288.4994
  19358599.742   -24998119.54649 -19446584.98049  19358599.7944   19358604.1964
  19124687.578   -20488671.70349 -15923601.13449  19124690.1234   19124695.4284
  20515298.398    -1127646.25849   -773985.79149  20515295.4444   20515300.6554
  17014517.998   -26000228.16749 -20240902.92049  17014518.8074   17014523.0314
  21273252.341      799378.18849    627040.06149  21273253.4184   21273260.3324
 96  7 15 18  5 29.9880000  0  6 24  6 16  4  5  9
  17826781.107   -18201932.14649 -13898022.18149  17826782.9374   17826787.3274
  19331983.548   -25137975.30949 -19555563.46049  19331985.8914   19331990.0794
  19095229.799   -20643473.45449 -16044225.84449  19095232.2384   19095237.8544
  20520446.333    -1100576.99049   -752892.89049  20520446.7994   20520450.8524
  17006484.576   -26042432.50249 -20273789.43349  17006487.7434   17006491.8544
  21278051.222      824598.31949    646692.01749  21278051.1014   21278059.7414
 96  7 15 18  5 59.9880000  0  6 24  6 16  4  5  9
  17824341.185   -18214749.81049 -13908009.99149  17824343.5764   17824348.0654
  19305382.949   -25277746.97049 -19664476.42949  19305387.9244   19305393.7084
  19065825.983   -20798001.83249 -16164637.54849  19065826.2804   19065832.2184
  20525608.827    -1073434.32949   -731742.82049  20525611.1694   20525616.1104
  16998555.138   -26084113.60149 -20306268.22549  16998556.3114   16998560.1834
  21282839.429      849751.21549    666291.58949  21282840.2014   21282845.9514
 96  7 15 18  6 29.9880000  0  6 24  6 16  4  5  9
  17821966.026   -18227231.95749 -13917736.35649  17821968.1484   17821973.0974
  19278806.464   -25417439.88349 -19773328.02149  19278805.1914   19278810.8804
  19036472.202   -20952259.05249 -16284837.94849  19036471.7284   19036477.5504
  20530790.441    -1046195.02849   -710517.43449  20530795.4684   20530799.6804
  16990721.570   -26125278.27849 -20338344.61149  16990722.9994   16990727.0384
  21287611.351      874834.51949    685836.93949  21287612.5744   21287619.2454
 96  7 15 18  6 59.9880000  0  6 24  6 16  4  5  9
  17819653.415   -18239383.51949 -13927205.12149  17819655.8874   17819660.9664
  19252235.848   -25557068.39349 -19882129.43549  19252235.4254   19252239.7464
  19007163.576   -21106250.82149 -16404831.48749  19007168.5754   19007174.1444
  20535994.370    -1018865.00149   -689221.34849  20535994.9974   20536001.8904
  16982983.117   -26165940.57649 -20370029.53649  16982984.8954   16982988.9904
  21292374.439      899844.45249    705325.13949  21292372.6154   21292377.6904
 96  7 15 18  7 29.9880000  0  6 24  6 16  4  5  9
  17817400.474   -18251220.68149 -13936428.90149  17817403.7624   17817408.2604
  19225674.075   -25696635.48149 -19990882.99249  19225676.5794   19225681.4984
  18977918.712   -21259958.99349 -16524604.06449  18977919.3664   18977923.9504
  20541206.768     -991452.92049   -667861.33749  20541214.0434   20541216.9324
  16975342.631   -26206097.55949 -20401320.70449  16975343.3644   16975347.1984
  21297115.070      924786.00649    724760.01749  21297118.6644   21297125.7614
 96  7 15 18  7 59.9880000  0  6 24  6 16  4  5  9
  17815205.626   -18262760.24649 -13945420.78549  17815208.0184   17815212.2474
  19199122.554   -25836152.74949 -20099597.71049  19199127.7154   19199131.9224
  18948726.219   -21413360.11149 -16644137.37649  18948727.2534   18948732.9544
  20546442.970     -963982.90649   -646456.19849  20546439.1224   20546444.6094
  16967795.494   -26245745.44049 -20432215.16949  16967798.6034   16967802.7164
  21301851.508      949665.53749    744146.58949  21301853.4684   21301858.6754
 96  7 15 18  8 29.9880000  0  6 24  6 16  4  5  9
  17813062.574   -18274021.98749 -13954196.19249  17813064.7084   17813069.5724
  19172587.799   -25975599.48049 -20208257.48449  19172590.6374   19172596.2324
  18919595.043   -21566433.07849 -16763415.02449  18919597.8614   18919603.7174
  20551671.439     -936477.90849   -625023.78449  20551674.2584   20551679.2964
  16960349.005   -26284884.86749 -20462713.44249  16960350.6334   16960354.5424
  21306575.187      974475.88549    763479.25549  21306574.9144   21306579.5324
 96  7 15 18  8 59.9880000  0  6 24  6 16  4  5  9
  17810969.472   -18285024.87049 -13962769.88449  17810971.2944   17810975.3964
  19146066.760   -26114965.86749 -20316854.63549  19146070.6914   19146075.0844
  18890536.004   -21719159.38949 -16882422.51649  18890536.3484   18890541.0094
  20556904.624     -908967.70549   -603587.30749  20556909.6424   20556914.0664
  16952997.510   -26323517.58649 -20492816.87349  16952999.1624   16953003.4304
  21311278.625      999205.21459    782748.81949  21311279.4164   21311286.4434
 96  7 15 18  9 29.9880000  0  6 24  6 16  4  5  9
  17808921.834   -18295777.91449 -13971148.89749  17808925.1014   17808929.4884
  19119565.063   -26254237.26649 -20425377.77349  19119568.4674   19119572.4024
  18861539.371   -21871533.26049 -17001155.38049  18861540.1134   18861545.8914
  20562146.740     -881451.74149   -582146.37649  20562144.6284   20562149.8484
  16945747.388   -26361624.55649 -20522510.63349  16945747.5004   16945751.7784
  21315969.550     1023838.15049    801943.27249  21315968.0114   21315974.1724
 96  7 15 18  9 59.9880000  0  6 24  6 16  4  5  9
  17806922.681   -18306292.68149 -13979342.23849  17806923.8474   17806928.5134
  19093084.372   -26393417.04149 -20533829.53549  19093082.9944   19093087.8574
  18832607.266   -22023569.05249 -17119624.78349  18832609.4794   18832613.8924
  20567386.317     -853932.25849   -560702.69849  20567381.1184   20567387.2874
  16938590.916   -26399217.24449 -20551803.64849  16938593.6864   16938598.3114
  21320634.291     1048367.50949    821056.98249  21320635.2624   21320641.1744
 96  7 15 18 10 29.9880000  0  5 24  6 16  4  5
  17804968.470   -18316558.85849 -13987341.87349  17804970.6114   17804974.7344
  19066615.284   -26532512.46649 -20642215.56649  19066614.0374   19066618.7924
  18803735.892   -22175280.81649 -17237841.71949  18803739.4384   18803743.9084
  20572625.551     -826410.91049   -539257.56249  20572618.8654   20572624.4774
  16931534.784   -26436310.42049 -20580707.43149  16931535.2324   16931539.6774
 96  7 15 18 10 59.9880000  0  5 24  6 16  4  5
  17803065.475   -18326561.44249 -13995136.11049  17803066.8884   17803071.2424
  19040155.302   -26671538.99549 -20750547.91649  19040157.5804   19040162.7754
  18774925.684   -22326675.28149 -17355811.39849  18774928.6734   18774934.7774
  20577854.970     -798874.67449   -517800.78149  20577859.6804   20577864.1524
  16924569.123   -26472912.17349 -20609228.29149  16924570.1184   16924574.2794
 96  7 15 18 11 29.9880000  0  5 24  6 16  4  5
  17801215.990   -18336289.56149 -14002716.48449  17801215.6364   17801220.2934
  19013711.889   -26810504.78849 -20858832.92449  19013713.9834   19013718.5164
  18746176.352   -22477771.31949 -17473548.56549  18746176.7514   18746182.1104
  20583107.466     -771307.11649   -496319.63349  20583105.7674   20583110.5694
  16917698.253   -26509016.66749 -20637361.67249  16917699.7034   16917703.9194
 96  7 15 18 11 59.9880000  0  5 24  6 16  4  5
  17799415.774   -18345729.68049 -14010072.43949  17799419.2094   17799424.0044
  18987272.299   -26949427.05649 -20967084.01849  18987277.3164   18987283.0334
  18717482.018   -22628564.08149 -17591049.40349  18717482.5114   18717486.6334
  20588354.733     -743702.86849   -474809.85649  20588358.9774   20588363.1884
  16910922.517   -26544625.42449 -20665108.77549  16910923.7374   16910928.1754
 96  7 15 18 12 29.9880000  0  5 24  6 16  4  5
  17797677.312   -18354869.82349 -14017194.64349  17797679.9574   17797684.4904
  18960852.235   -27088301.13249 -21075297.56049  18960850.7364   18960855.5624
  18688846.311   -22779033.50349 -17708298.28749  18688848.1154   18688853.0194
  20593614.167     -716050.07949   -453262.28049  20593621.6904   20593625.2684
  16904247.289   -26579704.97049 -20692443.50349  16904248.4004   16904252.4094
 96  7 15 18 12 59.9880000  0  5 24  6 16  4  5
  17795994.963   -18363718.86849 -14024090.02349  17795996.0594   17796000.7634
  18934434.479   -27227111.31049 -21183461.32449  18934436.4414   18934440.9874
  18660278.912   -22929162.06249 -17825281.55249  18660279.5114   18660285.2654
  20598890.331     -688334.85149   -431666.05849  20598894.8034   20598899.6014
  16897677.384   -26614237.40149 -20719351.90349  16897676.9124   16897681.2164
 96  7 15 18 13 29.9880000  0  5 24  6 16  4  5
  17794363.883   -18372271.85649 -14030754.71449  17794368.2834   17794373.3574
  18908034.759   -27365849.72549 -21291569.16649  18908035.2224   18908040.5124
  18631779.127   -23078931.30049 -17941984.82149  18631778.9114   18631785.6284
  20604181.360     -660557.24549   -410021.21649  20604181.5004   20604184.7204
  16891210.742   -26648206.82549 -20745821.59649  16891212.7974   16891217.1194
 96  7 15 18 13 59.9880000  0  5 24  6 16  4  5
  17792793.450   -18380538.33049 -14037196.14049  17792795.3634   17792800.1934
  18881649.054   -27504503.81949 -21399611.31049  18881649.6434   18881655.5634
  18603349.141   -23228318.36649 -18058390.28949  18603352.1924   18603357.3254
  20609476.109     -632732.42149   -388339.60449  20609476.3104   20609480.3284
  16884851.569   -26681620.34549 -20771858.12049  16884854.4504   16884858.5224
 96  7 15 18 14 29.9880000  0  5 24  6 16  4  5
  17791270.049   -18388536.91749 -14043428.82949  17791273.3294   17791277.9424
  18855286.796   -27643058.35849 -21507575.85749  18855283.9184   18855288.1504
  18574994.142   -23377321.55249 -18174496.62649  18574997.6834   18575002.7584
  20614773.371     -604888.43949   -366643.10149  20614774.3584   20614780.3324
  16878596.728   -26714495.87849 -20797475.43249  16878598.4584   16878602.5284
 96  7 15 18 14 59.9870000  0  5 24  6 16  4  5
  17789801.337   -18396262.20049 -14049448.55349  17789803.1964   17789808.1174
  18828934.130   -27781503.29749 -21615455.01749  18828938.2994   18828943.4814
  18546710.477   -23525947.33449 -18290308.90049  18546714.6614   18546720.8854
  20620071.106     -577046.37749   -344948.04149  20620071.0614   20620078.3104
  16872439.122   -26746854.06749 -20822689.62449  16872440.7314   16872445.1794
 96  7 15 18 15 29.9870000  0  5 24  6 16  4  5
  17788381.497   -18403722.19949 -14055261.55549  17788383.7454   17788388.4214
  18802610.527   -27919852.48749 -21723259.57449  18802612.1864   18802615.9224
  18518500.843   -23674214.59849 -18405841.83649  18518500.6464   18518505.5834
  20625367.709     -549224.65749   -323268.86349  20625365.6214   20625372.4984
  16866378.837   -26778701.05849 -20847505.48049  16866380.4264   16866384.7484
 96  7 15 18 15 59.9870000  0  5 24  6 16  4  5
  17787008.475   -18410936.11649 -14060882.81349  17787010.9784   17787015.5044
  18776300.120   -28058102.43749 -21830986.77749  18776303.8394   18776308.4864
  18490353.544   -23822125.24949 -18521096.87249  18490354.3754   18490359.8604
  20630653.813     -521427.41349   -301608.71049  20630656.2674   20630661.8174
  16860413.991   -26810049.98949 -20871933.24349  16860414.7044   16860419.4084
 96  7 15 18 16 29.9870000  0  5 24  6 16  4  5
  17785684.095   -18417895.26149 -14066305.54549  17785686.5484   17785691.3404
  18750012.218   -28196265.98649 -21938646.66649  18750012.3274   18750016.7714
  18462273.001   -23969696.67649 -18636087.56749  18462272.5334   18462278.2384
  20635941.200     -493637.94549   -279954.64049  20635944.3284   20635950.0974
  16854540.074   -26840906.10749 -20895976.99149  16854543.3264   16854547.7794
 96  7 15 18 16 59.9870000  0  5 24  6 16  4  5
  17784407.925   -18424600.36149 -14071530.31549  17784410.9014   17784415.5384
  18723735.106   -28334346.83749 -22046242.12249  18723736.3824   18723741.1724
  18434253.614   -24116931.53049 -18750815.99049  18434254.4594   18434260.4374
  20641234.727     -465830.45949   -258286.51749  20641236.6364   20641241.4274
  16848766.583   -26871268.61649 -20919636.10949  16848765.5314   16848769.8494
 96  7 15 18 17 29.9870000  0  5 24  6 16  4  5
  17783178.441   -18431067.11349 -14076569.35149  17783179.9214   17783184.8844
  18697471.239   -28472342.12149 -22153770.89249  18697476.3774   18697481.4624
  18406303.917   -24263807.54449 -18865264.80449  18406304.7704   18406310.4154
  20646530.525     -437984.93949   -236588.75549  20646536.0104   20646539.5594
  16843079.485   -26901144.31549 -20942915.88949  16843080.4224   16843084.9044
 96  7 15 18 17 59.9870000  0  5 24  6 16  4  5
  17781991.432   -18437289.06949 -14081417.64849  17781996.3234   17782000.9854
  18671233.622   -28610245.78049 -22261228.25849  18671234.6684   18671239.1314
  18378423.946   -24410313.65849 -18979425.38949  18378425.5374   18378430.2714
  20651840.557     -410084.36549   -214848.11649  20651844.3164   20651849.3024
  16837483.296   -26930541.17649 -20965822.55749  16837486.2494   16837490.9674
 96  7 15 18 18 29.9870000  0  5 24  6 16  4  5
  17780856.697   -18443268.38049 -14086076.87249  17780858.6444   17780863.1344
  18645011.758   -28748051.55449 -22368609.36749  18645011.2734   18645015.2714
  18350617.377   -24556438.50049 -19093288.90649  18350619.5654   18350623.3744
  20657158.318     -382134.64649   -193069.16249  20657163.0814   20657167.4204
  16831981.473   -26959456.63949 -20988354.10949  16831983.3864   16831988.4924
 96  7 15 18 18 59.9870000  0  5 24  6 16  4  5
  17779763.346   -18449017.25049 -14090556.53149  17779764.5704   17779768.8924
  18618808.017   -28885752.63149 -22475908.88449  18618807.1524   18618811.0594
  18322883.300   -24702162.16049 -19206839.79349  18322888.5614   18322893.9234
  20662486.545     -354147.61449   -171261.18849  20662489.5664   20662494.1294
  16826573.906   -26987879.35949 -21010501.70549  16826575.0264   16826579.9644
 96  7 15 18 19 29.9870000  0  5 24  6 16  4  5
  17778711.764   -18454527.82849 -14094850.50749  17778716.0254   17778720.4804
  18592624.339   -29023344.75549 -22583123.50349  18592624.1444   18592628.5664
  18295237.299   -24847463.00949 -19320061.21249  18295238.0454   18295244.6694
  20667811.884     -326126.40849   -149426.54449  20667821.0864   20667824.8824
  16821261.508   -27015806.98649 -21032263.51949  16821260.7824   16821265.1514
 96  7 15 18 19 59.9870000  0  5 24  6 16  4  5
  17777698.020   -18459868.54649 -14099012.12349  17777699.8164   17777704.0884
  18566451.796   -29160898.29349 -22690308.05449  18566448.7924   18566453.3644
  18267651.365   -24992424.33749 -19433018.05849  18267653.8564   18267659.1454
  20673139.175     -298159.89549   -127634.54249  20673143.5224   20673148.6624
  16816027.522   -27043296.68649 -21053684.08449  16816029.9914   16816034.4264
 96  7 15 18 20 29.9870000  0  5 24  6 16  4  5
  17776707.148   -18465066.21449 -14103062.26649  17776710.3884   17776715.2744
  18540272.518   -29298451.86049 -22797492.62649  18540273.4554   18540277.8164
  18240125.207   -25137085.54849 -19545741.04549  18240125.4004   18240131.0164
  20678447.362     -270287.54649   -105915.88549  20678447.7744   20678451.7184
  16810877.370   -27070368.73249 -21074779.20949  16810878.1664   16810882.5964
 96  7 15 18 20 59.9870000  0  5 24  6 16  4  5
  17775743.235   -18470139.74649 -14107015.69449  17775745.1574   17775750.1274
  18514090.396   -29436037.56849 -22904702.24649  18514091.6384   18514095.8314
  18212645.213   -25281474.30149 -19658251.73349  18212649.2704   18212654.6524
  20683720.166     -242541.06649    -84295.31449  20683726.3544   20683732.7644
  16805800.699   -27097040.01349 -21095562.04549  16805802.7464   16805807.5144
 96  7 15 18 21 29.9870000  0  5 24  6 16  4  5
  17774833.713   -18474918.25349 -14110739.22749  17774836.2154   17774840.6594
  18487934.825   -29573483.21249 -23011802.73149  18487936.4434   18487940.2854
  18185253.707   -25425429.00349 -19770424.22649  18185255.3594   18185261.2794
  20689006.374     -214761.90449    -62649.28549  20689013.1214   20689019.4094
  16800831.776   -27123150.09749 -21115907.58649  16800834.2864   16800838.9284
 96  7 15 18 21 59.9870000  0  5 24  6 16  4  5
  17773964.131   -18479488.82049 -14114300.71649  17773966.2294   17773970.6794
  18461788.068   -29710878.71849 -23118864.14149  18461790.6864   18461795.4454
  18157921.492   -25569054.37249 -19882340.07149  18157924.2454   18157929.9244
  20694286.058     -187055.33949    -41059.80249  20694285.3504   20694291.4674
  16795957.660   -27148767.71449 -21135869.38249  16795959.3004   16795963.8434
 96  7 15 18 22 29.9870000  0  5 24  6 16  4  5
  17773125.871   -18483899.60949 -14117737.71549  17773126.8364   17773131.6114
  18435639.965   -29848290.43649 -23225938.18949  18435642.1854   18435646.6514
  18130647.607   -25712387.30649 -19994028.03749  18130649.5054   18130654.4694
  20699533.964     -159467.02449    -19562.47449  20699535.6014   20699542.2284
  16791165.655   -27173951.66749 -21155493.26649  16791167.0994   16791171.4594
 96  7 15 18 22 59.9870000  0  5 24  6 16  4  5
  17772317.702   -18488147.58749 -14121047.83449  17772318.4444   17772323.0694
  18409491.361   -29985696.34649 -23333007.72049  18409494.4174   18409499.3734
  18103436.233   -25855397.06949 -20105464.18849  18103436.0894   18103440.3344
  20704765.675     -131978.46549      1857.11649  20704767.3834   20704771.7764
  16786458.661   -27198690.90449 -21174770.61949  16786459.5944   16786463.8624
 96  7 15 18 23 29.9870000  0  5 24  6 16  4  5
  17771552.648   -18492163.85349 -14124177.40449  17771553.9334   17771559.3074
  18383358.106   -30123030.35749 -23440021.21049  18383360.8084   18383365.9344
  18076293.417   -25998021.86449 -20216600.35049  18076295.3104   18076299.4694
  20709994.850     -104510.57149     23260.67249  20709993.3324   20709997.6514
  16781845.348   -27222930.58949 -21193658.70549  16781846.9844   16781851.3164
 96  7 15 18 23 59.9870000  0  5 24  6 16  4  5
  17770840.392   -18495913.53549 -14127099.25349  17770840.4284   17770845.4054
  18357245.181   -30260261.64649 -23546954.65849  18357246.4314   18357251.1464
  18049235.805   -26140211.07149 -20327397.10649  18049237.1204   18049243.1604
  20715220.033      -77011.42649     44688.49049  20715226.8794   20715232.5144
  16777335.230   -27246625.62849 -21212122.38949  16777337.7814   16777341.9204
 96  7 15 18 24 29.9870000  0  5 24  6 16  4  5
  17770179.378   -18499378.48949 -14129799.23049  17770180.8654   17770185.9144
  18331155.530   -30397351.59849 -23653777.97849  18331159.3934   18331163.2844
  18022272.145   -26281914.51549 -20437815.34249  18022272.0764   18022278.0424
  20720474.540      -49437.35049     66174.71249  20720473.8844   20720480.0544
  16772932.208   -27269770.56949 -21230157.43549  16772933.8844   16772937.9014
 96  7 15 18 24 59.9870000  0  5 24  6 16  4  5
  17769567.719   -18502580.68149 -14132294.46449  17769571.7164   17769576.6024
  18305097.959   -30534299.64749 -23760490.73449  18305099.2684   18305103.4824
  17995394.045   -26423152.36449 -20547870.79049  17995395.2054   17995400.3324
  20725729.743      -21809.72849     87702.66249  20725731.7864   20725737.5004
  16768625.526   -27292399.85649 -21247790.67649  16768627.1654   16768631.7694
 96  7 15 18 25 29.9870000  0  5 24  6 16  4  5
  17769008.238   -18505531.18249 -14134593.57149  17769010.3744   17769015.1234
  18279061.125   -30671121.36549 -23867105.04049  18279062.6144   18279067.0494
  17968600.215   -26563940.99649 -20657576.19649  17968603.9294   17968608.8214
  20730992.508        5845.46949    109252.11949  20730993.5704   20731000.2604
  16764413.373   -27314538.04049 -21265041.23549  16764414.6134   16764419.1414
 96  7 15 18 25 59.9860000  0  5 24  6 16  4  5
  17768490.534   -18508250.58549 -14136712.61349  17768492.9644   17768497.9084
  18253054.033   -30807806.09849 -23973612.62149  18253052.4544   18253056.8864
  17941903.135   -26704261.05549 -20766916.48249  17941902.3884   17941907.7724
  20736256.049       33508.71849    130807.81949  20736257.7834   20736264.5114
  16760294.273   -27336185.63549 -21281909.52149  16760295.3744   16760299.6374
 96  7 15 18 26 29.9860000  0  5 24  6 16  4  5
  17768017.423   -18510741.04749 -14138653.25349  17768019.2264   17768023.9374
  18227065.202   -30944360.82749 -24080018.88749  18227067.0884   18227071.2564
  17915287.211   -26844131.25849 -20875906.21449  17915285.5444   17915291.6304
  20741520.277       61177.02549    152367.47749  20741523.5584   20741529.4264
  16756266.557   -27357356.50249 -21298406.32249  16756266.6564   16756271.1044
 96  7 15 18 26 59.9860000  0  5 24  6 16  4  5
  17767585.227   -18513009.37349 -14140420.79649  17767587.7664   17767592.1384
  18201101.175   -31080795.81749 -24186331.84149  18201104.0144   18201108.4274
  17888745.746   -26983574.94749 -20984563.60449  17888749.9494   17888756.0634
  20746782.358       88823.88849    173910.42949  20746783.5554   20746789.8154
  16752327.076   -27378044.21549 -21314526.64449  16752329.7974   16752334.1674
 96  7 15 18 27 29.9860000  0  5 24  6 16  4  5
  17767194.101   -18515064.59049 -14142022.28249  17767196.3344   17767201.4294
  18175160.334   -31217118.24649 -24292557.08949  18175162.8744   18175166.9814
  17862294.938   -27122597.47949 -21092892.83749  17862294.9614   17862300.9054
  20752038.763      116448.95549    195436.37049  20752040.8644   20752046.0534
  16748490.031   -27398217.03049 -21330245.73849  16748490.9064   16748495.4544
 96  7 15 18 27 59.9860000  0  5 24  6 16  4  5
  17766840.347   -18516912.69049 -14143462.38249  17766844.5734   17766849.6904
  18149238.847   -31353332.47649 -24398698.04149  18149242.0134   18149246.9214
  17835918.303   -27261208.02749 -21200901.03849  17835918.0354   17835924.0734
  20757295.290      144061.14449    216952.28549  20757295.9014   20757300.6114
  16744748.240   -27417875.46749 -21345564.02949  16744750.0404   16744754.7704
 96  7 15 18 28 29.9860000  0  5 24  6 16  4  5
  17766530.844   -18518549.42049 -14144737.77949  17766533.3614   17766537.9564
  18123338.392   -31489448.18449 -24504762.21249  18123340.0804   18123344.7554
  17809616.345   -27399431.05449 -21308607.27349  17809615.8504   17809620.6494
  20762544.716      171662.25049    238459.57649  20762548.2024   20762552.5264
  16741104.121   -27437032.71149 -21360491.78249  16741104.8444   16741109.0824
 96  7 15 18 28 59.9860000  0  5 24  6 16  4  5
  17766260.433   -18519976.86549 -14145850.09149  17766262.0364   17766266.3434
  18097455.380   -31625466.40549 -24610750.41349  18097456.8684   18097460.7184
  17783386.189   -27537262.22549 -21416008.16349  17783387.0844   17783392.7764
  20767793.504      199254.10749    259959.63649  20767799.0574   20767802.9674
  16737556.209   -27455677.25349 -21375020.02549  16737556.5834   16737561.2904
 96  7 15 18 29 29.9860000  0  5 24  6 16  4  5
  17766026.278   -18521202.18249 -14146804.91049  17766028.4834   17766033.1974
  18071589.964   -31761393.98549 -24716667.98849  18071589.9174   18071595.1134
  17757236.211   -27674686.65949 -21523092.11549  17757236.0974   17757241.3364
  20773048.493      226844.02159    281458.22649  20773049.4394   20773054.6104
  16734103.162   -27473824.35349 -21389160.63949  16734103.2274   16734108.1294
 96  7 15 18 29 59.9860000  0  4 24  6 16  5
  17765831.777   -18522222.43349 -14147599.93249  17765834.3904   17765839.2714
  18045736.738   -31897235.68549 -24822518.65749  18045740.0314   18045745.1404
  17731162.068   -27811698.99749 -21629854.95849  17731163.3844   17731168.6914
  16730737.069   -27491506.97349 -21402939.31749  16730738.7474   16730743.2534
 96  7 15 18 30 29.9860000  0  4 24  6 16  5
  17765672.812   -18523047.78649 -14148243.08449  17765677.6024   17765682.0054
  18019905.731   -32032991.58149 -24928302.45649  18019907.2994   18019911.1324
  17705171.939   -27948285.87849 -21736286.27749  17705171.7414   17705177.2564
  16727462.510   -27508719.78749 -21416351.91749  16727463.1774   16727467.8904
 96  7 15 18 30 59.9860000  0  4 24  6 16  5
  17765555.120   -18523686.01749 -14148740.43249  17765556.4014   17765560.7724
  17994086.232   -32168667.38449 -25034023.84549  17994089.5194   17994093.2604
  17679263.863   -28084425.27049 -21842368.91249  17679265.2194   17679270.4624
  16724275.092   -27525458.60549 -21429395.17549  16724277.8894   16724282.6934
 96  7 15 18 31 29.9860000  0  4 24  6 16  5
  17765468.897   -18524121.21149 -14149079.56149  17765473.7074   17765478.3584
  17968290.111   -32304240.55649 -25139665.26449  17968290.4514   17968294.6464
  17653447.674   -28220090.15149 -21948081.77349  17653449.2574   17653453.9914
  16721181.205   -27541723.95749 -21442069.49449  16721182.7474   16721187.7494
 96  7 15 18 31 59.9860000  0  4 24  6 16  5
  17765426.450   -18524356.16149 -14149262.65749  17765428.7294   17765433.2794
  17942510.778   -32439707.36249 -25245223.80249  17942511.6334   17942515.8834
  17627722.746   -28355284.12849 -22053427.71449  17627722.3304   17627728.0554
  16718178.364   -27557511.31549 -21454371.36549  16718178.9114   16718183.4484
 96  7 15 18 32 29.9860000  0  5 24  6 16  5 25
  17765417.724   -18524399.74749 -14149296.64149  17765420.4474   17765424.7924
  17916752.032   -32575068.27049 -25350699.82349  17916753.4234   17916757.7214
  17602085.031   -28490002.29349 -22158402.88349  17602086.1564   17602092.0844
  16715265.634   -27572810.06649 -21466292.49049  16715267.7064   16715272.2964
  20568497.061   -12932055.60159  -7725402.93159  20568495.7454   20568500.5194
 96  7 15 18 32 59.9860000  0  5 24  6 16  5 25
  17765446.989   -18524248.94549 -14149179.15649  17765448.5274   17765453.5984
  17891015.908   -32710334.93649 -25456102.41349  17891013.0904   17891017.1204
  17576541.411   -28624247.00349 -22263009.12849  17576540.1344   17576545.6814
  16712445.681   -27587628.49749 -21477839.33849  16712447.9244   16712452.1794
  20550483.504   -13026707.12049  -7799157.39049  20550484.4534   20550488.9774
 96  7 15 18 33 29.9860000  0  6 24  6 16  5 25 17
  17765510.181   -18523913.83049 -14148918.04949  17765512.7104   17765517.6334
  17865286.505   -32845508.84849 -25561432.71549  17865289.9894   17865293.9804
  17551080.250   -28758030.47349 -22367255.98149  17551082.4614   17551087.9884
  16709716.257   -27601967.32149 -21489012.46649  16709718.8404   16709723.4954
  20532566.974   -13120866.12249  -7872528.03049  20532565.4684   20532571.9844
  20807015.165    -9134035.54359  -6666582.03659  20807011.4644   20807016.8284
 96  7 15 18 33 59.9860000  0  6 24  6 16  5 25 17
  17765607.904   -18523417.11449 -14148531.02549  17765607.4974   17765611.9184
  17839582.501   -32980598.47749 -25666697.35349  17839583.5674   17839587.7564
  17525712.294   -28891357.75249 -22471147.34549  17525711.3884   17525716.8454
  16707080.650   -27615824.10849 -21499809.98649  16707081.9504   16707086.6864
  20514746.642   -13214508.83649  -7945496.39749  20514746.8924   20514751.6884
  20774328.823    -9305724.44949  -6800365.57949  20774340.2204   20774347.1734
 96  7 15 18 34 29.9860000  0  6 24  6 16  5 25 17
  17765730.333   -18522759.23049 -14148018.40649  17765732.5074   17765737.1384
  17813889.868   -33115606.22149 -25771898.18149  17813892.3604   17813896.7854
  17500424.575   -29024224.66249 -22574679.99549  17500427.5344   17500432.7844
  16704534.620   -27629201.05249 -21510233.60449  16704536.7734   16704541.2334
  20497030.412   -13307621.48449  -8018051.73449  20497027.1354   20497032.7314
  20741690.117    -9477276.57249  -6934042.47049  20741695.8634   20741702.3334
 96  7 15 18 34 59.9860000  0  6 24  6 16  5 25 17
  17765887.391   -18521931.02549 -14147373.07949  17765889.8204   17765894.6544
  17788217.961   -33250520.86649 -25877026.46049  17788219.0844   17788223.6314
  17475227.390   -29156630.37249 -22677853.25249  17475231.1464   17475236.4744
  16702079.298   -27642103.06249 -21520287.14649  16702081.6684   16702086.0244
  20479405.484   -13400210.51249  -8090199.07349  20479408.6834   20479413.1514
  20709075.740    -9648699.71549  -7067618.88849  20709075.3184   20709080.6744
 96  7 15 18 35 29.9860000  0  6 24  6 16  5 25 17
  17766074.966   -18520945.86849 -14146605.45949  17766077.4724   17766082.8384
  17762564.813   -33385326.73349 -25982069.98349  17762566.2634   17762570.1374
  17450119.966   -29288587.06049 -22780676.62649  17450120.5424   17450126.1434
  16699710.467   -27654548.71049 -21529985.07649  16699712.8234   16699717.8634
  20461886.913   -13492293.60349  -8161952.13849  20461886.8184   20461891.1924
  20676472.927    -9820012.54949  -7201109.37849  20676475.6644   20676480.7434
 96  7 15 18 35 59.9860000  0  6 24  6 16  5 25 17
  17766291.045   -18519795.91849 -14145709.40449  17766295.9854   17766301.7814
  17736934.277   -33520013.78649 -26087020.92349  17736936.1574   17736940.4094
  17425092.213   -29420089.44349 -22883145.99049  17425096.3924   17425102.0334
  16697429.360   -27666544.73149 -21539332.64949  16697430.6194   16697435.1374
  20444457.583   -13583888.40349  -8233324.70149  20444456.2134   20444461.9414
  20643894.754    -9991220.09749  -7334517.82249  20643895.8594   20643901.2944
 96  7 15 18 36 29.9860000  0  6 24  6 16  5 25 17
  17766548.836   -18518455.06949 -14144664.61449  17766551.4694   17766556.7604
  17711328.779   -33654572.64149 -26191871.96749  17711330.2004   17711334.9574
  17400158.983   -29551141.94249 -22985264.80449  17400158.3004   17400163.6594
  16695230.583   -27678097.56849 -21548334.88549  16695232.0254   16695236.3454
  20427111.291   -13675008.74749  -8304327.59349  20427116.6954   20427122.0024
  20611332.116   -10162331.25849  -7467851.12549  20611331.6434   20611339.1204
 96  7 15 18 36 59.9850000  0  6 24  6 16  5 25 17
  17766836.626   -18516934.95449 -14143480.13849  17766840.5244   17766845.8024
  17685750.752   -33788990.74749 -26296613.33649  17685751.1774   17685755.9614
  17375304.368   -29681744.17749 -23087032.76049  17375305.5494   17375310.5354
  16693113.890   -27689221.67649 -21557003.05249  16693115.1454   16693119.4374
  20409868.224   -13765654.41449  -8374960.60349  20409868.0794   20409871.7564
  20578783.620   -10333355.50349  -7601116.75149  20578790.2864   20578796.0514
 96  7 15 18 37 29.9850000  0  6 24  6 16  5 25 17
  17767163.125   -18515237.58449 -14142157.53749  17767164.0754   17767169.2474
  17660198.215   -33923275.77949 -26401251.01249  17660198.2434   17660202.3234
  17350537.775   -29811887.79749 -23188443.34649  17350540.2914   17350545.1274
  16691080.770   -27699902.67249 -21565325.93349  16691082.7054   16691087.1204
  20392709.023   -13855816.80549  -8445217.02549  20392710.0394   20392714.9464
  20546258.174   -10504295.47749  -7734316.70049  20546259.1624   20546265.2254
 96  7 15 18 37 59.9850000  0  6 24  6 16  5 25 17
  17767518.790   -18513352.07949 -14140688.33149  17767522.4834   17767527.3284
  17634665.376   -34057435.13049 -26505790.75149  17634668.2494   17634672.7184
  17325866.300   -29941548.70149 -23289477.78449  17325866.3174   17325871.3214
  16689136.464   -27710126.36549 -21573292.47349  16689137.2664   16689141.4314
  20375646.115   -13945476.54749  -8515081.72849  20375647.6174   20375653.0424
  20513747.991   -10675137.70549  -7867440.47549  20513750.1854   20513756.8204
 96  7 15 18 38 29.9850000  0  6 24  6 16  5 25 17
  17767916.773   -18511281.39049 -14139074.83349  17767916.9014   17767921.8814
  17609161.394   -34191467.55349 -26610231.59749  17609162.6994   17609166.8494
  17301282.003   -30070719.40049 -23390130.24749  17301285.6724   17301291.0364
  16687278.227   -27719887.54849 -21580898.62349  16687279.9034   16687284.3434
  20358690.910   -14034617.28049  -8584541.98049  20358685.4974   20358689.7804
  20481257.668   -10845878.47749  -8000485.21149  20481258.3084   20481265.5854
 96  7 15 18 38 59.9850000  0  6 24  6 16  5 25 17
  17768339.453   -18509048.49049 -14137334.93349  17768341.3634   17768347.1114
  17583677.491   -34325392.23849 -26714588.48149  17583678.2394   17583682.3344
  17276800.073   -30199390.81949 -23490393.67549  17276800.2004   17276805.4574
  16685510.727   -27729179.04749 -21588138.78749  16685511.6844   16685516.2964
  20341812.825   -14123238.47749  -8653597.45549  20341821.2104   20341826.6234
  20448790.744   -11016516.52949  -8133449.87949  20448787.4214   20448794.0594
 96  7 15 18 39 29.9850000  0  6 24  6 16  5 25 17
  17768797.098   -18506645.57249 -14135462.55749  17768799.0904   17768804.2674
  17558207.992   -34459226.58949 -26818874.97549  17558209.8924   17558214.1204
  17252409.915   -30327562.60249 -23590267.77049  17252409.9694   17252415.2634
  16683831.446   -27737999.47849 -21595011.88349  16683833.0664   16683838.0094
  20325051.570   -14211353.03349  -8722258.14549  20325053.4444   20325058.9544
  20416338.302   -11187036.95249  -8266322.89249  20416338.6254   20416344.6564
 96  7 15 18 39 59.9850000  0  6 24  6 16  5 25 17
  17769284.038   -18504080.24749 -14133463.62049  17769287.3874   17769292.2484
  17532756.262   -34592969.03149 -26923089.85249  17532759.5804   17532763.6404
  17228110.106   -30455248.34649 -23689763.13049  17228112.2404   17228117.6914
  16682241.719   -27746350.61049 -21601519.28849  16682243.6934   16682248.7844
  20308375.145   -14298975.34149  -8790535.24649  20308380.3454   20308385.0664
  20383913.969   -11357437.23249  -8399102.28349  20383912.7974   20383918.4094
 96  7 15 18 40 29.9850000  0  6 24  6 16  5 25 17
  17769800.187   -18501360.98949 -14131344.73749  17769804.4984   17769809.3694
  17507324.045   -34726617.32849 -27027231.36949  17507327.0144   17507331.5814
  17203903.517   -30582452.73449 -23788883.41349  17203905.9964   17203911.3814
  16680741.579   -27754242.11449 -21607668.54949  16680742.5814   16680746.6724
  20291797.775   -14386106.39749  -8858429.59849  20291799.5234   20291804.6764
  20351506.743   -11527717.77749  -8531788.39149  20351509.0604   20351514.0294
 96  7 15 18 40 59.9850000  0  6 24  6 16  5 25 17
  17770349.772   -18498481.41949 -14129100.93449  17770352.6514   17770357.7644
  17481913.835   -34860169.07349 -27131297.65549  17481913.4654   17481917.5734
  17179791.158   -30709170.05149 -23887624.16149  17179792.3924   17179798.0414
  16679326.396   -27761679.61949 -21613464.04549  16679327.2074   16679332.1154
  20275324.199   -14472738.26649  -8925934.96449  20275313.2654   20275318.2084
  20319131.756   -11697861.55349  -8664367.93049  20319132.1694   20319137.4804
 96  7 15 18 41 29.9850000  0  6 24  6 16  5 25 17
  17770931.497   -18495429.78949 -14126723.07749  17770933.1144   17770938.1784
  17456520.699   -34993593.78449 -27235264.94149  17456522.9194   17456527.3254
  17155771.099   -30835392.43849 -23985979.24749  17155773.1734   17155778.8144
  16677997.609   -27768655.73349 -21618900.01649  16677999.3624   16678004.3044
  20258923.692   -14558856.44949  -8993040.02849  20258926.2514   20258929.9024
  20286780.822   -11867851.36849  -8796827.48049  20286782.9104   20286789.4244
 96  7 15 18 41 59.9850000  0  6 24  6 16  5 25 17
  17771543.060   -18492212.54549 -14124216.16249  17771545.5724   17771550.2584
  17431157.329   -35126870.03949 -27339116.56649  17431161.7674   17431165.8254
  17131849.214   -30961107.54949 -24083939.06049  17131849.9024   17131855.7354
  16676759.223   -27775168.43549 -21623974.88549  16676760.2574   16676765.1784
  20242628.198   -14644448.46449  -9059735.09049  20242637.3504   20242642.4764
  20254460.144   -12037682.19249  -8929163.17549  20254465.9084   20254472.2854
 96  7 15 18 42 29.9850000  0  6 24  6 16  5 25 17
  17772190.965   -18488815.23449 -14121568.93149  17772191.8814   17772197.2234
  17405828.218   -35259998.48849 -27442853.01749  17405828.5144   17405832.1634
  17108024.631   -31086305.21449 -24181495.66849  17108025.7784   17108031.5394
  16675604.939   -27781227.74949 -21628696.47449  16675607.1724   16675611.8274
  20226459.172   -14729498.38949  -9126007.70649  20226452.8724   20226457.8324
  20222180.871   -12207346.44649  -9061369.06449  20222179.7094   20222185.9084
 96  7 15 18 42 59.9850000  0  6 24  6 16  5 25 17
  17772871.456   -18485230.02849 -14118775.28549  17772874.3094   17772879.2574
  17380523.674   -35392965.87249 -27546463.95749  17380525.2804   17380529.7674
  17084300.260   -31210982.91649 -24278647.09949  17084301.1144   17084306.2724
  16674540.846   -27786821.45549 -21633055.24349  16674542.7854   16674547.2474
  20210368.677   -14814019.12449  -9191868.07149  20210369.5874   20210375.1764
  20189928.839   -12376841.06149  -9193442.74349  20189926.5694   20189932.4584
 96  7 15 18 43 29.9850000  0  6 24  6 16  5 25 17
  17773587.657   -18481458.58949 -14115836.52849  17773592.1164   17773597.0674
  17355251.119   -35525759.85549 -27649939.77449  17355254.9914   17355259.7774
  17060673.065   -31335141.49449 -24375394.03349  17060673.4564   17060679.5594
  16673568.625   -27791930.51549 -21637036.36749  16673570.6954   16673575.0484
  20194376.315   -14898032.00049  -9257332.67549  20194382.2724   20194385.9924
  20157702.985   -12546175.07849  -9325391.31649  20157703.7204   20157709.6534
 96  7 15 18 43 59.9850000  0  6 24  6 16  5 25 17
  17774342.792   -18477494.61149 -14112747.73749  17774345.9614   17774351.7554
  17330014.976   -35658387.42949 -27753285.93549  17330016.8414   17330021.3414
  17037143.052   -31458783.27149 -24471738.24749  17037145.3914   17037151.2264
  16672688.871   -27796561.79649 -21640645.19149  16672689.4974   16672694.2864
  20178488.469   -14981541.46149  -9322404.99949  20178492.2314   20178494.5194
  20125506.320   -12715353.72649  -9457218.82149  20125508.7604   20125515.3344
 96  7 15 18 44 29.9850000  0  6 24  6 16  5 25 17
  17775134.689   -18473337.36249 -14109508.35449  17775137.4724   17775142.9494
  17304808.055   -35790857.83049 -27856509.61349  17304808.9284   17304813.2374
  17013713.498   -31581918.56049 -24567687.79949  17013713.8204   17013719.4134
  16671899.271   -27800708.96649 -21643876.78549  16671900.2964   16671905.3524
  20162696.918   -15064542.31049  -9387081.03349  20162696.5844   20162701.9034
  20093343.470   -12884384.14149  -9588930.79149  20093344.7184   20093350.8514
 96  7 15 18 44 59.9850000  0  6 24  6 16  5 25 17
  17775955.174   -18469031.07349 -14106152.82749  17775957.5514   17775962.1104
  17279625.109   -35923185.74249 -27959622.27449  17279628.0544   17279632.0464
  16990376.789   -31704564.01949 -24663255.67949  16990375.0224   16990380.6474
  16671196.971   -27804391.18149 -21646746.08249  16671199.4954   16671204.0434
  20146999.632   -15147056.21249  -9451377.62349  20146994.6474   20147000.2364
  20061198.920   -13053297.54849  -9720551.54749  20061199.6504   20061206.7274
 96  7 15 18 45 29.9850000  0  6 24  6 16  5 25 17
  17776790.308   -18464642.23749 -14102732.97349  17776792.2844   17776797.2964
  17254459.086   -36055435.95449 -28062674.37649  17254460.9504   17254465.7454
  16967120.548   -31826756.26449 -24758470.40249  16967122.5144   16967127.9944
  16670574.235   -27807670.44949 -21649301.37849  16670575.7554   16670580.2004
  20131376.080   -15229104.56049  -9515311.36949  20131381.7794   20131387.1014
  20029076.591   -13222132.70449  -9852111.37149  20029071.3694   20029079.2284
 96  7 15 18 45 59.9850000  0  6 24  6 16  5 25 17
  17777640.282   -18460176.69049 -14099253.35149  17777641.4744   17777646.9454
  17229305.263   -36187624.75249 -28165678.62649  17229306.2884   17229310.9034
  16943957.962   -31948480.17049 -24853320.16249  16943959.4734   16943964.6124
  16670021.946   -27810570.17049 -21651560.93849  16670023.8324   16670028.1814
  20115865.915   -15310659.15749  -9578860.34649  20115862.2164   20115866.5934
  19996964.213   -13390889.72549  -9983610.32149  19996959.4484   19996964.5734
 96  7 15 18 46 29.9850000  0  6 24  6 16  5 25 17
  17778506.103   -18455627.02149 -14095708.18349  17778507.6244   17778512.8094
  17204166.564   -36319732.39149 -28268619.63149  17204167.4284   17204171.5334
  16920891.525   -32069699.06049 -24947776.42149  16920892.0324   16920897.6854
  16669545.466   -27813076.32549 -21653513.82349  16669546.6634   16669551.5674
  20100432.533   -15391698.62249  -9642007.99949  20100440.6454   20100447.1204
  19964843.573   -13559549.04949 -10115033.15849  19964862.2684   19964868.5664
 96  7 15 18 46 59.9850000  0  6 24  6 16  5 25 17
  17779390.732   -18450970.34449 -14092079.63249  17779393.7834   17779399.1174
  17179048.344   -36451733.04049 -28371477.27749  17179048.2994   17179052.2494
  16897925.576   -32190380.75849 -25041814.08449  16897927.0354   16897932.8584
  16669146.661   -27815172.33949 -21655147.10849  16669147.7494   16669153.0724
  20085120.984   -15472212.28449  -9704745.85549  20085119.6304   20085125.4214
  19932797.574   -13728080.84149 -10246356.56249  19932795.4484   19932799.4174
 96  7 15 18 47 29.9850000  0  6 24  6 16  5 25 17
  17780304.398   -18446177.92649 -14088345.29749  17780305.7324   17780310.7954
  17153949.823   -36583618.08949 -28474244.84849  17153951.2734   17153956.0334
  16875063.915   -32310518.99949 -25135428.28249  16875065.8634   16875071.1674
  16668827.446   -27816844.34149 -21656449.99949  16668829.8934   16668834.4434
  20069899.442   -15552211.13049  -9767082.64149  20069896.1464   20069902.9394
  19900753.750   -13896460.02149 -10377561.06849  19900750.9074   19900758.7194
 96  7 15 18 47 59.9840000  0  6 24  6 16  5 25 17
  17781245.202   -18441226.24349 -14084486.86249  17781247.9594   17781253.3014
  17128879.950   -36715352.06549 -28576894.68149  17128883.6084   17128887.7934
  16852307.857   -32430105.91749 -25228612.87049  16852308.8814   16852314.2474
  16668593.063   -27818078.56249 -21657411.76749  16668595.0684   16668600.1544
  20054761.030   -15631699.05449  -9829021.33149  20054770.9844   20054776.5494
  19868739.935   -14064668.90149 -10508632.92249  19868741.6914   19868746.1794
 96  7 15 18 48 29.9840000  0  6 24  6 16  5 25 17
  17782219.848   -18436124.09349 -14080511.18249  17782219.4264   17782223.8334
  17103842.920   -36846937.08549 -28679428.45449  17103843.7784   17103847.9224
  16829651.324   -32549166.51649 -25321387.34649  16829652.4984   16829658.4544
  16668441.399   -27818877.35149 -21658034.23749  16668443.0654   16668448.3194
  20039735.752   -15710705.40049  -9890584.72349  20039736.3264   20039738.3984
  19836763.629   -14232715.32349 -10639578.18749  19836765.5234   19836768.5934
 96  7 15 18 48 59.9840000  0  6 24  6 16  5 25 17
  17783218.447   -18430865.57349 -14076413.66349  17783219.8324   17783224.9794
  17078831.414   -36978375.62649 -28781848.09349  17078832.1214   17078836.1044
  16807093.090   -32667707.74249 -25413757.10849  16807095.0334   16807100.6074
  16668372.779   -27819230.20949 -21658309.22949  16668375.9734   16668380.8444
  20024786.202   -15789231.93849  -9951774.23649  20024796.4794   20024795.2894
  19804820.147   -14400584.33649 -10770385.23949  19804819.4254   19804826.4394
 96  7 15 18 49 29.9840000  0  6 24  6 16  5 25 17
  17784248.055   -18425450.23449 -14072193.95249  17784250.3504   17784255.2454
  17053847.415   -37109664.56849 -28884151.15949  17053848.4804   17053852.7094
  16784635.968   -32785726.33749 -25505719.62949  16784637.0204   16784642.4904
  16668393.578   -27819134.18549 -21658234.43849  16668394.6004   16668398.6994
  20009946.457   -15867257.59549 -10012573.37549  20009946.0444   20009950.1984
  19772904.639   -14568273.70849 -10901052.23649  19772910.4334   19772916.2244
 96  7 15 18 49 59.9840000  0  6 24  6 16  5 25 17
  17785309.076   -18419872.82749 -14067847.95849  17785312.2004   17785316.6484
  17028891.593   -37240803.16049 -28986337.07049  17028893.4134   17028897.8854
  16762279.723   -32903207.75149 -25597263.57849  16762281.0224   16762286.4014
  16668498.441   -27818584.81749 -21657806.40549  16668499.2904   16668503.8794
  19995193.218   -15944753.78749 -10072960.02549  19995198.4534   19995203.8464
  19741038.980   -14735788.07249 -11031582.92849  19741032.6104   19741039.0644
 96  7 15 18 50 29.9840000  0  6 24  6 16  5 25 17
  17786401.295   -18414140.84949 -14063381.50949  17786402.7574   17786407.8594
  17003961.993   -37371811.91449 -29088421.80349  17003963.4184   17003968.0724
  16740023.833   -33020156.35149 -25688392.35249  16740026.1824   16740031.6994
  16668687.823   -27817579.46249 -21657023.04549  16668690.3404   16668695.5284
  19980542.532   -16021729.40349 -10132941.04049  19980551.4204   19980556.1644
  19709181.396   -14903136.03549 -11161983.92049  19709187.7614   19709194.3894
 96  7 15 18 50 59.9840000  0  6 24  6 16  5 25 17
  17787520.640   -18408250.77749 -14058791.86349  17787523.3644   17787528.7744
  16979056.407   -37502684.99449 -29190400.82649  16979059.0664   16979063.5964
  16717872.146   -33136575.37449 -25779108.44949  16717872.2584   16717878.1164
  16668968.002   -27816114.15549 -21655881.27849  16668969.3634   16668973.7854
  19966000.303   -16098178.57549 -10192511.89549  19966002.8464   19966005.7364
  19677375.169   -15070324.39549 -11292260.55549  19677372.8654   19677379.1654
 96  7 15 18 51 29.9840000  0  6 24  6 16  5 25 17
  17788670.009   -18402212.10649 -14054086.43949  17788672.8814   17788677.2844
  16954184.476   -37633404.88449 -29292260.47049  16954183.7874   16954188.1014
  16695817.767   -33252463.26849 -25869410.69449  16695819.6404   16695825.1364
  16669330.269   -27814214.11649 -21654400.75149  16669330.5264   16669335.3014
  19951556.705   -16174105.20359 -10251675.43359  19951556.0024   19951558.3764
  19645587.104   -15237371.94849 -11422427.45249  19645584.9334   19645591.1044
 96  7 15 18 51 59.9840000  0  6 24  6 16  5 25 17
  17789844.650   -18396030.41249 -14049269.56849  17789848.8354   17789853.5044
  16929336.171   -37763957.29349 -29393989.61449  16929340.4314   16929344.6124
  16673870.326   -33367805.17949 -25959287.49549  16673871.0324   16673876.4404
  16669772.529   -27811885.22349 -21652586.04249  16669773.8964   16669779.2514
  19937197.094   -16249523.87058                                  19937198.1534
  19613822.384   -15404278.32349 -11552484.34649  19613823.2934   19613830.0174
 96  7 15 18 52 29.9840000  0  6 24  6 16  5 25 17
  17791044.183   -18389729.12849 -14044359.50549  17791047.9384   17791053.0104
  16904528.387   -37894331.85649 -29495580.18149  16904530.7634   16904535.4434
  16652022.664   -33482607.80349 -26048744.07649  16652024.5744   16652029.9704
  16670293.901   -27809140.87849 -21650447.63049  16670296.0694   16670301.2804
  19922945.701   -16324442.05658                                  19922945.5784
  19582084.197   -15571037.60649 -11682426.61849  19582090.3954   19582097.1594
 96  7 15 18 52 59.9840000  0  6 24  6 16  5 25 17
  17792267.121   -18383319.65549 -14039365.14349  17792267.5704   17792272.5084
  16879754.931   -38024522.60949 -29597027.51449  16879756.6654   16879761.0494
  16630281.935   -33596857.19749 -26137769.57449  16630283.5884   16630288.5224
  16670891.614   -27805999.97349 -21648000.19649  16670893.5564   16670898.4274
  19908783.352   -16398848.13959 -10426799.69559  19908786.8184   19908788.8744
  19550382.376   -15737652.48449 -11812256.34749  19550385.0484   19550390.3524
 96  7 15 18 53 29.9840000  0  6 24  6 16  5 25 17
  17793502.584   -18376814.06249 -14034295.87849  17793505.6234   17793510.7954
  16855012.395   -38154541.60849 -29698341.01249  16855014.6594   16855019.0994
  16608651.306   -33710528.75549 -26226344.81049  16608652.4294   16608657.5424
  16671564.501   -27802461.91449 -21645243.29349  16671566.7484   16671571.8734
  19894733.859   -16472746.25149 -10484382.53159  19894725.2854   19894729.1854
  19518708.954   -15904113.94049 -11941966.56849  19518708.5384   19518715.3354
 96  7 15 18 53 59.9840000  0  6 24  6 16  5 25 17
  17794755.367   -18370218.47349 -14029156.48249  17794760.9014   17794766.2424
  16830297.959   -38284411.74849 -29799538.51349  16830301.3924   16830305.2964
  16587129.724   -33823625.25449 -26314471.93749  16587130.9514   16587136.3474
  16672316.476   -27798518.11549 -21642170.22649  16672317.2644   16672322.5594
  19880745.719   -16546131.77849 -10541566.01959  19880760.5754   19880763.6774
  19487062.545   -16070407.99349 -12071546.32749  19487062.7554   19487069.8494
 96  7 15 18 54 29.9840000  0  6 24  6 16  5 25 17
  17796033.308   -18363533.22349 -14023947.21849  17796032.9814   17796038.0694
  16805611.230   -38414155.08749 -29900637.21249  16805611.8384   16805616.5714
  16565713.666   -33936167.91449 -26402167.49849  16565714.9544   16565720.3224
  16673146.656   -27794172.92249 -21638784.37649  16673144.6804   16673149.2224
  19866906.307   -16619008.04849 -10598352.80849  19866892.3214   19866895.2684
  19455453.501   -16236536.12249 -12200996.78649  19455450.3324   19455455.9254
 96  7 15 18 54 59.9840000  0  6 24  6 16  5 25 17
  17797322.446   -18356750.12649 -14018661.71549  17797323.6474   17797328.6424
  16780942.970   -38543784.17449 -30001646.88649  16780944.3854   16780948.5664
  16544403.295   -34048166.26349 -26489438.91649  16544402.7104   16544407.4744
  16674046.583   -27789424.80149 -21635084.54949  16674047.9424   16674052.5574
  19853116.928   -16691392.20549 -10654756.12149  19853118.2314   19853121.9134
  19423865.834   -16402511.71249 -12330328.41749  19423866.2734   19423872.0724
 96  7 15 18 55 29.9840000  0  6 24  6 16  5 25 17
  17798632.303   -18349854.99849 -14013288.91149  17798636.0864   17798640.5704
  16756297.688   -38673291.48749 -30102561.66649  16756299.8594   16756304.2074
  16523189.355   -34159631.96549 -26576295.29149  16523191.1154   16523196.0314
  16675029.355   -27784265.34549 -21631064.22049  16675029.7594   16675034.7884
  19839433.409   -16763282.57849 -10710774.61649  19839438.1384   19839441.9154
  19392315.039   -16568323.18949 -12459532.14449  19392313.2384   19392319.3024
 96  7 15 18 55 59.9840000  0  6 24  6 16  5 25 17
  17799967.668   -18342832.69249 -14007817.01249  17799972.2094   17799977.6604
  16731679.807   -38802669.63549 -30203375.80849  16731680.2544   16731684.2514
  16502076.829   -34270587.71849 -26662754.31149  16502077.2064   16502082.1664
  16676084.946   -27778703.69249 -21626730.49949  16676087.8334   16676093.0224
  19825855.644   -16834678.07149 -10766407.49849  19825851.7114   19825857.2884
  19360786.995   -16733971.94449 -12588609.05449  19360790.3804   19360798.3764
 96  7 15 18 56 29.9840000  0  6 24  6 16  5 25 17
  17801329.449   -18335683.03649 -14002245.89749  17801332.3264   17801338.3544
  16707084.494   -38931902.74949 -30304076.93449  16707087.8504   16707091.9744
  16481061.543   -34381016.75049 -26748802.88949  16481063.4594   16481068.3664
  16677221.866   -27772736.76449 -21622080.97349  16677223.5954   16677228.3334
  19812356.382   -16905586.88349 -10821661.15549  19812357.4184   19812362.0734
  19329300.982   -16899448.40149 -12717551.72049  19329302.0854   19329308.3364
 96  7 15 18 56 59.9840000  0  6 24  6 16  5 25 17
  17802716.443   -18328392.21449 -13996564.76549  17802719.9284   17802725.5354
  16682525.231   -39060964.83749 -30404644.79149  16682527.8254   16682532.5564
  16460154.295   -34490892.36349 -26834420.22549  16460154.7584   16460159.7964
  16678433.703   -27766359.35049 -21617111.59349  16678437.2984   16678442.2324
  19798948.519   -16975998.43649 -10876527.32149  19798957.9644   19798963.0764
  19297844.381   -17064745.89849 -12846354.95649  19297848.1874   19297852.2924
 96  7 15 18 57 29.9840000  0  6 24  6 16  5 25 17
  17804134.890   -18320957.58449 -13990771.57549  17804135.3394   17804139.8184
  16658001.504   -39189842.45949 -30505068.91149  16658003.3634   16658007.8224
  16439353.337   -34600192.06449 -26919588.80849  16439355.6984   16439360.3464
  16679726.569   -27759575.84549 -21611825.77549  16679727.9534   16679733.1494
  19785655.665   -17045911.33849 -10931004.90149  19785653.8534   19785659.1764
  19266423.646   -17229849.40749 -12975006.99249  19266428.1294   19266433.9254
 96  7 15 18 57 59.9840000  0  6 24  6 16  5 25 17
  17805573.659   -18313381.49449 -13984868.15249  17805577.1474   17805580.9994
  16633511.393   -39318538.21049 -30605351.30649  16633513.9034   16633517.6864
  16418668.333   -34708902.36849 -27004298.11349  16418668.7064   16418673.6714
  16681095.997   -27752380.28949 -21606218.86749  16681097.1744   16681101.8754
  19772435.663   -17115338.67549 -10985104.16749  19772446.4904   19772447.9074
  19235048.833   -17394764.73949 -13103512.46149  19235047.0784   19235052.7924
 96  7 15 18 58 29.9840000  0  6 24  6 16  5 25 17
  17807041.114   -18305668.60449 -13978858.13449  17807044.4274   17807049.2444
  16609055.435   -39447053.29649 -30705492.93249  16609057.7964   16609061.9254
  16398095.496   -34817008.53449 -27088536.66849  16398096.6204   16398102.3194
  16682544.816   -27744768.36949 -21600287.52349  16682545.9934   16682550.6464
  19759315.378   -17184283.43649 -11038827.37149  19759323.3744   19759327.8804
  19203690.656   -17559500.75649 -13231878.16449  19203697.7574   19203704.4794
 96  7 15 18 58 59.9830000  0  6 24  6 16  5 25 17
  17808535.416   -18297810.17749 -13972734.69849  17808539.2864   17808545.3964
  16584635.588   -39575382.08649 -30805489.38149  16584637.7524   16584641.8814
  16377636.806   -34924519.58349 -27172311.49049  16377637.8354   16377643.3214
  16684070.142   -27736746.01449 -21594036.37049  16684072.7154   16684077.0164
  19746287.558   -17252732.29749 -11092164.20849  19746298.2374   19746303.7214
  19172376.878   -17724066.13849 -13360110.87649  19172382.2474   19172388.6974
 96  7 15 18 59 29.9830000  0  6 24  6 16  5 25 17
  17810055.608   -18289829.97149 -13966516.38649  17810057.9644   17810064.5664
  16560247.226   -39703551.37549 -30905361.55649  16560247.8904   16560252.0424
  16357285.279   -35031455.91749 -27255638.48649  16357288.1584   16357294.0804
  16685677.646   -27728311.63249 -21587464.16149  16685677.2774   16685682.1654
  19733366.373   -17320691.24049 -11145119.25949  19733367.0834   19733369.8004
  19141096.694   -17888472.99549 -13488220.06749  19141096.2854   19141102.5904
 96  7 15 18 59 59.9830000  0  6 24  6 16  5 25 17
  17811593.201   -18281752.62849 -13960222.37549  17811595.3534   17811601.2864
  16535884.223   -39831570.86549 -31005116.99649  16535886.5054   16535891.0954
  16337048.481   -35137820.62749 -27338520.05849  16337047.7384   16337053.6044
  16687358.221   -27719469.41449 -21580574.13549  16687359.6494   16687365.0934
  19720518.786   -17388138.85149 -11197675.83449  19720531.5114   19720536.6744
  19109838.706   -18052721.44949 -13616205.85449  19109842.4764   19109847.6764
 96  7 15 19  0 29.9830000  0  6 24  6 16  5 25 17
  17813143.871   -18273592.65549 -13953863.98749  17813149.0384   17813153.6974
  16511553.522   -39959431.09849 -31104748.34349  16511555.7784   16511559.7814
  16316914.413   -35243618.11549 -27420959.65249  16316915.5384   16316921.3134
  16689117.963   -27710227.79849 -21573372.91649  16689118.9504   16689124.0254
  19707799.105   -17455061.45049 -11249823.35249  19707798.2344   19707802.7674
  19078620.796   -18216809.33749 -13744066.50049  19078614.9164   19078622.3364
 96  7 15 19  0 59.9830000  0  6 24  6 16  5 25 17
  17814715.404   -18265352.01449 -13947442.74249  17814716.6984   17814722.0044
  16487256.870   -40087118.42249 -31204244.96249  16487257.3504   16487261.4644
  16296889.990   -35348848.00649 -27502956.95649  16296890.6704   16296896.3314
  16690949.724   -27700581.57049 -21565856.41149  16690954.5294   16690958.8294
  19695162.244   -17521446.80249 -11301552.20449  19695162.5394   19695169.2924
  19047423.553   -18380719.59949 -13871788.71849  19047425.7404   19047431.1774
 96  7 15 19  1 29.9830000  0  6 24  6 16  5 25 17
  17816297.252   -18257031.28449 -13940959.08849  17816300.1784   17816305.2894
  16462991.808   -40214623.69449 -31303599.71849  16462994.1844   16462998.4154
  16276975.010   -35453494.61649 -27584499.74749  16276976.9564   16276982.8304
  16692866.531   -27690529.19349 -21558023.40449  16692867.5864   16692872.4304
  19682627.907   -17587292.12649 -11352860.23549  19682633.6564   19682639.1484
  19016267.400   -18544436.71549 -13999360.42549  19016270.9134   19016276.6454
 96  7 15 19  1 59.9830000  0  6 24  6 16  5 25 17
  17817896.610   -18248614.71649 -13934400.76149  17817901.3754   17817906.3514
  16438765.857   -40341930.96449 -31402800.18749  16438768.3864   16438772.6944
  16257174.522   -35557550.26949 -27665582.05849  16257176.0444   16257181.7594
  16694854.475   -27680076.52649 -21549878.49449  16694856.0214   16694860.9804
  19670208.071   -17652601.56649 -11403750.76449  19670207.5194   19670211.6994
  18985157.843   -18707951.57949 -14126774.54149  18985154.3384   18985161.6914
 96  7 15 19  2 29.9830000  0  6 24  6 16  5 25 17
  17819521.851   -18240083.89249 -13927753.38649  17819524.9854   17819529.4524
  16414580.579   -40469032.53049 -31501840.36549  16414581.8374   16414586.0634
  16237484.359   -35661024.94849 -27746211.65749  16237485.1864   16237490.5354
  16696921.076   -27669223.67949 -21541421.74649  16696922.0104   16696927.1394
  19657868.562   -17717406.74449 -11454248.31049  19657870.3994   19657879.7444
  18954077.105   -18871266.22349 -14254032.63849  18954076.8934   18954082.6334
 96  7 15 19  2 59.9830000  0  6 24  6 16  5 25 17
  17821168.873   -18231436.65249 -13921015.30249  17821170.2664   17821175.8104
  16390431.181   -40595934.55449 -31600725.05849  16390432.9744   16390437.2204
  16217901.098   -35763922.81849 -27826391.80649  16217904.6994   16217909.6224
  16699060.796   -27657981.93649 -21532661.96449  16699060.9834   16699065.9814
  19645622.716   -17781717.89949 -11504360.89149  19645635.5894   19645642.2864
  18923031.162   -19034375.04549 -14381130.38249  18923037.7944   18923043.3724
 96  7 15 19  3 29.9830000  0  6 24  6 16  5 25 17
  17822833.347   -18222689.75149 -13914199.56549  17822834.8854   17822840.2604
  16366317.877   -40722646.42749 -31699461.57349  16366320.4774   16366324.9184
  16198430.907   -35866246.83949 -27906124.79349  16198433.1424   16198438.1484
  16701269.290   -27646372.39049 -21523615.59849  16701270.2824   16701274.9024
  19633487.017   -17845555.00349 -11554104.10549  19633488.8084   19633489.1394
  18892033.361   -19197297.28449 -14508082.76149  18892035.3954   18892039.8684
 96  7 15 19  3 59.9830000  0  6 24  6 16  5 25 17
  17824516.143   -18213838.14149 -13907302.24449  17824518.4394   17824525.4684
  16342243.996   -40849167.42249 -31798049.36049  16342244.5214   16342248.7454
  16179068.016   -35967994.29349 -27985408.50849  16179071.0224   16179076.5844
  16703548.101   -27634392.62649 -21514280.73649  16703549.4204   16703555.0984
  19621419.084   -17908922.69449                                  19621427.0414
  18861063.575   -19360039.87049 -14634895.12849  18861065.9124   18861072.5344
 96  7 15 19  4 29.9830000  0  6 24  6 16  5 25 17
  17826222.403   -18204879.91049 -13900321.82949  17826224.2964   17826229.0984
  16318201.693   -40975506.85149 -31896495.66649  16318202.6054   16318206.9954
  16159816.677   -36069169.10249 -28064246.00849  16159818.0314   16159823.2344
  16705897.678   -27622047.73149 -21504661.36349  16705899.2574   16705904.2224
  19609469.943   -17971807.49949 -11652482.66359  19609462.6684   19609469.7534
  18830123.463   -19522625.47349 -14761585.21149  18830125.6304   18830131.8174
 96  7 15 19  4 59.9830000  0  6 24  6 16  5 25 17
  17827942.155   -18195826.10349 -13893266.95049  17827946.7064   17827952.0714
  16294190.903   -41101674.62249 -31994808.21349  16294193.5744   16294198.1474
  16140674.156   -36169757.80549 -28142626.80449  16140676.2204   16140681.6924
  16708311.510   -27609355.37449 -21494771.24749  16708314.4874   16708319.3844
  19597601.420   -18034196.44449 -11701097.44749  19597590.5434   19597596.4284
  18799216.880   -19685053.81249 -14888152.73949  18799218.0864   18799223.4854
 96  7 15 19  5 29.9830000  0  6 24  6 16  5 25 17
  17829683.220   -18186680.85549 -13886140.81149  17829687.2144   17829692.0924
  16270215.033   -41227681.94249 -32092995.72249  16270215.4244   16270219.7694
  16121646.130   -36269747.99049 -28220541.21849  16121649.0654   16121654.1054
  16710793.383   -27596315.21849 -21484610.10849  16710796.2014   16710800.5904
  19585808.037   -18096090.57849                                  19585815.1154
  18768336.456   -19847332.58749 -15014603.71749  18768336.2414   18768343.9104
 96  7 15 19  5 59.9830000  0  6 24  6 16  5 25 17
  17831448.228   -18177439.46349 -13878939.74549  17831445.0954   17831451.7194
  16246262.232   -41353550.19049 -32191074.86949  16246263.7784   16246267.4124
  16102730.688   -36369153.11749 -28297999.75149  16102732.9584   16102738.2274
  16713343.188   -27582923.14049 -21474174.74749  16713344.2654   16713349.1354
  19574117.283   -18157488.22719
  18737487.586   -20009447.19649 -15140926.73649  18737489.2764   18737494.9144
 96  7 15 19  6 29.9830000  0  6 24  6 16  5 25 17
  17833215.889   -18168109.31449 -13871669.52449  17833220.8134   17833227.0014
  16222337.029   -41479275.33249 -32289042.50049  16222338.7674   16222343.0934
  16083926.950   -36467970.76349 -28375000.51249  16083928.5514   16083933.6844
  16715960.138   -27569174.63349 -21463461.64449  16715960.9324   16715965.9184
  19562543.242   -18218387.53019
  18706676.446   -20171367.24549 -15267098.18249  18706675.7194   18706681.9634
 96  7 15 19  6 59.9830000  0  6 24  6 16  5 25 17
  17835006.177   -18158714.34449 -13864348.80549  17835009.0394   17835014.7214
  16198440.472   -41604849.35849 -32386892.38349  16198443.0004   16198447.4314
  16065234.803   -36566197.02249 -28451540.44649  16065236.6704   16065241.7264
  16718644.293   -27555067.01749 -21452468.71049  16718645.5044   16718650.2784
  19551040.539   -18278810.26619
  18675904.615   -20333066.99249 -15393097.94649  18675904.9134   18675911.0204
 96  7 15 19  7 29.9830000  0  6 24  6 16  5 25 17
  17836809.541   -18149240.47949 -13856966.60449  17836811.7304   17836817.0714
  16174578.481   -41730251.05349 -32484607.98649  16174579.8104   16174583.9394
  16046657.035   -36663832.33649 -28527619.91049  16046657.5714   16046662.1824
  16721400.435   -27540568.00849 -21441170.80049  16721404.7544   16721409.4634
  19539625.827   -18338756.499 9
  18645178.698   -20494539.90249 -15518920.95149  18645178.8104   18645183.4484
 96  7 15 19  7 59.9830000  0  6 24  6 16  5 25 17
  17838630.728   -18139672.95049 -13849511.41349  17838632.8244   17838638.2854
  16150751.584   -41855461.58949 -32582174.62649  16150752.9794   16150757.5144
  16028188.982   -36760882.47449 -28603243.38849  16028189.2784   16028194.5334
  16724235.833   -27525678.92149 -21429568.92649  16724237.6064   16724242.1764
  19528306.458   -18398236.95119
  18614490.598   -20655789.33749 -15644569.80249  18614493.3484   18614500.5484
 96  7 15 19  8 29.9830000  0  6 24  6 16  5 25 17
  17840469.301   -18130019.72049 -13841989.44549  17840469.5644   17840474.5684
  16126964.902   -41980459.82349 -32679575.83749  16126966.3854   16126970.7374
  16009834.816   -36857330.78549 -28678397.90849  16009836.1374   16009840.9264
  16727141.716   -27510412.84749 -21417673.31449  16727142.8124   16727147.5424
  19517080.699   -18457259.80419
  18583843.900   -20816835.62649 -15770060.39649  18583846.9894   18583853.1014
 96  7 15 19  8 59.9830000  0  6 24  6 16  5 25 17
  17842322.357   -18120262.74649 -13834386.63749  17842327.1364   17842331.3254
  16103220.287   -42105233.95549 -32776802.42749  16103222.9784   16103227.1914
  15991595.578   -36953178.04549 -28753084.07649  15991596.6564   15991601.6394
  16730116.190   -27494772.83249 -21405486.30249  16730119.4344   16730123.6474
  19505947.265   -18515814.35019
  18553233.542   -20977700.69949 -15895409.72649  18553235.1694   18553241.2724
 96  7 15 19  9 29.9830000  0  6 24  6 16  5 25 17
  17844207.004   -18110372.72949 -13826680.17049  17844208.6864   17844213.9914
  16079520.740   -42229781.80649 -32873852.69849  16079522.2174   16079526.8274
  15973470.904   -37048426.52849 -28827303.67049  15973471.6844   15973476.9064
  16733162.137   -27478767.71149 -21393014.80549  16733164.4114   16733168.8984
  19494884.230   -18573894.79119
  18522653.355   -21138383.82349 -16020617.29649  18522658.2064   18522665.1054
 96  7 15 19  9 59.9820000  0  6 24  6 16  5 25 17
  17846109.720   -18100369.60149 -13818885.54549  17846111.7624   17846117.6424
  16055861.131   -42354103.05849 -32970726.39649  16055864.6254   16055868.6714
  15955457.180   -37143083.54549 -28901062.37849  15955458.9684   15955464.0104
  16736271.689   -27462429.62749 -21380283.84749  16736273.7494   16736278.7774
  19483898.564   -18631506.76019
  18492118.166   -21298873.46849 -16145674.12949  18492117.5684   18492124.4094
 96  7 15 19 10 29.9820000  0  6 24  6 16  5 25 17
  17848028.523   -18090281.66049 -13811024.84649  17848031.7994   17848037.7634
  16032244.951   -42478212.16649 -33067434.79749  16032247.4314   16032251.8254
  15937557.430   -37237161.82249 -28974370.12649  15937556.6344   15937561.5324
  16739444.797   -27445755.25149 -21367290.86749  16739446.5274   16739451.6254
  19473047.881   -18688644.88119
  18461617.415   -21459164.51449 -16270576.18549  18461616.3424   18461622.1874
 96  7 15 19 10 59.9820000  0  6 24  6 16  5 25 17
  17849963.221   -18080121.29449 -13803107.71449  17849965.0424   17849970.6104
  16008666.833   -42602121.65949 -33163987.65049  16008668.0444   16008672.3314
  15919758.240   -37330678.59149 -29047240.32849  15919760.7434   15919765.9464
  16742681.707   -27428749.93349 -21354040.00549  16742682.7724   16742687.5794
  19462269.331   -18745316.25919
  18431144.764   -21619253.45249 -16395320.78449  18431151.7154   18431158.1834
 96  7 15 19 11 29.9820000  0  5 24  6 16  5 17
  17851906.606   -18069914.06149 -13795154.05949  17851907.7934   17851913.2104
  15985122.396   -42725852.32449 -33260401.15349  15985122.9434   15985127.1624
  15902071.032   -37423629.15249 -29119669.33549  15902072.5914   15902077.8784
  16745980.538   -27411411.01849 -21340529.17749  16745982.2414   16745987.1634
  18400723.164   -21779136.29149 -16519904.74749  18400727.6954   18400734.4154
 96  7 15 19 11 59.9820000  0  5 24  6 16  5 17
  17853851.217   -18059683.46349 -13787182.18949  17853855.0234   17853860.0314
  15961608.653   -42849409.01849 -33356679.09249  15961611.2284   15961615.6214
  15884495.566   -37515991.17149 -29191639.73349  15884496.9794   15884502.0814
  16749343.624   -27393730.31949 -21326752.03549  16749347.0434   16749352.2524
  18370337.370   -21938819.77249 -16644333.41849  18370339.5804   18370346.1204
 96  7 15 19 12 29.9820000  0  5 24  6 16  5 17
  17855809.002   -18049407.62049 -13779175.07549  17855809.7074   17855816.0314
  15938128.783   -42972794.73949 -33452823.80649  15938131.3064   15938135.7124
  15867036.207   -37607740.91749 -29263133.03649  15867037.2314   15867042.6034
  16752777.356   -27375691.71249 -21312695.99549  16752779.2164   16752784.3784
  18339985.762   -22098304.99149 -16768607.56849  18339990.5314   18339996.5074
 96  7 15 19 12 59.9820000  0  5 24  6 16  5 17
  17857772.086   -18039069.86349 -13771119.70149  17857777.2914   17857782.8824
  15914681.518   -43096018.28049 -33548842.15049  15914682.5654   15914687.0374
  15849692.549   -37698876.59049 -29334147.83849  15849694.8024   15849699.8614
  16756277.798   -27357306.60949 -21298369.95349  16756277.8754   16756283.5944
  18309675.891   -22257603.26849 -16892736.08749  18309678.1074   18309683.7654
 96  7 15 19 13 29.9820000  0  5 24  6 16  5 17
  17859753.863   -18028658.07149 -13763006.67449  17859758.6214   17859764.4014
  15891264.312   -43219072.55749 -33644728.59349  15891266.5544   15891270.6134
  15832468.700   -37789380.90649 -29404670.67349  15832472.3714   15832477.8524
  16759844.093   -27338574.38249 -21283773.42749  16759842.7054   16759847.2494
  18279398.926   -22416705.63349 -17016711.93249  18279401.2884   18279407.4914
 96  7 15 19 13 59.9820000  0  5 24  6 16  5 17
  17861750.579   -18018177.55649 -13754840.06449  17861752.5914   17861758.2994
  15867881.587   -43341948.60449 -33740476.15949  15867883.6914   15867888.0804
  15815368.543   -37879260.42049 -29474706.65049  15815368.7024   15815374.1174
  16763468.100   -27319518.65949 -21268924.85049  16763468.9874   16763473.6584
  18249154.126   -22575630.97849 -17140549.88749  18249159.2394   18249163.2874
 96  7 15 19 14 29.9820000  0  5 24  6 16  5 17
  17863761.280   -18007615.06949 -13746609.60049  17863763.1814   17863768.3904
  15844535.383   -43464630.83849 -33836072.70049  15844538.1074   15844542.4844
  15798377.140   -37968540.60049 -29544275.61549  15798379.8164   15798385.0214
  16767154.743   -27300145.29549 -21253828.76149  16767156.0674   16767160.7184
  18218950.527   -22734377.56449 -17264248.54149  18218950.0204   18218957.8264
 96  7 15 19 14 59.9820000  0  5 24  6 16  5 17
  17865784.387   -17996981.84749 -13738324.02349  17865786.7854   17865791.8984
  15821230.897   -43587101.62749 -33931504.48949  15821233.0244   15821237.0284
  15781504.422   -38057221.37349 -29613377.50849  15781504.2634   15781509.1214
  16770901.003   -27280452.11649 -21238483.47349  16770903.1904   16770908.0454
  18188775.825   -22892941.80749 -17387805.08049  18188776.5664   18188783.0194
 96  7 15 19 15 29.9820000  0  5 24  6 16  5 17
  17867820.269   -17986294.30149 -13729996.10349  17867819.6764   17867825.8604
  15797968.855   -43709351.56949 -34026764.17949  15797969.5824   15797973.8144
  15764739.494   -38145309.30049 -29682017.44749  15764741.6044   15764746.5194
  16774711.170   -27260438.07849 -21222888.14649  16774711.3924   16774716.7004
  18158636.667   -23051329.06449 -17511223.73649  18158637.0814   18158642.4814
 96  7 15 19 15 59.9820000  0  5 24  6 16  5 17
  17869863.355   -17975551.25349 -13721624.93349  17869865.2394   17869869.8614
  15774748.805   -43831370.19649 -34121843.62549  15774750.0984   15774754.5344
  15748087.858   -38232820.23349 -29750207.77649  15748088.9544   15748093.8194
  16778581.588   -27240099.37949 -21207039.85649  16778582.0264   16778586.9994
  18128531.935   -23209531.72149 -17634498.54749  18128532.0504   18128537.9824
 96  7 15 19 16 29.9820000  0  5 24  6 16  5 17
  17871918.368   -17964748.09449 -13713206.93349  17871921.0244   17871925.6994
  15751572.011   -43953162.79349 -34216746.93649  15751573.6434   15751578.2424
  15731541.287   -38319770.20349 -29817960.99449  15731542.8994   15731547.8924
  16782512.899   -27219436.79249 -21190939.16349  16782513.8674   16782518.6444
  18098462.843   -23367535.05049 -17757618.03149  18098464.4144   18098471.7864
 96  7 15 19 16 59.9820000  0  5 24  6 16  5 17
  17873984.523   -17953894.06049 -13704749.28549  17873985.3834   17873990.5624
  15728436.988   -44074739.59449 -34311482.10749  15728438.3994   15728442.6604
  15715104.318   -38406145.75249 -29885266.61349  15715106.2164   15715110.9554
  16786508.875   -27198448.49849 -21174584.66849  16786507.7034   16786512.3824
  18068432.438   -23525338.35849 -17880581.64449  18068435.5474   18068442.5134
 96  7 15 19 17 29.9820000  0  5 24  6 16  5 17
  17876063.850   -17942969.63549 -13696236.79049  17876065.4394   17876070.1544
  15705341.782   -44196099.63449 -34406048.36649  15705344.3584   15705348.9444
  15698779.802   -38491942.51349 -29952121.22049  15698779.9554   15698784.5894
  16790560.026   -27177132.55349 -21157974.88049  16790564.2094   16790569.3024
  18038450.765   -23682925.69849 -18003377.01049  18038448.7454   18038454.0394
 96  7 15 19 17 59.9820000  0  5 24  6 16  5 17
  17878156.271   -17931960.62449 -13687658.37849  17878160.3144   17878165.7954
  15682290.060   -44317240.16949 -34500443.58649  15682291.7774   15682296.1944
  15682565.488   -38577132.30849 -30018502.87049  15682568.4984   15682573.5804
  16794680.300   -27155495.14949 -21141114.56849  16794681.4944   16794687.0264
  18008497.840   -23840282.88549 -18125992.99949  18008503.9444   18008508.5504
 96  7 15 19 18 29.9820000  0  5 24  6 16  5 17
  17880269.340   -17920871.99649 -13679017.93049  17880270.4094   17880275.0344
  15659280.626   -44438163.25249 -34594669.36049  15659280.8264   15659285.4204
  15666480.187   -38661678.68049 -30084383.15349  15666479.8334   15666484.9294
  16798855.825   -27133539.08949 -21124005.98049  16798859.8544   16798864.6254
  17978605.934   -23997405.12849 -18248425.93149  17978604.7304   17978609.6614
 96  7 15 19 18 59.9820000  0  5 24  6 16  5 17
  17882392.480   -17909716.22349 -13670325.16049  17882392.7964   17882398.4164
  15636307.219   -44558873.86949 -34688729.58749  15636310.5934   15636314.6864
  15650513.621   -38745563.50949 -30149747.95549  15650517.0164   15650522.0414
  16803096.475   -27111259.78049 -21106645.51249  16803099.8254   16803104.5294
  17948745.588   -24154295.41249 -18370678.16649  17948749.4104   17948754.8764
 96  7 15 19 19 29.9820000  0  5 24  6 16  5 17
  17884526.265   -17898495.56949 -13661581.82849  17884527.8714   17884533.7664
  15613380.336   -44679369.08449 -34782621.95749  15613381.3024   15613385.3004
  15634680.866   -38828781.56449 -30214593.18949  15634680.8504   15634686.2664
  16807393.434   -27088674.32849 -21089046.47749  16807397.0744   16807402.8224
  17918936.967   -24310959.78549 -18492754.33749  17918937.7904   17918943.8314
 96  7 15 19 19 59.9820000  0  5 24  6 16  5 17
  17886667.947   -17887230.41949 -13652803.84049  17886672.2364   17886677.1944
  15590492.342   -44799645.15449 -34876343.56049  15590493.6894   15590497.6584
  15618969.648   -38911338.72749 -30278923.43649  15618970.9744   15618976.1974
  16811753.968   -27065784.54149 -21071210.30449  16811753.1774   16811758.5664
  17889160.526   -24467413.09549 -18614666.02549  17889165.1514   17889171.0964
 96  7 15 19 20 29.9820000  0  5 24  6 16  5 17
  17888817.985   -17875932.87049 -13644000.57049  17888822.9904   17888827.4164
  15567643.225   -44919717.59249 -34969906.50549  15567644.4434   15567648.7034
  15603379.153   -38993274.51049 -30342769.48649  15603379.4624   15603384.3944
  16816165.026   -27042594.92049 -21053140.49049  16816165.5844   16816171.3024
  17859429.941   -24623670.13449 -18736424.78449  17859430.2374   17859435.9954
 96  7 15 19 20 59.9810000  0  5 24  6 16  5 17
  17890974.370   -17864601.71949 -13635171.14949  17890979.2494   17890983.6444
  15544832.828   -45039581.45849 -35063306.90949  15544835.3904   15544839.2954
  15587897.701   -39074622.58749 -30406157.58449  15587899.1834   15587903.9464
  16820633.112   -27019116.90749 -21034845.98149  16820633.0914   16820638.2304
  17829730.515   -24779737.06449 -18858035.40049  17829730.5264   17829738.0404
 96  7 15 19 21 29.9810000  0  5 24  6 16  5 17
  17893141.842   -17853223.92549 -13626305.37649  17893142.9904   17893148.9194
  15522064.513   -45159228.46849 -35156538.34449  15522067.0454   15522071.2514
  15572525.411   -39155400.50949 -30469101.41149  15572527.6084   15572532.8434
  16825154.231   -26995351.58349 -21016327.57649  16825156.2594   16825160.8074
  17800063.184   -24935620.81049 -18979503.27149  17800067.8084   17800074.0004
 96  7 15 19 21 59.9810000  0  5 24  6 16  5 17
  17895316.080   -17841803.05349 -13617406.03049  17895316.5274   17895321.6774
  15499341.562   -45278648.84849 -35249593.18249  15499342.0984   15499346.1414
  15557260.968   -39235623.56249 -30531612.87549  15557261.9904   15557267.3344
  16829735.962   -26971285.86049 -20997575.10449  16829735.9724   16829741.0234
  17770440.962   -25091310.37649 -19100819.83849  17770440.6124   17770447.2874
 96  7 15 19 22 29.9810000  0  5 24  6 16  5 17
  17897499.541   -17830326.24249 -13608463.10549  17897501.1014   17897505.3214
  15476659.234   -45397832.34849 -35342463.44249  15476662.0394   15476666.1364
  15542103.294   -39315280.75149 -30593683.42049  15542103.6144   15542108.6984
  16834369.651   -26946923.55149 -20978591.51649  16834372.6864   16834376.8804
  17740854.880   -25246792.07149 -19221974.42049  17740854.8764   17740859.8784
 96  7 15 19 22 59.9810000  0  5 24  6 16  5 17
  17899695.567   -17818798.37549 -13599480.39449  17899694.8534   17899700.5424
  15454029.217   -45516761.84449 -35435135.77549  15454030.7124   15454034.6574
  15527056.610   -39394349.04149 -30655295.06849  15527057.3264   15527062.3954
  16839063.328   -26922265.36649 -20959377.37649  16839064.0294   16839069.4834
  17711304.591   -25402061.93449 -19342963.98049  17711307.0134   17711313.7574
 96  7 15 19 23 29.9810000  0  5 24  6 16  5 17
  17901895.217   -17807220.64349 -13590458.82749  17901897.1824   17901902.9754
  15431445.511   -45635435.93649 -35527609.09149  15431448.0074   15431451.9704
  15512126.672   -39472809.72049 -30716433.26049  15512126.5584   15512131.7084
  16843811.273   -26897303.57349 -20939926.66549  16843813.3814   16843819.3814
  17681804.544   -25557105.79049 -19463777.40249  17681803.7294   17681809.7704
 96  7 15 19 23 59.9810000  0  5 24  6 16  5 17
  17904104.967   -17795590.27249 -13581396.23249  17904110.4204   17904116.8374
  15408911.993   -45753859.02549 -35619886.81749  15408912.7164   15408916.6414
  15497313.266   -39550647.10249 -30777085.75649  15497314.5844   15497319.9934
  16848617.302   -26872051.24149 -20920249.55649  16848619.6414   16848625.4764
  17652344.248   -25711912.21449 -19584405.78649  17652344.8334   17652351.2934
 96  7 15 19 24 29.9810000  0  5 24  6 16  5 17
  17906328.742   -17783898.05649 -13572285.43349  17906335.7024   17906341.2114
  15386422.417   -45872037.74749 -35711974.13249  15386424.0404   15386428.0214
  15482622.495   -39627849.76049 -30837243.66149  15482623.3444   15482628.9524
  16853476.685   -26846522.86749 -20900357.35949  16853477.8174   16853483.1034
  17622929.102   -25866471.49049 -19704841.59849  17622933.3304   17622938.2844
 96  7 15 19 24 59.9810000  0  5 24  6 16  5 17
  17908569.807   -17772137.76649 -13563121.62349  17908573.3164   17908578.1774
  15363977.517   -45989977.23549 -35803875.03849  15363980.7724   15363985.0604
  15468051.531   -39704411.74849 -30896902.35449  15468054.2254   15468059.6304
  16858385.262   -26820714.27649 -20880246.82949  16858388.6164   16858394.5184
  17593572.537   -26020765.69149 -19825070.86749  17593571.8254   17593577.4084
 96  7 15 19 25 29.9810000  0  5 24  6 16  5 17
  17910824.673   -17760305.88049 -13553901.99649  17910824.5914   17910830.3364
  15341580.087   -46107680.80049 -35895592.09449  15341582.4384   15341586.5024
  15453606.508   -39780334.48449 -30956062.92649  15453606.4994   15453611.9804
  16863351.410   -26794627.85649 -20859919.78649  16863352.6944   16863357.9604
  17564261.441   -26174797.11449 -19945095.35949  17564260.8064   17564267.0734
 96  7 15 19 25 59.9810000  0  5 24  6 16  5 17
  17913086.849   -17748404.90149 -13544628.54149  17913089.7884   17913094.7694
  15319225.875   -46225158.48149 -35987133.14249  15319227.3414   15319231.3294
  15439278.160   -39855625.25249 -31014731.06049  15439279.5044   15439284.2524
  16868368.416   -26768269.08949 -20839380.52049  16868368.5184   16868373.0614
  17534994.072   -26328582.81949 -20064928.37649  17534996.5674   17535003.2534
 96  7 15 19 26 29.9810000  0  5 24  6 16  5 17
  17915359.748   -17736450.67449 -13535313.60949  17915365.1634   17915368.8404
  15296912.446   -46342420.36249 -36078506.03249  15296912.8324   15296917.2024
  15425069.903   -39930293.49449 -31072914.10849  15425070.3974   15425075.3254
  16873436.285   -26741638.22849 -20818629.23849  16873436.8124   16873442.2274
  17505773.844   -26482137.84249 -20184581.68549  17505775.3544   17505782.0114
 96  7 15 19 26 59.9810000  0  5 24  6 16  5 17
  17917645.072   -17724461.23149 -13525971.25549  17917646.3474   17917651.2384
  15274637.638   -46459469.88849 -36169713.45449  15274639.2554   15274643.6354
  15410979.385   -40004336.01449 -31130609.58549  15410980.4994   15410985.5954
  16878556.617   -26714734.86849 -20797665.61149  16878556.2484   16878561.7154
  17476590.499   -26635476.78549 -20304066.56349  17476596.9164   17476601.9514
 96  7 15 19 27 29.9810000  0  5 24  6 16  5 17
  17919930.811   -17712442.16649 -13516605.79249  17919932.6774   17919939.1344
  15252405.268   -46576296.87349 -36260747.46449  15252407.5654   15252411.9984
  15397008.310   -40077763.25449 -31187825.61349  15397008.2164   15397012.8594
  16883728.090   -26687557.84449 -20776488.74349  16883727.9974   16883732.0084
  17447453.144   -26788611.21849 -20423392.11549  17447455.2444   17447461.4624
 96  7 15 19 27 59.9810000  0  5 24  6 16  5 17
  17922222.621   -17700400.14149 -13507222.44149  17922225.1644   17922229.8324
  15230217.252   -46692893.01849 -36351601.59749  15230220.0954   15230224.5074
  15383147.289   -40150590.19149 -31244573.87249  15383149.2374   15383154.2214
  16888948.967   -26660107.08249 -20755098.60049  16888951.3084   16888955.4214
  17418352.365   -26941533.64149 -20542552.45549  17418356.5294   17418361.0724
 96  7 15 19 28 29.9810000  0  5 24  6 16  5 17
  17924517.183   -17688329.67349 -13497816.93449  17924521.7874   17924528.1014
  15208081.050   -46809227.59449 -36442251.91349  15208082.4824   15208086.5764
  15369407.363   -40222801.49449 -31300842.42249  15369407.7674   15369412.9644
  16894224.861   -26632376.98449 -20733490.79449  16894228.3204   16894233.8824
  17389295.839   -27094232.04049 -20661538.23449  17389297.8224   17389304.0524
 96  7 15 19 28 59.9810000  0  5 24  6 16  5 17
  17926821.083   -17676232.35249 -13488390.48649  17926822.7114   17926828.8184
  15185994.413   -46925286.97249 -36532687.79549  15185997.1724   15186001.0744
  15355779.815   -40294403.03549 -31356635.83449  15355782.7214   15355787.6494
  16899559.722   -26604364.71449 -20711663.10149  16899558.7374   16899563.8714
  17360282.731   -27246711.32649 -20780353.24549  17360282.5484   17360288.4404
 96  7 15 19 29 29.9810000  0  5 24  6 16  5 17
  17929130.730   -17664096.35849 -13478933.89149  17929132.9294   17929138.5754
  15163965.548   -47041056.91549 -36622898.14249  15163966.6904   15163971.0974
  15342268.033   -40365420.10649 -31411973.81249  15342268.6724   15342273.3264
  16904939.749   -26576081.34349 -20689624.18549  16904940.6344   16904945.7834
  17331305.999   -27398975.83449 -20899000.93549  17331307.4304   17331313.6604
 96  7 15 19 29 59.9810000  0  5 24  6 16  5 17
  17931445.106   -17651924.44049 -13469449.32749  17931449.5724   17931454.3784
  15141988.159   -47156546.22149 -36712889.81149  15141989.9014   15141993.9514
  15328866.797   -40435842.15549 -31466848.13949  15328867.5004   15328872.6614
  16910371.815   -26547539.12249 -20667383.52749  16910373.2194   16910377.5624
  17302369.303   -27551036.16149 -21017489.50449  17302372.0224   17302378.2444
 96  7 15 19 30 29.9810000  0  5 24  6 16  5 17
  17933765.751   -17639720.43849 -13459939.75349  17933771.0744   17933776.7634
  15120060.428   -47271779.37649 -36802681.87849  15120061.8804   15120065.8844
  15315581.159   -40505655.43149 -31521248.08549  15315582.4874   15315587.6574
  16915845.822   -26518755.67749 -20644954.90749  16915849.9604   16915854.2154
  17273469.201   -27702897.80849 -21135823.23649  17273472.8124   17273480.1144
 96  7 15 19 30 59.9810000  0  5 24  6 16  5 17
  17936097.869   -17627497.13349 -13450415.13249  17936097.1244   17936103.0324
  15098176.721   -47386776.88949 -36892290.33349  15098178.6434   15098182.6354
  15302409.066   -40574874.78849 -31575185.25249  15302410.7494   15302415.5144
  16921368.216   -26489745.02149 -20622349.25149  16921370.0654   16921375.0994
  17244613.173   -27854560.27449 -21254001.79749  17244612.0884   17244617.7944
 96  7 15 19 31 29.9810000  0  5 24  6 16  5 17
  17938423.064   -17615261.71649 -13440881.10549  17938426.1094   17938432.3474
  15076333.987   -47501560.58349 -36981732.17849  15076335.7014   15076339.9894
  15289350.753   -40643498.44449 -31628658.23349  15289352.2784   15289356.9984
  16926931.178   -26460517.78749 -20599574.84749  16926931.9904   16926937.5134
  17215788.584   -28006028.70749 -21372029.15549  17215789.7804   17215795.3474
 96  7 15 19 31 59.9800000  0  5 24  6 16  5 17
  17940751.668   -17603021.91549 -13431343.62449  17940753.6354   17940760.6504
  15054531.314   -47616141.65249 -37071016.12749  15054531.9794   15054535.8894
  15276412.353   -40711493.01049 -31681641.00549  15276413.1664   15276418.1704
  16932532.582   -26431072.26449 -20576630.33449  16932535.2464   16932540.7894
  17187003.522   -28157288.98749 -21489894.28749  17187005.3814   17187010.7484
 96  7 15 19 32 29.9800000  0  5 24  6 16  5 17
  17943085.417   -17590775.21249 -13421800.79449  17943085.6014   17943091.4664
  15032766.267   -47730520.73349 -37160142.68249  15032766.3544   15032770.4524
  15263589.543   -40778869.18749 -31734141.92049  15263591.9194   15263597.0074
  16938181.001   -26401400.47649 -20553509.53649  16938181.2194   16938186.5594
  17158262.999   -28308341.23749 -21607597.33749  17158260.3524   17158266.9864
 96  7 15 19 32 59.9800000  0  5 24  6 16  5 17
  17945416.160   -17578518.77549 -13412250.37749  17945418.2034   17945423.5544
  15011043.447   -47844663.80749 -37249085.33249  15011045.7364   15011049.8224
  15250885.678   -40845636.56849 -31786168.45549  15250886.4904   15250891.6754
  16943871.708   -26371493.71849 -20530205.62049  16943873.3414   16943878.1454
  17129554.728   -28459183.87549 -21725137.04749  17129556.1144   17129562.5154
 96  7 15 19 33 29.9800000  0  5 24  6 16  5 17
  17947749.546   -17566245.49049 -13402686.81249  17947752.8934   17947759.3644
  14989370.201   -47958559.71549 -37337835.38749  14989371.9094   14989375.9244
  15238298.665   -40911787.62649 -31837714.73449  15238298.2784   15238303.4844
  16949609.710   -26341355.04749 -20506721.01049  16949608.1804   16949612.9344
  17100891.797   -28609810.81249 -21842508.68749  17100893.3104   17100898.8604
 96  7 15 19 33 59.9800000  0  5 24  6 16  5 17
  17950086.329   -17553955.01249 -13393109.84849  17950093.7274   17950098.6554
  14967747.859   -48072185.34249 -37426374.83749  14967749.6804   14967753.6904
  15225823.766   -40977330.38949 -31888787.02149  15225825.6424   15225831.0204
  16955383.422   -26310982.68849 -20483054.28049  16955388.2194   16955393.2004
  17072274.673   -28760206.72149 -21959700.28449  17072273.3044   17072279.6264
 96  7 15 19 34 29.9800000  0  5 24  6 16  5 17
  17952424.925   -17541659.80549 -13383529.21949  17952431.7264   17952438.4404
  14946180.276   -48185523.23549 -37514690.07949  14946182.3484   14946186.2874
  15213462.845   -41042290.17549 -31939405.03449  15213464.4924   15213469.4624
  16961212.271   -26280370.53749 -20459200.70749  16961213.2844   16961219.3454
  17043693.089   -28910372.24449 -22076712.38549  17043697.7524   17043705.3254
 96  7 15 19 34 59.9800000  0  5 24  6 16  5 17
  17954768.579   -17529367.61149 -13373950.92549  17954772.9284   17954777.9224
  14924667.188   -48298580.88249 -37602786.94449  14924667.8734   14924672.1754
  15201211.532   -41106677.48549 -31989576.95949  15201212.0574   15201216.9044
  16967082.765   -26249534.70049 -20435172.84149  16967081.4014   16967085.6864
  17015161.379   -29060313.62149 -22193549.80449  17015165.3024   17015170.5344
 96  7 15 19 35 29.9800000  0  5 24  6 16  5 17
  17957110.451   -17517067.25449 -13364366.26949  17957111.4934   17957118.5224
  14903203.058   -48411372.18449 -37690676.27049  14903204.8344   14903208.5434
  15189067.611   -41170490.58049 -32039301.44449  15189068.6884   15189073.9094
  16972986.719   -26218475.51649 -20410970.92649  16972992.2424   16972996.4974
  16986674.706   -29210027.16949 -22310209.69949  16986675.8324   16986681.4304
 96  7 15 19 35 59.9800000  0  5 24  6 16  5 17
  17959452.925   -17504763.24549 -13354778.77949  17959454.0124   17959461.3354
  14881787.709   -48523904.72849 -37778363.96949  14881790.1664   14881794.2614
  15177031.874   -41233747.77849 -32088592.76749  15177031.8214   15177036.5464
  16978943.332   -26187192.00349 -20386594.22149  16978943.8514   16978950.6644
  16958229.255   -29359522.29349 -22426699.40549  16958228.1834   16958233.8624
 96  7 15 19 36 29.9800000  0  5 24  6 16  5 17
  17961794.260   -17492449.70449 -13345183.85449  17961797.1834   17961802.8374
  14860421.899   -48636193.68449 -37865861.85749  14860422.4884   14860426.7594
  15165099.775   -41296443.44249 -32137446.52749  15165100.9674   15165105.8004
  16984935.319   -26155699.00749 -20362054.28849  16984937.7484   16984942.9274
  16929815.289   -29508814.37249 -22543030.89249  16929818.3614   16929824.2394
 96  7 15 19 36 59.9800000  0  5 24  6 16  5 17
  17964143.804   -17480101.38249 -13335561.80649  17964147.6804   17964152.7994
  14839099.021   -48748242.05549 -37953172.27849  14839100.4374   14839104.5654
  15153279.700   -41358551.88949 -32185842.71449  15153281.5704   15153286.8724
  16990969.123   -26124005.58349 -20337358.17049  16990968.7734   16990974.6204
  16901449.508   -29657890.45749 -22659194.07149  16901449.5744   16901456.0704
 96  7 15 19 37 29.9800000  0  5 24  6 16  5 17
  17966504.235   -17467717.91249 -13325912.41649  17966504.2404   17966508.4424
  14817824.967   -48860044.65349 -38040291.18949  14817825.1624   14817829.1894
  15141576.356   -41420062.24549 -32233772.85849  15141576.8164   15141581.9084
  16997038.113   -26092111.88349 -20312505.99949  16997038.6834   16997043.1494
  16873122.630   -29806745.74749 -22775185.17649  16873124.4794   16873129.5404
 96  7 15 19 37 59.9800000  0  5 24  6 16  5 17
  17968857.145   -17455312.91249 -13316246.20749  17968864.2104   17968870.4824
  14796593.084   -48971603.41649 -38127220.09449  14796596.0844   14796600.5034
  15129987.198   -41480956.83349 -32281223.19249  15129989.1274   15129994.1584
  17003141.364   -26060032.42149 -20287509.06049  17003142.9374   17003148.7294
  16844839.600   -29955385.00149 -22891007.94449  16844838.3734   16844843.7144
 96  7 15 19 38 29.9800000  0  5 24  6 16  5 17
  17971227.328   -17442885.10449 -13306562.24349  17971229.6804   17971235.3544
  14775412.153   -49082911.58249 -38213953.72649  14775414.6774   14775419.2524
  15118521.709   -41541215.75949 -32328178.20049  15118522.0894   15118527.2324
  17009281.813   -26027770.55049 -20262370.01749  17009282.4724   17009287.0914
  16816591.528   -30103806.55149 -23006661.08749  16816595.4334   16816600.7234
 96  7 15 19 38 59.9800000  0  5 24  6 16  5 17
  17973598.500   -17430437.17749 -13296862.60449  17973597.4454   17973603.4184
  14754279.717   -49193968.30149 -38300491.42849  14754281.4594   14754285.9574
  15107173.226   -41600844.79049 -32374642.38549  15107175.3204   15107180.3774
  17015453.651   -25995322.49549 -20237085.86349  17015456.5664   17015461.4744
  16788390.507   -30252004.24149 -23122139.79049  16788393.9764   16788400.1424
 96  7 15 19 39 29.9800000  0  5 24  6 16  5 17
  17975966.510   -17417985.21249 -13287159.80349  17975968.5484   17975973.1424
  14733196.680   -49304764.69549 -38386826.27749  14733197.7594   14733202.3014
  15095946.060   -41659855.04149 -32420624.40049  15095946.4194   15095951.2184
  17021667.162   -25962673.86549 -20211645.43049  17021669.5394   17021675.4414
  16760230.677   -30399987.58249 -23237451.48249  16760234.3464   16760239.3974
 96  7 15 19 39 59.9800000  0  5 24  6 16  5 17
  17978335.175   -17405534.21249 -13277457.77949  17978337.4364   17978342.4914
  14712161.815   -49415301.87649 -38472959.14249  14712163.1074   14712167.6454
  15084830.707   -41718257.68149 -32466132.94649  15084832.0864   15084837.0594
  17027918.088   -25929817.77049 -20186043.37449  17027921.9884   17027927.1304
  16732111.501   -30547751.82049 -23352592.41849  16732115.4614   16732120.3294
 96  7 15 19 40 29.9800000  0  5 24  6 16  5 17
  17980703.121   -17393085.04949 -13267757.18149  17980705.2884   17980711.2794
  14691177.235   -49525574.23849 -38558885.65249  14691178.6914   14691183.2344
  15073829.645   -41776068.89249 -32511180.64649  15073831.2214   15073836.1204
  17034211.878   -25896746.24749 -20160273.41149  17034215.1924   17034220.6854
  16704041.106   -30695282.21849 -23467551.13549  16704041.7184   16704047.0194
 96  7 15 19 40 59.9800000  0  5 24  6 16  5 17
  17983073.134   -17380636.61849 -13258057.13049  17983074.5994   17983080.7664
  14670243.864   -49635578.15149 -38644602.98349  14670245.8664   14670250.2134
  15062940.530   -41833290.85849 -32555769.20149  15062942.1174   15062947.2604
  17040544.116   -25863460.19849 -20134336.32049  17040548.8024   17040553.9664
  16676009.557   -30842573.28449 -23582323.37649  16676012.6924   16676019.0094
 96  7 15 19 41 29.9800000  0  5 24  6 16  5 17
  17985440.805   -17368186.54149 -13248355.81849  17985443.9644   17985450.1874
  14649364.776   -49745301.50649 -38730101.69849  14649366.3244   14649370.5054
  15052166.083   -41889922.99749 -32599898.14149  15052165.3004   15052170.2154
  17046921.572   -25829970.29449 -20108240.38049  17046921.5264   17046927.8784
  16648028.758   -30989623.71149 -23696908.10149  16648029.2124   16648035.7184
 96  7 15 19 41 59.9800000  0  5 24  6 16  5 17
  17987808.701   -17355723.32849 -13238644.25349  17987815.1894   17987822.3494
  14628538.762   -49854739.94549 -38815378.40349  14628540.7744   14628545.0724
  15041502.124   -41945955.02949 -32643559.45749  15041502.7274   15041507.8374
  17053328.790   -25796296.24349 -20082000.92749  17053329.9304   17053336.1584
  16620091.916   -31136426.88749 -23811300.16749  16620093.3274   16620099.7834
 96  7 15 19 42 29.9800000  0  5 24  6 16  5 17
  17990189.406   -17343237.36349 -13228914.97949  17990191.2014   17990199.4894
  14607770.950   -49963879.57549 -38900422.27049  14607772.1264   14607776.4044
  15030952.632   -42001390.18949 -32686755.68349  15030954.1204   15030958.8694
  17059766.860   -25762441.86349 -20055620.99549  17059773.6614   17059777.7904
  16592202.696   -31282992.60649 -23925507.21849  16592202.9284   16592208.2634
 96  7 15 19 42 59.9790000  0  5 24  6 16  5 17
  17992570.681   -17330735.32749 -13219173.19849  17992571.1774   17992576.4604
  14587059.932   -50072711.16949 -38985226.11549  14587061.7484   14587066.4444
  15020517.616   -42056231.49149 -32729489.16649  15020517.6124   15020523.0254
  17066248.653   -25728410.68949 -20029103.25249  17066249.1634   17066254.6444
  16564354.555   -31429331.31749 -24039537.37649  16564356.0714   16564360.9084
 96  7 15 19 43 29.9790000  0  5 24  6 16  5 17
  17994948.924   -17318228.25149 -13209427.44849  17994949.7264   17994956.8724
  14566408.825   -50181241.15949 -39069794.94249  14566409.5944   14566414.1434
  15010190.635   -42110493.84949 -32771771.52449  15010191.9944   15010197.2614
  17072757.606   -25694204.01749 -20002448.77549  17072758.3614   17072763.5184
  16536547.348   -31575454.94849 -24153399.90749  16536549.8544   16536555.1074
 96  7 15 19 43 59.9790000  0  5 24  6 16  5 17
  17997329.277   -17305723.51149 -13199683.56049  17997329.5954   17997336.9564
  14545812.856   -50289471.49449 -39154130.27349  14545814.0364   14545818.4644
  14999974.779   -42164174.78249 -32813600.81949  14999977.1044   14999982.3024
  17079297.849   -25659814.11349 -19975651.52549  17079303.0634   17079308.3624
  16508784.993   -31721355.17349 -24267088.37449  16508785.3304   16508791.8774
 96  7 15 19 44 29.9790000  0  5 24  6 16  5 17
  17999704.632   -17293218.10849 -13189939.14949  17999709.3504   17999717.0024
  14525276.018   -50397396.89049 -39238227.98849  14525276.7074   14525281.0834
  14989868.990   -42217277.46449 -32854979.53749  14989871.4374   14989876.9384
  17085877.573   -25625233.60049 -19948705.74749  17085883.2824   17085889.3454
  16481063.668   -31867021.18549 -24380594.34149  16481066.4884   16481071.4784
 96  7 15 19 44 59.9790000  0  5 24  6 16  5 17
  18002089.012   -17280714.74349 -13180196.31049  18002089.4484   18002095.9424
  14504792.844   -50505024.68949 -39322093.80449  14504795.5354   14504800.2904
  14979878.245   -42269783.09449 -32895893.02249  14979880.0894   14979885.2734
  17092493.894   -25590470.51949 -19921617.69549  17092499.3004   17092504.3514
  16453394.723   -32012432.56549 -24493901.89449  16453395.5934   16453401.7534
 96  7 15 19 45 29.9790000  0  5 24  6 16  5 17
  18004467.325   -17268210.87349 -13170453.09249  18004468.1964   18004474.7834
  14484368.283   -50612363.92049 -39405734.76649  14484369.6034   14484374.1674
  14970003.557   -42321681.34849 -32936333.22049  14970004.4474   14970009.5024
  17099147.919   -25555537.47849 -19894397.21849  17099145.7954   17099150.8884
  16425772.115   -32157577.36749 -24607001.71049  16425775.1434   16425781.2954
 96  7 15 19 45 59.9790000  0  5 24  6 16  5 17
  18006847.122   -17255711.84549 -13160713.60749  18006846.9584   18006853.8644
  14463995.686   -50719424.82749 -39489158.84749  14463996.9154   14464001.1204
  14960242.153   -42372979.97949 -32976306.19249  14960242.6004   14960247.8384
  17105822.059   -25520444.01649 -19867051.74749  17105824.1054   17105829.2474
  16398206.155   -32302455.79949 -24719893.97449  16398205.7254   16398211.4374
 96  7 15 19 46 29.9790000  0  5 24  6 16  5 17
  18009225.122   -17243213.58849 -13150974.77449  18009224.1914   18009232.3714
  14443677.972   -50826189.13249 -39572351.81049  14443680.1754   14443684.7864
  14950593.618   -42423682.25649 -33015814.45549  14950594.3694   14950599.6004
  17112529.950   -25485190.19349 -19839581.32849  17112533.1634   17112538.4204
  16370684.284   -32447065.99749 -24832577.21649  16370686.7124   16370693.5994
 96  7 15 19 46 59.9790000  0  5 24  6 16  5 17
  18011600.111   -17230725.30149 -13141243.66649  18011602.4694   18011608.1884
  14423416.473   -50932660.32249 -39655316.37349  14423419.5174   14423423.7484
  14941058.858   -42473791.23549 -33054860.41649  14941058.7294   14941064.2644
  17119268.777   -25449777.84949 -19811987.35249  17119272.0564   17119276.3684
  16343215.975   -32591414.56549 -24945056.58949  16343218.1784   16343223.7104
 96  7 15 19 47 29.9790000  0  5 24  6 16  5 17
  18013973.564   -17218239.60449 -13131514.59449  18013978.0654   18013984.5044
  14403214.580   -51038827.90349 -39738044.35249  14403216.3074   14403220.7064
  14931631.278   -42523324.25849 -33093457.58549  14931632.8354   14931638.2944
  17126040.661   -25414210.51449 -19784272.60349  17126039.3654   17126047.1834
  16315795.344   -32735523.05849 -25057348.89049  16315795.3884   16315801.2884
 96  7 15 19 47 59.9790000  0  5 24  6 16  5 17
  18016348.946   -17205754.93149 -13121786.35249  18016352.1414   18016360.9004
  14383070.979   -51144683.62349 -39820529.32549  14383072.7504   14383077.0924
  14922310.680   -42572303.70749 -33131623.39849  14922312.3574   14922317.7864
  17132836.971   -25378492.35749 -19756440.33549  17132837.5484   17132842.3654
  16288410.946   -32879418.82549 -25169475.42349  16288413.4554   16288418.9824
 96  7 15 19 48 29.9790000  0  5 24  6 16  5 17
  18018730.289   -17193264.86549 -13112053.87149  18018730.6354   18018736.5884
  14362986.678   -51250227.91149 -39902771.62549  14362988.3064   14362992.7304
  14913097.119   -42620722.69049 -33169352.47549  14913098.3714   14913103.9934
  17139656.283   -25342637.11249 -19728501.25849  17139658.9584   17139665.6974
  16261065.065   -33023123.64649 -25281453.16649  16261067.5084   16261073.1624
 96  7 15 19 48 59.9790000  0  5 24  6 16  5 17
  18021108.177   -17180767.77849 -13102315.92549  18021109.0954   18021115.8854
  14342957.277   -51355480.02349 -39984786.25549  14342959.6154   14342964.0424
  14903991.414   -42668574.25549 -33206639.41649  14903993.0004   14903997.7654
  17146507.498   -25306652.70449 -19700461.48849  17146506.1844   17146512.2724
  16233755.399   -33166635.48149 -25393280.55649  16233757.9004   16233763.7304
 96  7 15 19 49 29.9790000  0  5 24  6 16  5 17
  18023484.646   -17168281.08749 -13092586.11649  18023485.7404   18023492.2994
  14322980.881   -51460451.95049 -40066582.55449  14322984.2334   14322988.4714
  14894992.779   -42715864.05049 -33243488.60949  14894994.0344   14894999.0154
  17153374.541   -25270549.26749 -19672329.01249  17153379.4564   17153383.0954
  16206481.321   -33309966.81349 -25504967.27749  16206482.6734   16206487.8594
 96  7 15 19 49 59.9790000  0  5 24  6 16  5 17
  18025856.992   -17155824.00549 -13082879.33049  18025856.1674   18025861.1044
  14303058.971   -51565151.38549 -40148166.52349  14303060.4894   14303064.6114
  14886102.494   -42762586.92149 -33279896.03749  14886103.0804   14886108.2044
  17160264.891   -25234325.22549 -19644102.58949  17160271.5494   17160276.7754
  16179240.574   -33453115.49649 -25616511.67249  16179242.3854   16179249.0714
 96  7 15 19 50 29.9790000  0  6 24  6 16  5 17 23
  18028215.054   -17143411.11449 -13073207.00649  18028217.7464   18028223.2644
  14283184.240   -51669592.87849 -40229549.50949  14283185.6174   14283190.1044
  14877321.486   -42808733.05649 -33315854.07449  14877321.9704   14877326.9664
  17167186.484   -25197982.33049 -19615783.51449  17167186.9174   17167192.0844
  16152040.079   -33596058.51149 -25727895.82249  16152041.1684   16152046.9914
  18505220.999    -5347453.28559  -4128245.21959  18505227.3394   18505235.2414
 96  7 15 19 50 59.9790000  0  6 24  6 16  5 17 23
  18030570.380   -17131053.03749 -13063577.39249  18030570.0834   18030577.9424
  14263360.489   -51773767.07749 -40310724.20649  14263362.0794   14263366.2544
  14868647.263   -42854308.13549 -33351367.12549  14868649.2074   14868654.0744
  17174125.606   -25161503.27949 -19587358.33749  17174128.7794   17174134.3814
  16124882.927   -33738775.62149 -25839103.94049  16124883.0544   16124889.3814
  18471069.650    -5526956.72949  -4268117.96349  18471069.2414   18471076.2374
 96  7 15 19 51 29.9790000  0  6 24  6 16  5 17 23
  18032905.500   -17118758.58649 -13053997.33949  18032909.8434   18032915.5294
  14243588.235   -51877668.44749 -40391686.31149  14243590.2034   14243594.4994
  14860079.553   -42899325.86949 -33386445.87649  14860082.1484   14860087.5644
  17181093.717   -25124897.16149 -19558834.19849  17181093.9944   17181101.7504
  16097762.046   -33881281.79949 -25950147.68849  16097764.9484   16097770.7744
  18436919.555    -5706410.07249  -4407951.67349  18436920.6714   18436928.8144
 96  7 15 19 51 59.9790000  0  6 24  6 16  5 17 23
  18035235.391   -17106510.81649 -13044453.68249  18035238.6784   18035246.3284
  14223868.194   -51981297.72949 -40472436.39549  14223870.4344   14223874.7334
  14851617.722   -42943794.84449 -33421097.02949  14851620.1524   14851625.7644
  17188086.612   -25088165.95849 -19530212.57649  17188085.2854   17188090.2524
  16070687.628   -34023571.23549 -26061022.54049  16070688.0044   16070694.4374
  18402777.792    -5885805.95249  -4547740.60949  18402783.6064   18402790.3834
 96  7 15 19 52 29.9790000  0  6 24  6 16  5 17 23
  18037561.300   -17094310.41649 -13034946.91449  18037562.2594   18037569.2274
  14204199.284   -52084658.42849 -40552977.20049  14204201.4184   14204205.6204
  14843262.129   -42987719.82549 -33455324.27949  14843261.5024   14843267.1304
  17195093.164   -25051320.25549 -19501501.71849  17195096.8764   17195101.5924
  16043651.039   -34165632.82549 -26171719.83949  16043655.1214   16043660.1544
  18368652.371    -6065162.89449  -4687499.21749  18368652.4984   18368659.3774
 96  7 15 19 52 59.9790000  0  6 24  6 16  5 17 23
  18039870.711   -17082155.96449 -13025475.93249  18039875.5664   18039880.9124
  14184585.122   -52187739.25549 -40633299.91749  14184585.7274   14184590.2824
  14835004.973   -43031103.70049 -33489129.89649  14835005.8234   14835010.9304
  17202126.325   -25014368.81749 -19472708.48149  17202128.4844   17202133.7374
  16016657.322   -34307492.13149 -26282259.52449  16016660.2044   16016666.4144
  18334526.150    -6244503.03549  -4827244.71449  18334525.2424   18334531.6484
 96  7 15 19 53 29.9790000  0  6 24  6 16  5 17 23
  18042184.380   -17070028.53049 -13016026.01049  18042181.6004   18042189.4304
  14165022.061   -52290535.10649 -40713400.58049  14165024.4574   14165028.8004
  14826853.282   -43073934.59949 -33522504.62649  14826855.5614   14826860.4954
  17209177.717   -24977315.85249 -19443836.13949  17209179.0314   17209184.5314
  15989702.045   -34449148.85049 -26392641.35649  15989703.0494   15989709.1184
  18300399.926    -6423816.57649  -4966969.52149  18300402.8414   18300410.4634
 96  7 15 19 53 59.9780000  0  6 24  6 16  5 17 23
  18044475.939   -17057930.65149 -13006599.12049  18044485.0044   18044489.9274
  14145517.424   -52393037.67949 -40793272.71449  14145518.8894   14145523.1164
  14818812.341   -43116200.71549 -33555439.27049  14818812.3574   14818817.5824
  17216246.514   -24940165.48249 -19414887.87849  17216248.7274   17216254.5334
  15962789.271   -34590586.27349 -26502852.29949  15962788.7764   15962793.9914
  18266289.660    -6603098.16749  -5106669.37949  18266285.1624   18266293.5004
 96  7 15 19 54 29.9780000  0  6 24  6 16  5 17 23
  18046781.154   -17045863.43549 -12997196.15649  18046780.4344   18046787.8784
  14126070.966   -52495235.95749 -40872907.73249  14126070.8004   14126075.5684
  14810875.087   -43157899.68249 -33587931.97649  14810877.1624   14810882.7644
  17223335.381   -24902937.64049 -19385879.27749  17223332.1964   17223337.9924
  15935914.023   -34731815.58049 -26612901.07349  15935913.5274   15935919.1284
  18232173.238    -6782369.90049  -5246361.59749  18232171.6244   18232180.7524
 96  7 15 19 54 59.9780000  0  6 24  6 16  5 17 23
  18049072.166   -17033801.03349 -12987796.89149  18049076.9714   18049081.2284
  14106681.951   -52597117.29949 -40952295.79249  14106683.8184   14106688.3104
  14803048.573   -43199034.40749 -33619985.02149  14803049.7274   14803055.0734
  17230430.355   -24865628.88649 -19356807.61749  17230432.3024   17230438.1564
  15909077.823   -34872826.18349 -26722779.44149  15909079.6774   15909086.1234
  18198074.728    -6961600.36849  -5386021.66949  18198065.4944   18198073.6564
 96  7 15 19 55 29.9780000  0  6 24  6 16  5 17 23
  18051367.936   -17021740.60349 -12978399.21549  18051371.9694   18051377.1304
  14087352.447   -52698694.84549 -41031447.12849  14087354.2824   14087358.6354
  14795323.547   -43239625.42049 -33651614.39049  14795325.5944   14795331.0774
  17237545.876   -24828245.66049 -19327677.88949  17237546.3234   17237551.2044
  15882288.470   -35013598.36949 -26832472.03849  15882291.7954   15882297.3354
  18163966.664    -7140776.45649  -5525639.30549  18163968.6534   18163977.6474
 96  7 15 19 55 59.9780000  0  6 24  6 16  5 17 23
  18053664.225   -17009686.37949 -12969006.35449  18053664.6274   18053671.0694
  14068081.140   -52799964.56449 -41110358.60049  14068083.3714   14068087.7544
  14787699.393   -43279691.45649 -33682834.68049  14787701.3024   14787706.5144
  17244670.372   -24790789.11349 -19298491.06349  17244673.7464   17244680.3584
  15855546.056   -35154132.58449 -26941979.18449  15855549.4064   15855554.7124
  18129877.291    -7319914.06049  -5665226.96949  18129880.5394   18129888.3834
 96  7 15 19 56 29.9780000  0  6 24  6 16  5 17 23
  18055955.140   -16997633.90949 -12959614.88249  18055958.7344   18055964.8034
  14048869.017   -52900933.59749 -41189035.76749  14048869.6144   14048873.9404
  14780173.460   -43319242.34449 -33713653.55649  14780175.0954   14780180.2734
  17251818.209   -24753234.90749 -19269228.16649  17251820.1614   17251824.7414
  15828851.099   -35294430.09149 -27051301.89349  15828851.7184   15828857.1744
  18095796.401    -7499005.61549  -5804778.75749  18095800.6874   18095807.8634
 96  7 15 19 56 59.9780000  0  6 24  6 16  5 17 23
  18058252.672   -16985592.75749 -12950232.22949  18058250.4844   18058256.3364
  14029709.370   -53001611.32449 -41267485.95049  14029710.9124   14029715.2894
  14772744.726   -43358279.53249 -33744072.13949  14772746.3344   14772751.5484
  17258990.053   -24715548.23649 -19239861.97649  17258990.9094   17258997.8184
  15802195.643   -35434482.54649 -27160433.64649  15802199.7184   15802206.6614
  18061730.765    -7678033.76449  -5944281.16049  18061732.6774   18061740.6394
 96  7 15 19 57 29.9780000  0  6 24  6 16  5 17 23
  18060532.232   -16973590.49249 -12940879.85849  18060532.9744   18060540.7514
  14010608.920   -53101987.77349 -41345701.36549  14010610.2054   14010614.4064
  14765418.173   -43396783.83649 -33774075.49449  14765419.3044   14765424.4434
  17266190.909   -24677723.94149 -19210388.60049  17266189.2344   17266195.7304
  15775594.778   -35574287.14849 -27269372.27749  15775595.8984   15775602.9224
  18027680.780    -7856993.74059  -6083730.43349  18027678.2514   18027685.1894
 96  7 15 19 57 59.9780000  0  6 24  6 16  5 17 23
  18062805.534   -16961642.17449 -12931569.54849  18062806.6574   18062814.1524
  13991565.261   -53202060.60849 -41423680.19749  13991567.0424   13991571.2024
  14758195.070   -43434732.85949 -33803646.16449  14758197.8854   14758202.7904
  17273410.889   -24639762.97549 -19180808.70549  17273412.7464   17273419.1074
  15749032.149   -35713861.68949 -27378131.63949  15749036.3014   15749041.6874
  17993633.310    -8035871.96049  -6223115.96849  17993637.6164   17993646.6724
 96  7 15 19 58 29.9780000  0  6 24  6 16  5 17 23
  18065064.527   -16949746.95249 -12922300.62249  18065070.8924   18065077.8394
  13972580.476   -53301826.35049 -41501419.73749  13972582.2764   13972586.4274
  14751083.974   -43472108.58149 -33832770.10749  14751085.4094   14751090.5414
  17280658.261   -24601677.46349 -19151131.80149  17280660.5574   17280667.0844
  15722520.134   -35853200.24049 -27486707.09549  15722520.9434   15722526.7154
  17959613.146    -8214649.41849  -6362423.04249  17959616.7244   17959625.1964
 96  7 15 19 58 59.9780000  0  6 24  6 16  5 17 23
  18067321.783   -16937905.68849 -12913073.67849  18067323.9154   18067331.2554
  13953657.132   -53401265.51049 -41578904.79449  13953659.5494   13953663.7924
  14744082.181   -43508907.33949 -33861444.46949  14744083.0744   14744087.9844
  17287927.434   -24563501.61549 -19121384.46449  17287925.5484   17287931.0104
  15696047.054   -35992303.68649 -27595099.35249  15696050.7094   15696056.1634
  17925609.408    -8393331.03049  -6501655.41649  17925615.5904   17925622.0714
 96  7 15 19 59 29.9780000  0  6 24  6 16  5 17 23
  18069569.131   -16926108.80949 -12903881.38649  18069569.0004   18069575.1424
  13934799.903   -53500365.77349 -41656125.77649  13934801.1454   13934805.7064
  14737190.184   -43545124.74049 -33889665.81549  14737191.3204   14737196.4544
  17295205.427   -24525262.59849 -19091587.96249  17295200.3674   17295209.0864
  15669617.792   -36131187.28149 -27703320.29549  15669622.2064   15669627.6794
  17891631.703    -8571910.68649  -6640808.33849  17891632.1064   17891638.8154
 96  7 15 19 59 59.9780000  0  6 24  6 16  5 17 23
  18071809.788   -16914334.86449 -12894706.92549  18071810.1074   18071815.9334
  13916004.752   -53599132.55349 -41733086.90149  13916006.8134   13916011.1024
  14730402.908   -43580791.72549 -33917458.27449  14730403.6874   14730408.7554
  17302484.773   -24486972.95949 -19061751.97949  17302488.6594   17302494.7054
  15643230.906   -36269869.86049 -27811384.60449  15643231.4454   15643236.8924
  17857659.226    -8750404.49749  -6779894.37049  17857665.6904   17857673.6824
 96  7 15 20  0 29.9780000  0  6 24  6 16  5 17 23
  18074044.383   -16902574.44449 -12885543.01249  18074047.8874   18074054.3474
  13897277.075   -53697548.63049 -41809774.74849  13897278.7654   13897283.0664
  14723716.111   -43615930.48649 -33944839.12849  14723717.3624   14723722.2354
  17309783.561   -24448638.00349 -19031880.64649  17309784.6134   17309790.1864
  15616879.437   -36408342.77949 -27919285.53549  15616880.6854   15616886.7774
  17823719.303    -8928820.22949  -6918919.54449  17823714.4594   17823723.7984
 96  7 15 20  0 59.9780000  0  7 24  6 16 26  5 17 23
  18076282.244   -16890832.28459 -12876393.30459  18076283.3694   18076289.0124
  13878617.519   -53795608.33149 -41886184.91049  13878618.4474   13878622.7734
  14717127.406   -43650549.89849 -33971815.29749  14717129.1144   14717134.3094
  17950665.250    -2568158.59059  -1230076.26259  17950667.3194   17950675.4124
  17317083.674   -24410258.64349 -19001974.79549  17317086.1704   17317094.8484
  15590565.365   -36546612.36549 -28027028.04949  15590569.0004   15590574.5624
  17789773.637    -9107158.07249  -7057884.09349  17789777.9664   17789785.3534
 96  7 15 20  1 29.9780000  0  7 24  6 16 26  5 17 23
  18078503.995   -16879121.18949 -12867267.81859  18078511.2424   18078518.8484
  13860022.430   -53893321.57149 -41962325.09549  13860024.3614   13860028.6004
  14710638.117   -43684650.90649 -33998387.50949  14710640.0824   14710645.2054
  17921024.671    -2723931.44549  -1351457.71849  17921024.8454   17921032.1714
  17324399.441   -24371829.90949 -18972030.42249  17324398.9214   17324405.3004
  15564293.668   -36684680.27049 -28134613.37849  15564295.8334   15564301.5944
  17755852.366    -9285422.88249  -7196791.61649  17755854.2864   17755862.7344
 96  7 15 20  1 59.9780000  0  7 24  6 16 26  5 17 23
  18080730.866   -16867446.24549 -12858170.50049  18080732.6344   18080740.7054
  13841494.484   -53990689.38149 -42038196.11249  13841496.0774   13841500.1954
  14704245.529   -43718241.46449 -34024561.97049  14704247.9254   14704253.0884
  17891387.576    -2879678.47349  -1472819.03249  17891386.7674   17891392.9974
  17331724.092   -24333335.00649 -18942034.50849  17331725.6804   17331731.4204
  15538060.027   -36822530.66249 -28242029.24149  15538062.9264   15538069.4374
  17721942.895    -9463634.92549  -7335658.15849  17721943.3004   17721950.2064
 96  7 15 20  2 29.9780000  0  7 24  6 16 26  5 17 23
  18082941.725   -16855830.17049 -12849119.04849  18082944.0954   18082950.3984
  13823031.642   -54087711.09449 -42113797.44949  13823033.5234   13823037.6504
  14697956.082   -43751298.51949 -34050320.71649  14697957.1914   14697962.7624
  17861757.964    -3035378.22949  -1594143.48449  17861758.5074   17861764.5414
  17339059.128   -24294768.09349 -18911982.45749  17339064.3804   17339070.1004
  15511874.755   -36960153.51649 -28349267.79749  15511874.4614   15511880.0754
  17688047.318    -9641790.01749  -7474480.21749  17688041.4924   17688048.8654
 96  7 15 20  2 59.9780000  0  7 24  6 16 26  5 17 23
  18085138.789   -16844274.81049 -12840114.93349  18085143.0554   18085148.1994
  13804630.603   -54184409.67649 -42189146.99249  13804632.0934   13804636.4214
  14691768.123   -43783816.58949 -34075659.46949  14691769.2214   14691774.6694
  17832137.023    -3191033.47249  -1715433.21949  17832138.1884   17832145.4284
  17346415.557   -24256120.53949 -18881867.57849  17346419.4274   17346425.7074
  15485728.809   -37097542.25849 -28456323.93549  15485730.5764   15485736.0664
  17654144.987    -9819898.28649  -7613265.83849  17654147.5254   17654156.2334
 96  7 15 20  3 29.9780000  0  7 24  6 16 26  5 17 23
  18087328.933   -16832780.25349 -12831158.16749  18087330.4534   18087335.7764
  13786286.171   -54280812.36849 -42264265.96949  13786287.1714   13786291.6144
  14685679.439   -43815801.68549 -34100582.92149  14685682.8584   14685688.1274
  17802520.024    -3346654.68649  -1836696.46349  17802524.2874   17802530.6654
  17353789.978   -24217381.62349 -18851681.54149  17353791.2774   17353798.0184
  15459629.320   -37234687.67249 -28563190.45949  15459632.5324   15459637.8204
  17620263.417    -9997955.94749  -7752011.96149  17620264.3364   17620272.4584
 96  7 15 20  3 59.9780000  0  7 24  6 16 26  5 17 23
  18089507.046   -16821323.90649 -12822231.15549  18089510.5594   18089516.0764
  13767994.525   -54376924.28849 -42339158.36549  13767997.6534   13768001.8964
  14679694.517   -43847266.43849 -34125100.90449  14679695.0564   14679700.5624
  17772913.983    -3502230.95349  -1957924.69549  17772919.5144   17772926.1594
  17361180.576   -24178548.65749 -18821422.16749  17361180.2434   17361186.2134
  15433580.503   -37371585.94049 -28669864.40949  15433581.2774   15433587.3124
  17586391.352   -10175937.49549  -7890698.85849  17586396.1884   17586403.1514
 96  7 15 20  4 29.9780000  0  7 24  6 16 26  5 17 23
  18091679.187   -16809906.64449 -12813334.64949  18091681.8704   18091690.3934
  13749761.839   -54472747.85549 -42413826.07649  13749763.1534   13749767.3044
  14673804.698   -43878213.64449 -34149215.60949  14673806.3584   14673811.7424
  17743316.862    -3657772.74049  -2079125.98449  17743320.5744   17743326.6374
  17368585.842   -24139652.69849 -18791113.69949  17368582.9484   17368587.0964
  15407577.592   -37508239.21649 -28776347.46449  15407577.0744   15407582.1524
  17552543.534   -10353821.02749  -8029309.35749  17552545.2974   17552554.1494
 96  7 15 20  4 59.9770000  0  7 24  6 16 26  5 17 23
  18093852.913   -16798518.25449 -12804460.64749  18093850.6884   18093855.8834
  13731584.561   -54568266.44049 -42488256.14249  13731586.6374   13731590.6784
  14668014.696   -43908655.54249 -34172936.56449  14668013.2314   14668018.4554
  17713725.474    -3813274.84849  -2200296.38949  17713729.7804   17713735.1864
  17375990.506   -24100708.66349 -18760767.81949  17375993.2994   17376000.0374
  15381621.540   -37644642.88749 -28882635.99949  15381620.4854   15381626.0814
  17518721.457   -10531587.43549  -8167828.58549  17518718.1224   17518726.2424
 96  7 15 20  5 29.9770000  0  7 24  6 16 26  5 17 23
  18096009.620   -16787156.33049 -12795607.21149  18096010.1984   18096018.7844
  13713470.210   -54663459.36749 -42562432.44949  13713472.1434   13713476.2664
  14662312.113   -43938597.40649 -34196267.88849  14662315.4854   14662320.7214
  17684144.492    -3968732.11349  -2321431.85349  17684145.5114   17684153.5364
  17383412.629   -24061733.50549 -18730397.69649  17383410.7034   17383416.3484
  15355706.028   -37780822.91749 -28988750.27149  15355706.4314   15355712.2734
  17484915.050   -10709236.43449  -8306256.30649  17484912.6444   17484920.2534
 96  7 15 20  5 59.9770000  0  6  6 16 26  5 17 23
  13695423.479   -54758296.05449 -42636331.16449  13695425.4124   13695429.3754
  14656712.414   -43968030.57949 -34219202.82549  14656714.7264   14656719.7774
  17654571.684    -4124135.37549  -2442525.16349  17654574.1574   17654581.6344
  17390821.028   -24022755.27349 -18700025.13549  17390827.4094   17390834.1344
  15329828.124   -37916791.56149 -29094699.83049  15329831.6604   15329838.0644
  17451125.698   -10886768.48949  -8444592.92749  17451130.0784   17451137.5944
 96  7 15 20  6 29.9770000  0  6  6 16 26  5 17 23
  13677446.605   -54852765.21249 -42709943.49649  13677448.3974   13677452.5614
  14651210.077   -43996938.91649 -34241728.80149  14651213.5614   14651218.8094
  17625015.460    -4279473.91749  -2563568.12349  17625014.5664   17625020.7144
  17398243.804   -23983771.97149 -18669648.64849  17398246.4254   17398252.4404
  15303997.380   -38052548.07649 -29200484.10849  15303998.8254   15304004.4314
  17417359.474   -11064200.29349  -8582851.41249  17417365.4804   17417373.0034
 96  7 15 20  6 59.9770000  0  6  6 16 26  5 17 23
  13659538.332   -54946873.75149 -42783274.82349  13659540.0874   13659544.3464
  14645811.332   -44025323.04549 -34263846.29349  14645812.2744   14645817.1584
  17595468.966    -4434743.45949  -2684557.27249  17595467.0494   17595474.0864
  17405664.141   -23944771.57649 -18639258.86349  17405666.8994   17405673.3634
  15278205.635   -38188091.46149 -29306102.30249  15278206.2344   15278211.1894
  17383618.408   -11241537.60349  -8721036.30649  17383619.8414   17383627.4464
 96  7 15 20  7 29.9770000  0  6  6 16 26  5 17 23
  13641694.946   -55040639.36349 -42856338.93849  13641696.8744   13641701.2184
  14640508.042   -44053183.86649 -34285556.03249  14640510.6074   14640515.8124
  17565935.063    -4589948.66049  -2805496.28249  17565933.4434   17565939.6624
  17413091.506   -23905746.13749 -18608849.55849  17413094.3614   17413099.6814
  15252453.831   -38323407.85849 -29411543.62249  15252456.3124   15252461.9914
  17349889.442   -11418786.17949  -8859152.04149  17349889.3984   17349897.4184
 96  7 15 20  7 59.9770000  0  6  6 16 26  5 17 23
  13623915.566   -55134073.91049 -42929145.08049  13623917.1514   13623921.2484
  14635307.455   -44080524.16349 -34306860.16449  14635307.8514   14635312.9254
  17536405.548    -4745083.05549  -2926380.14349  17536410.1144   17536418.0404
  17420523.426   -23866674.73749 -18578404.42349  17420528.5714   17420534.9974
  15226751.817   -38458473.01449 -29516789.16949  15226753.4174   15226759.6494
  17316176.434   -11595946.12449  -8997198.72749  17316176.9394   17316184.9084
 96  7 15 20  8 29.9770000  0  6  6 16 26  5 17 23
  13606196.446   -55227185.22149 -43001699.34449  13606198.8274   13606202.8774
  14630200.848   -44107358.30349 -34327769.88849  14630201.4774   14630206.5494
  17506904.086    -4900139.54249  -3047203.29249  17506904.3434   17506911.3214
  17427974.271   -23827547.38249 -18547915.72949  17427974.9744   17427980.6124
  15201102.154   -38593266.86749 -29621823.30549  15201103.1464   15201109.0104
  17282479.053   -11773013.80949  -9135173.48249  17282482.3084   17282490.0734
 96  7 15 20  8 59.9770000  0  6  6 16 26  5 17 23
  13588541.911   -55319963.36349 -43073994.00249  13588543.7194   13588547.6884
  14625189.637   -44133694.44749 -34348291.57249  14625190.0244   14625195.1664
  17477412.641    -5055114.56549  -3167962.96149  17477414.1484   17477422.9294
  17435431.043   -23788368.36149 -18517386.69949  17435429.7414   17435435.9834
  15175504.041   -38727786.37149 -29726643.67249  15175504.8574   15175510.8824
  17248805.927   -11949968.86049  -9273060.52349  17248809.6194   17248815.4384
 96  7 15 20  9 29.9770000  0  6  6 16 26  5 17 23
  13570953.527   -55412387.77649 -43146013.02449  13570955.6474   13570959.8264
  14620271.967   -44159522.32249 -34368417.19649  14620274.7844   14620279.9664
  17447942.926    -5209995.29249  -3288649.13249  17447942.1504   17447947.7094
  17442887.318   -23749128.08449 -18486809.99549  17442898.1244   17442903.5514
  15149958.064   -38862030.55649 -29831249.50549  15149959.0534   15149964.6974
  17215159.867   -12126797.90049  -9410849.33549  17215160.5554   17215167.3734
 96  7 15 20  9 59.9770000  0  6  6 16 26  5 17 23
  13553435.499   -55504445.02649 -43217745.95749  13553437.8214   13553441.8504
  14615456.035   -44184836.63149 -34388142.64449  14615457.9324   14615463.2704
  17418486.119    -5364778.41049  -3409259.24049  17418486.9144   17418494.1324
  17450374.050   -23709834.52349 -18456191.76649  17450374.4454   17450381.8924
  15124461.998   -38996019.97949 -29935656.81949  15124461.9724   15124467.3414
  17181536.603   -12303478.83849  -9548522.71249  17181535.2154   17181545.9944
 96  7 15 20 10 29.9770000  0  6  6 16 26  5 17 23
  13535994.346   -55596107.54049 -43289171.29249  13535995.0614   13535999.5054
  14610740.798   -44209616.30249 -34407451.48949  14610742.7374   14610747.6294
  17389050.658    -5519456.90249  -3529787.84049  17389051.9254   17389059.8544
  17457855.048   -23670497.69049 -18425539.78649  17457860.0084   17457867.7654
  15099008.027   -39129768.83849 -30039876.68749  15099010.2104   15099015.8424
  17147948.866   -12479992.87049  -9686066.06749  17147949.5554   17147956.7784
 96  7 15 20 10 59.9770000  0  6  6 16 26  5 17 23
  13518625.490   -55687376.33849 -43360289.84449  13518627.1834   13518631.3124
  14606129.618   -44233850.90049 -34426335.60049  14606131.0034   14606135.5504
  17359639.923    -5674021.20949  -3650227.48849  17359640.6264   17359647.4254
  17465360.580   -23631112.50849 -18394850.12349  17465355.2364   17465363.2234
  15073600.886   -39263289.58649 -30143918.79549  15073601.9994   15073607.3314
  17114390.969   -12656346.00649  -9823484.05549  17114388.9454   17114396.3424
 96  7 15 20 11 29.9770000  0  6  6 16 26  5 17 23
  13501329.209   -55778267.61949 -43431114.22549  13501331.0644   13501335.2394
  14601619.762   -44257542.84649 -34444796.86449  14601622.5304   14601627.4074
  17330249.893    -5828462.43649  -3770571.19949  17330249.7104   17330258.5874
  17472853.808   -23591685.34449 -18364127.73849  17472857.5324   17472865.1944
  15048234.462   -39396587.90649 -30247787.58949  15048235.8314   15048241.4574
  17080850.839   -12832551.31849  -9960786.86749  17080858.4064   17080866.4704
 96  7 15 20 11 59.9770000  0  6  6 16 26  5 17 23
  13484104.882   -55868783.83449 -43501646.34149  13484106.3294   13484110.6754
  14597215.598   -44280696.84949 -34462838.95549  14597216.1384   14597221.4734
  17300885.443    -5982763.69549  -3890805.86249  17300887.5784   17300895.9574
  17480360.333   -23552226.62349 -18333380.77649  17480366.0984   17480372.2774
  15022908.906   -39529665.90449 -30351484.69249  15022912.3494   15022917.8724
  17047350.847   -13008612.84949 -10097977.58649  17047354.4614   17047362.6634
 96  7 15 20 12 29.9770000  0  6  6 16 26  5 17 23
  13466952.350   -55958916.55749 -43571879.63949  13466954.6354   13466958.9594
  14592911.731   -44303310.54149 -34480460.02149  14592913.0564   14592918.2254
  17271550.595    -6136911.99149  -4010921.30049  17271552.2964   17271561.4434
  17487879.529   -23512718.56949 -18302595.39449  17487885.3374   17487891.1994
  14997632.921   -39662497.23449 -30454989.60249  14997635.2884   14997640.6174
  17013883.452   -13184543.12949 -10235066.06649  17013876.3024   17013883.4424
 96  7 15 20 12 59.9770000  0  6  6 16 26  5 17 23
  13449870.227   -56048685.74249 -43641829.66249  13449872.0454   13449876.0664
  14588707.540   -44325401.96149 -34497674.12849  14588709.3104   14588714.1994
  17242247.171    -6290914.18949  -4130922.92349  17242247.7294   17242255.9624
  17495411.113   -23473169.10649 -18271777.71549  17495411.7084   17495417.8484
  14972407.437   -39795064.80849 -30558288.98349  14972408.5824   14972413.9854
  16980426.166   -13360340.35249 -10372050.86449  16980424.7364   16980431.0034
 96  7 15 20 13 29.9770000  0  6  6 16 26  5 17 23
  13432858.896   -56138083.39449 -43711490.17249  13432860.4534   13432864.7274
  14584598.219   -44346984.79649 -34514491.92949  14584602.1394   14584607.2234
  17212956.660    -6444794.05349  -4250829.17249  17212965.6994   17212973.2944
  17502935.026   -23433596.39849 -18240941.95549  17502941.9204   17502948.0054
  14947229.674   -39927365.91449 -30661380.73849  14947232.3514   14947238.1384
  16946994.819   -13535987.26949 -10508918.54549  16946999.5654   16947005.7754
 96  7 15 20 13 59.9770000  0  6  6 16 26  5 17 23
  13415921.240   -56227086.76849 -43780843.45849  13415923.4974   13415927.8654
  14580590.685   -44368057.54449 -34530912.25749  14580592.0424   14580597.0504
  17183702.548    -6598572.09049  -4370656.21149  17183701.7354   17183709.9274
  17510482.481   -23393997.45849 -18210085.78649  17510479.3894   17510482.9774
  14922108.415   -40059387.05349 -30764254.32449  14922109.5734   14922114.8314
  16913602.509   -13711473.09949 -10645660.72149  16913605.7224   16913612.4934
 96  7 15 20 14 29.9770000  0  6  6 16 26  5 17 23
  13399059.489   -56315698.32649 -43849891.42949  13399061.3054   13399065.8264
  14576675.307   -44388632.75649 -34546944.89949  14576677.1014   14576681.9854
  17154452.576    -6752262.37149  -4490414.80349  17154457.5644   17154463.7044
  17518010.955   -23354381.53649 -18179216.31049  17518016.8254   17518022.1964
  14897038.929   -40191121.15749 -30866904.24949  14897041.0974   14897046.5904
  16880243.816   -13886795.31149 -10782275.39449  16880243.4544   16880247.8844
 96  7 15 20 14 59.9770000  0  7  6 16 26  5 17 22 23
  13382273.039   -56403911.51149 -43918628.98749  13382275.1614   13382279.2654
  14572856.888   -44408709.53649 -34562589.14849  14572856.6574   14572861.5504
  17125223.660    -6905853.35349  -4610095.96249  17125228.1074   17125237.2714
  17525556.737   -23314762.56249 -18148344.47049  17525555.4614   17525563.0434
  14872022.913   -40322584.38549 -30969343.10749  14872024.4874   14872029.9644
  17682701.347    -8574069.80759  -5858859.04359  17682700.1784   17682704.3314
  16846912.830   -14061937.05749 -10918749.42249  16846914.6284   16846921.6564
 96  7 15 20 15 29.9770000  0  7  6 16 26  5 17 22 23
  13365564.182   -56491721.88949 -43987052.66349  13365565.4884   13365569.5154
  14569128.065   -44428291.97649 -34577848.19449  14569129.9604   14569134.9354
  17096026.707    -7059330.01449  -4729688.06849  17096023.5214   17096032.3254
  17533095.748   -23275136.69749 -18117467.28849  17533095.4894   17533102.2944
  14847054.909   -40453794.23349 -31071584.51749  14847056.5614   14847062.0224
  17653505.356    -8727459.00259  -5978383.05249  17653510.2914   17653515.6144
  16813619.020   -14236905.42949 -11055088.37349  16813618.5274   16813626.0244
 96  7 15 20 15 59.9760000  0  7  6 16 26  5 17 22 23
  13348930.537   -56579130.52949 -44055163.29249  13348932.2204   13348936.1114
  14565495.165   -44447382.98149 -34592724.30549  14565497.1044   14565502.3494
  17066850.806    -7212646.53149  -4849155.34449  17066847.9784   17066856.8374
  17540638.464   -23235504.02549 -18086584.86149  17540638.9694   17540645.9164
  14822131.837   -40584751.76649 -31173629.32349  14822136.0684   14822141.0634
  17624389.242    -8880503.95449  -6097638.83449  17624387.1494   17624394.4244
  16780350.385   -14411701.18049 -11191292.78949  16780356.8174   16780362.2354
 96  7 15 20 16 29.9760000  0  7  6 16 26  5 17 22 23
  13332368.675   -56666168.29049 -44122984.92549  13332369.2604   13332373.4014
  14561955.671   -44465996.10149 -34607228.04849  14561955.3484   14561960.2854
  17037706.974    -7365791.44749  -4968488.93949  17037705.9174   17037712.7914
  17548178.962   -23195866.85249 -18055698.83549  17548182.3194   17548188.4184
  14797256.898   -40715482.97049 -31275497.77049  14797258.4634   14797263.9674
  17595329.406    -9033208.17849  -6216629.09649  17595328.0174   17595335.5074
  16747121.508   -14586340.83349 -11327375.61849  16747123.5684   16747129.4754
 96  7 15 20 16 59.9760000  0  7  6 16 26  5 17 22 23
  13315875.960   -56752831.43649 -44190514.65849  13315877.8204   13315882.1554
  14558502.636   -44484123.53449 -34621353.32749  14558505.5224   14558510.7884
  17008592.688    -7518754.84349  -5087681.06049  17008597.6064   17008605.0574
  17555720.153   -23156230.39349 -18024813.41949  17555722.5094   17555730.9164
  14772419.325   -40845997.95549 -31377197.73149  14772421.5904   14772428.0374
  17566329.359    -9185555.54449  -6335341.32449  17566337.8704   17566343.9034
  16713921.623   -14760816.84949 -11463330.92749  16713921.7544   16713927.7414
 96  7 15 20 17 29.9760000  0  7  6 16 26  5 17 22 23
  13299454.984   -56839126.42249 -44257757.50349  13299456.3244   13299460.5984
  14555145.008   -44501778.66749 -34635110.58549  14555145.9404   14555150.8254
  16979525.204    -7671540.09849  -5206734.45649  16979524.2814   16979529.3044
  17563264.168   -23116604.48349 -17993936.23349  17563264.5284   17563270.1754
  14747625.244   -40976291.28949 -31478724.97449  14747627.7364   14747633.8144
  17537414.731    -9337555.46349  -6453782.75749  17537414.0064   17537418.9124
  16680748.491   -14935138.85949 -11599166.19149  16680750.1414   16680756.4074
 96  7 15 20 17 59.9760000  0  7  6 16 26  5 17 22 23
  13283105.028   -56925041.88949 -44324704.61949  13283107.3274   13283111.2744
  14551876.915   -44518945.33749 -34648487.21649  14551879.3334   14551884.4584
  16950478.178    -7824154.42449  -5325654.64449  16950481.6974   16950489.1234
  17570804.876   -23076983.62149 -17963062.92649  17570803.7664   17570809.2024
  14722878.730   -41106342.87649 -31580063.84249  14722879.9294   14722885.7144
  17508556.031    -9489193.79649  -6571942.47949  17508557.9424   17508561.9994
  16647603.100   -15109294.52149 -11734871.83949  16647609.0954   16647615.4704
 96  7 15 20 18 29.9760000  0  7  6 16 26  5 17 22 23
  13266829.476   -57010572.90649 -44391352.16849  13266831.4904   13266835.4424
  14548704.465   -44535623.39149 -34661483.11749  14548705.5474   14548710.6024
  16921465.540    -7976630.53349  -5444467.10949  16921467.4094   16921472.3184
  17578340.999   -23037366.91649 -17932192.87249  17578341.7594   17578349.7994
  14698176.432   -41236157.65449 -31681218.18849  14698177.4944   14698183.0204
  17479764.057    -9640494.97249  -6689839.45149  17479765.5544   17479771.3314
  16614495.509   -15283284.36049 -11870448.31749  16614500.0754   16614505.2964
 96  7 15 20 18 59.9760000  0  7  6 16 26  5 17 22 23
  13250631.489   -57095697.56049 -44457683.06749  13250632.5624   13250636.7064
  14545624.113   -44551806.78049 -34674093.55249  14545626.3804   14545630.7984
  16892475.559    -8128973.29649  -5563175.64949  16892477.1944   16892484.0444
  17585884.558   -22997749.77049 -17901322.51049  17585882.1444   17585886.9574
  14673521.497   -41365726.03049 -31782180.54149  14673522.2624   14673526.9954
  17451032.946    -9791475.33849  -6807486.46549  17451034.7454   17451040.5954
  16581423.811   -15457102.94649 -12005891.33149  16581424.0894   16581430.2524
 96  7 15 20 19 29.9760000  0  7  6 16 26  5 17 22 23
  13234510.105   -57180418.32749 -44523699.25649  13234510.8524   13234514.8354
  14542637.680   -44567506.97749 -34686327.48649  14542638.5284   14542643.1844
  16863508.936    -8281190.06849  -5681786.00849  16863510.8464   16863518.0054
  17593412.730   -22958118.76449 -17870441.28749  17593422.3584   17593429.5264
  14648910.456   -41495035.10449 -31882940.82349  14648914.8484   14648920.0204
  17422366.126    -9942136.73349  -6924884.91349  17422365.5034   17422370.7514
  16548376.146   -15630744.78149 -12141196.60249  16548380.0714   16548386.8794
 96  7 15 20 19 59.9760000  0  7  6 16 26  5 17 22 23
  13218461.290   -57264743.50349 -44589407.19249  13218464.1784   13218468.5024
  14539739.822   -44582728.53149 -34698188.44849  14539741.7534   14539747.0264
  16834566.733    -8433292.62349  -5800307.37849  16834565.8824   16834573.9134
  17600959.369   -22918473.05849 -17839548.67749  17600968.3634   17600975.3724
  14624352.342   -41624089.94849 -31983503.01749  14624355.8874   14624361.8884
  17393755.356   -10092479.29349  -7042034.93349  17393756.7424   17393761.6454
  16515372.198   -15804212.44849 -12276366.15749  16515370.6914   16515377.9054
 96  7 15 20 20 29.9760000  0  7  6 16 26  5 17 22 23
  13202490.490   -57348678.89449 -44654811.39249  13202491.8934   13202496.4164
  14536931.925   -44597485.68249 -34709687.53949  14536933.2584   14536938.5844
  16805646.758    -8585268.69549  -5918730.17449  16805646.7604   16805653.1084
  17608511.015   -22878817.66649 -17808648.52149  17608513.0804   17608521.4504
  14599840.231   -41752903.95949 -32083877.54949  14599843.3084   14599848.8704
  17365208.231   -10242508.15449  -7158940.53749  17365205.1684   17365211.9854
  16482394.681   -15977506.48749 -12411400.43049  16482393.7874   16482400.1044
 96  7 15 20 20 59.9760000  0  6  6 16 26 17 22 23
  13186590.117   -57432233.15749 -44719918.60649  13186592.2514   13186596.4234
  14534210.891   -44611777.17549 -34720823.77649  14534214.0824   14534219.3154
  16776753.532    -8737093.40849  -6037035.03749  16776755.4084   16776762.4044
  14575378.304   -41881457.06549 -32184048.78249  14575380.4134   14575386.1754
  17336723.648   -10392190.24149  -7275575.87849  17336722.4414   17336728.7574
  16449447.856   -16150621.66149 -12546295.34849  16449451.7174   16449456.3954
 96  7 15 20 21 29.9760000  0  6  6 16 26 17 22 23
  13170759.874   -57515423.51749 -44784742.25949  13170761.4014   13170765.6314
  14531580.936   -44625613.72749 -34731605.51449  14531581.2644   14531586.1964
  16747889.507    -8888759.12049  -6155216.02949  16747893.8564   16747900.0154
  14550965.374   -42009753.29649 -32284019.84549  14550966.8694   14550972.4094
  17308302.362   -10541516.56549  -7391934.06649  17308306.4444   17308314.9784
  16416539.541   -16323569.32149 -12681059.71849  16416539.4434   16416546.9904
 96  7 15 20 21 59.9760000  0  6  6 16 26 17 22 23
  13154999.135   -57598242.61049 -44849276.61649  13155001.6514   13155005.8084
  14529032.689   -44638995.85049 -34742033.15349  14529034.2504   14529039.7954
  16719062.254    -9040256.14349  -6273265.58649  16719064.5014   16719071.9424
  14526599.491   -42137806.37449 -32383801.43449  14526599.2384   14526604.2394
  17279955.157   -10690497.56849  -7508023.12649  17279956.4394   17279963.1834
  16383662.212   -16496355.10949 -12815697.93149  16383660.2864   16383666.5234
 96  7 15 20 22 29.9760000  0  6  6 16 26 17 22 23
  13139310.796   -57680688.38749 -44913520.07849  13139312.3514   13139316.7614
  14526573.703   -44651921.11249 -34752104.80449  14526574.9404   14526579.9374
  16690269.160    -9191571.54649  -6391173.60549  16690270.7874   16690277.2204
  14502275.572   -42265613.72749 -32483391.55449  14502278.0894   14502283.1184
  17251669.636   -10839128.84649  -7623839.69149  17251672.9534   17251678.8494
  16350807.458   -16668975.16949 -12950207.02649  16350812.1414   16350816.9314
 96  7 15 20 22 59.9760000  0  6  6 16 26 17 22 23
  13123692.676   -57762758.52649 -44977470.83049  13123695.3054   13123699.2754
  14524197.053   -44664396.31849 -34761825.75349  14524200.5474   14524205.9484
  16661507.808    -9342704.35549  -6508939.31249  16661512.1484   16661518.5574
  14478002.398   -42393180.54949 -32582794.24449  14478002.7974   14478008.0984
  17223459.462   -10987405.59549  -7739379.94249  17223456.2774   17223462.0844
  16317993.054   -16841437.98349 -13084593.59849  16317992.4584   16317999.4764
 96  7 15 20 23 29.9760000  0  6  6 16 26 17 22 23
  13108151.709   -57844435.95549 -45041115.58349  13108152.5114   13108156.6004
  14521912.882   -44676415.73749 -34771191.54749  14521913.8474   14521918.8234
  16632781.418    -9493664.94649  -6626570.89749  16632785.1024   16632791.5984
  14453767.398   -42520527.98449 -32682025.99249  14453769.7484   14453774.6594
  17195309.493   -11135326.96849  -7854643.29849  17195308.1564   17195314.3964
  16285207.838   -17013731.19049 -13218848.00349  16285207.1514   16285212.1834
 96  7 15 20 23 59.9760000  0  6  6 16 26 17 22 23
  13092686.097   -57925709.61349 -45104445.70749  13092686.8064   13092690.4884
  14519711.989   -44687979.26949 -34780202.10549  14519713.4784   14519718.3294
  16604088.649    -9644444.30049  -6744061.21849  16604091.2064   16604097.7714
  14429578.045   -42647649.31749 -32781081.54949  14429579.2424   14429584.6284
  17167229.051   -11282875.20349  -7969615.88949  17167231.3144   17167236.7134
  16252454.817   -17185845.59849 -13352963.07349  16252455.1374   16252459.8924
 96  7 15 20 24 29.9760000  0  6  6 16 26 17 22 23
  13077294.261   -58006577.97549 -45167460.01449  13077298.0344   13077302.1484
  14517599.863   -44699081.93649 -34788853.54649  14517601.0994   14517605.5564
  16575434.881    -9795025.27649  -6861396.91749  16575436.5484   16575444.2544
  14405434.224   -42774523.16049 -32879944.26049  14405436.0264   14405441.4344
  17139228.617   -11430027.70949  -8084280.16449  17139228.0874   17139235.3334
  16219734.048   -17357774.79449 -13486933.84149  16219737.0064   16219743.5414
 96  7 15 20 24 59.9760000  0  6  6 16 26 17 22 23
  13061986.442   -58087028.15549 -45230148.46149  13061988.7514   13061992.8094
  14515574.050   -44709722.99949 -34797145.29049  14515575.6924   14515580.6234
  16546822.468    -9945402.51749  -6978573.89349  16546821.9084   16546826.4694
  14381337.262   -42901145.16349 -32978610.73449  14381340.4394   14381345.5824
  17111300.090   -11576776.97649  -8198630.19849  17111302.8844   17111307.7974
  16187055.092   -17529511.08049 -13620754.29349  16187057.7154   16187061.8774
 96  7 15 20 25 29.9760000  0  7  6 16 26 17 22 28 23
  13046758.496   -58167059.28949 -45292510.37849  13046759.4194   13046763.3824
  14513632.753   -44719912.46849 -34805085.14049  14513636.6894   14513641.7264
  16518242.193   -10095580.01649  -7095595.23549  16518242.9404   16518248.3484
  14357292.017   -43027508.63549 -33077075.74549  14357294.1714   14357299.3894
  17083448.912   -11723137.32049  -8312677.18949  17083451.9604   17083457.2594
  17521755.962    -3452182.76919  -2670794.36119  17521753.101    17521758.164
  16154411.110   -17701047.79449 -13754419.20549  16154414.6044   16154420.0204
 96  7 15 20 25 59.9760000  0  7  6 16 26 17 22 28 23
  13031605.895   -58246675.77249 -45354549.20049  13031608.7934   13031613.0524
  14511781.944   -44729661.18149 -34812681.55349  14511781.5034   14511786.9384
  16489701.881   -10245546.06549  -7212451.84049  16489706.6344   16489711.5214
  14333298.701   -43153603.38049 -33175331.37449  14333298.9344   14333304.7224
  17055669.421   -11869125.83049  -8426434.42349  17055669.9314   17055676.8534
  17489187.242    -3623289.071 9  -2804123.893 9  17489191.945    17489198.577
  16121808.983   -17872390.19149 -13887932.75049  16121808.0674   16121814.7494
 96  7 15 20 26 29.9760000  0  7  6 16 26 17 22 28 23
  13016537.033   -58325874.94949 -45416262.84649  13016537.8844   13016541.7974
  14510009.448   -44738969.29749 -34819934.64449  14510010.2554   14510015.6644
  16461204.796   -10395326.91149  -7329164.14349  16461202.5774   16461207.6834
  14309350.168   -43279444.98849 -33273389.75049  14309352.4134   14309357.7224
  17027951.949   -12014764.57249  -8539919.11849  17027957.1194   17027962.0164
  17456632.971    -3794422.534 9  -2937474.584 9  17456626.692    17456632.984
  16089243.437   -18043529.73149 -14021288.21549  16089240.8714   16089248.1974
 96  7 15 20 26 59.9750000  0  7  6 16 26 17 22 28 23
  13001544.387   -58404656.99649 -45477651.45349  13001546.1504   13001550.0784
  14508320.112   -44747842.97649 -34826849.20949  14508321.6904   14508326.7524
  16432735.390   -10544926.91149  -7445735.48849  16432735.8604   16432740.6494
  14285450.274   -43405050.48849 -33371264.14449  14285450.4234   14285455.7924
  17000311.731   -12160054.90549  -8653132.33449  17000308.8774   17000315.1804
  17424050.299    -3965580.696 9  -3070844.547 9  17424056.593    17424062.457
  16056714.682   -18214449.72549 -14154472.57149  16056715.4504   16056723.6284
 96  7 15 20 27 29.9750000  0  7  6 16 26 17 22 28 23
  12986627.647   -58483041.21949 -45538730.07149  12986630.1694   12986634.1464
  14506713.824   -44756284.08349 -34833426.70149  14506715.4254   14506720.5484
  16404299.242   -10694365.93249  -7562181.34449  16404296.9974   16404303.0624
  14261592.399   -43530422.76049 -33468956.79949  14261592.4024   14261598.0884
  16972725.185   -12305003.52949  -8766079.30349  16972725.7524   16972731.3894
  17391472.218    -4136776.840 9  -3204244.101 9  17391479.210    17391484.613
  16024229.747   -18385163.39149 -14287496.17249  16024230.1124   16024236.9384
 96  7 15 20 27 59.9750000  0  7  6 16 26 17 22 28 23
  12971786.635   -58561037.29949 -45599506.24249  12971787.7484   12971791.8814
  14505192.895   -44764274.68849 -34839653.16149  14505194.9804   14505199.8944
  16375890.693   -10843640.19449  -7678498.82649  16375892.9564   16375898.0114
  14237778.609   -43655555.74549 -33566463.00349  14237780.7854   14237786.0724
  16945216.805   -12449582.00749  -8878737.83749  16945213.2624   16945219.1184
  17358884.628    -4308000.679 9  -3337665.155 9  17358896.304    17358901.381
  15991783.898   -18555667.02349 -14420356.10549  15991784.5344   15991790.9784
 96  7 15 20 28 29.9750000  0  7  6 16 26 17 22 28 23
  12957015.804   -58638651.81449 -45659985.09449  12957018.1334   12957022.3964
  14503758.288   -44771820.98449 -34845533.39949  14503759.0804   14503763.6194
  16347517.286   -10992742.40649  -7794682.28549  16347519.9494   16347525.5224
  14214009.868   -43780452.71249 -33663785.28949  14214013.7874   14214019.4454
  16917771.527   -12593779.15949  -8991099.22649  16917773.2334   16917780.2234
  17326312.234    -4479250.975 9  -3471106.863 9  17326308.625    17326313.851
  15959374.031   -18725962.08249 -14553053.50149  15959378.3684   15959384.6214
 96  7 15 20 28 59.9750000  0  7  6 16 26 17 22 28 23
  12942317.332   -58715893.38349 -45720173.33349  12942319.7844   12942323.8824
  14502404.457   -44778933.00849 -34851075.24149  14502405.6624   14502410.6174
  16319183.862   -11141638.73449  -7910705.33749  16319185.5804   16319190.5614
  14190291.614   -43905103.41749 -33760915.69149  14190293.4904   14190298.7424
  16890406.482   -12737584.81749  -9103155.56949  16890408.2784   16890413.4604
  17293712.347    -4650524.605 9  -3604566.820 9  17293716.628    17293721.440
  15927008.745   -18896058.52749 -14685596.12749  15927010.5554   15927017.3534
 96  7 15 20 29 29.9750000  0  7  6 16 26 17 22 28 23
  12927694.043   -58792742.11949 -45780055.46649  12927695.8574   12927699.9504
  14501137.055   -44785598.50249 -34856269.14149  14501137.2124   14501142.3644
  16290888.579   -11290306.86649  -8026550.56049  16290894.0944   16290898.6124
  14166621.642   -44029498.41549 -33857846.83949  14166621.7454   14166627.4584
  16863122.258   -12880992.29249  -9214901.64149  16863118.0114   16863124.4854
  17261113.983    -4821811.556 9  -3738037.149 9  17261121.396    17261126.739
  15894678.894   -19065968.72749 -14817993.64149  15894678.4774   15894683.2694
 96  7 15 20 29 59.9750000  0  7  6 16 26 17 22 28 23
  12913149.684   -58869175.56249 -45839613.99949  12913151.0194   12913155.3444
  14499951.543   -44791820.11949 -34861117.17049  14499952.9614   14499958.6434
  16262653.002   -11438711.01659  -8142190.06649  16262653.6694   16262656.3224
  14142991.926   -44153662.13049 -33954597.76749  14142994.3264   14142999.9634
  16835907.244   -13023996.80959  -9326333.72149  16835907.3324   16835911.6634
  17228525.282    -4993106.516 9  -3871513.696 9  17228525.250    17228530.361
  15862383.508   -19235686.15349 -14950240.95849  15862381.8394   15862388.3344
 96  7 15 20 30 29.9750000  0  7  6 16 26 17 22 28 23
  12898688.439   -58945169.42449 -45898829.99749  12898689.9714   12898694.2004
  14498848.291   -44797615.23749 -34865632.85249  14498850.4554   14498855.1884
  16234466.294   -11586828.15949  -8257605.95449  16234468.5914   16234472.3814
  14119408.701   -44277593.25949 -34051167.46749  14119410.9084   14119416.0524
  16808767.834   -13166608.70449  -9437459.86449  16808768.2454   16808773.0894
  17195929.043    -5164403.257 9  -4004991.637 9  17195928.766    17195933.484
  15830124.728   -19405198.14549 -15082328.19349  15830123.8494   15830131.1964
 96  7 15 20 30 59.9750000  0  7  6 16 26 17 22 28 23
  12884313.861   -59020709.74249 -45957692.58449  12884315.2184   12884319.1564
  14497827.743   -44802978.95049 -34869812.37549  14497829.8564   14497834.7384
  16206331.509   -11734664.78049  -8372803.26949  16206335.6794   16206340.8514
  14095871.736   -44401284.06749 -34147549.89049  14095873.2204   14095878.6024
  16781705.503   -13308813.13649  -9548268.50049  16781707.1704   16781714.7614
  17163328.449    -5335696.881 9  -4138467.135 9  17163332.241    17163337.246
  15797905.293   -19574498.18549 -15214250.27249  15797907.7814   15797914.1724
 96  7 15 20 31 29.9750000  0  7  6 16 26 17 22 28 23
  12870024.387   -59095794.81649 -46016200.44249  12870026.9754   12870030.9744
  14496891.507   -44807904.36549 -34873650.36649  14496892.1224   14496897.3764
  16178248.244   -11882236.81549  -8487794.36149  16178253.4134   16178258.6534
  14072379.452   -44524741.59049 -34243750.55049  14072380.2484   14072385.0654
  16754726.300   -13450609.25049  -9658758.96149  16754724.4604   16754729.8574
  17130737.359    -5506987.731 9  -4271940.482 9  17130736.588    17130741.109
  15765730.962   -19743585.90349 -15346006.87949  15765730.7194   15765738.2674
 96  7 15 20 31 59.9750000  0  7  6 16 26 17 22 28 23
  12855820.722   -59170443.71049 -46074368.41649  12855821.6924   12855825.7254
  14496031.442   -44812416.75849 -34877166.52449  14496033.2794   14496038.8724
  16150215.708   -12029561.04449  -8602592.34449  16150217.8384   16150224.1484
  14048929.676   -44647955.49249 -34339761.36249  14048933.4344   14048938.4004
  16727816.441   -13592000.51249  -9768933.98449  16727819.0914   16727824.9404
  17098138.871    -5678280.126 9  -4405415.062 9  17098140.785    17098145.543
  15733596.028   -19912437.12149 -15477579.21949  15733600.4494   15733606.7434
 96  7 15 20 32 29.9750000  0  7  6 16 26 17 22 28 23
  12841694.894   -59244671.13549 -46132207.97749  12841696.4874   12841700.6714
  14495248.669   -44816532.88849 -34880373.91249  14495250.3314   14495255.4644
  16122225.924   -12176663.54749  -8717217.58949  16122225.7464   16122231.8624
  14025536.744   -44770894.34949 -34435557.85549  14025539.0304   14025543.9224
  16700990.908   -13732997.42049  -9878801.66749  16700987.1644   16700992.9424
  17065542.808    -5849576.407 9  -4538892.671 9  17065543.526    17065547.742
  15701516.141   -20081040.65949 -15608958.57349  15701516.2674   15701523.5324
 96  7 15 20 32 59.9750000  0  7  6 16 26 17 22 28 23
  12827650.774   -59318475.90649 -46189718.19049  12827652.2094   12827656.2104
  14494541.960   -44820241.82949 -34883264.00949  14494544.3664   14494549.4904
  16094274.040   -12323545.27849  -8831670.87049  16094275.7724   16094279.1014
  14002194.852   -44893561.07349 -34531142.29249  14002196.1354   14002201.3964
  16674237.936   -13873579.74949  -9988346.32549  16674236.1634   16674242.3454
  17032942.972    -6020874.329 9  -4672371.490 9  17032946.516    17032951.046
  15669476.740   -20249400.60849 -15740148.09649  15669477.2704   15669484.6504
 96  7 15 20 33 29.9750000  0  7  6 16 26 17 22 28 23
  12813685.173   -59391859.90749 -46246900.53849  12813687.5214   12813691.5194
  14493914.440   -44823549.76349 -34885841.62649  14493915.1224   14493920.2564
  16066366.700   -12470195.35749  -8945943.61349  16066368.0314   16066374.9084
  13978902.770   -45015959.44049 -34626517.61549  13978904.4744   13978909.7124
  16647561.404   -14013749.69049 -10097569.63949  16647562.9674   16647568.1234
  17000353.332    -6192174.501 9  -4805852.126 9  17000349.412    17000354.056
  15637480.394   -20417512.53449 -15871144.34649  15637486.2364   15637493.3764
 96  7 15 20 33 59.9750000  0  7  6 16 26 17 22 28 23
  12799802.927   -59464813.68649 -46303747.65149  12799804.8564   12799809.0234
  14493360.186   -44826458.53549 -34888108.21949  14493361.6974   14493366.9154
  16038503.238   -12616602.15449  -9060026.71149  16038507.2894   16038513.9014
  13955666.540   -45138069.34549 -34721668.17149  13955667.7444   13955672.6594
  16620968.563   -14153498.56549 -10206464.84549  16620968.4134   16620975.1004
  16967749.901    -6363470.858 9  -4939329.833 9  16967752.573    16967758.006
  15605548.707   -20585358.77149 -16001933.58949  15605546.1714   15605553.2174
 96  7 15 20 34 29.9750000  0  7  6 16 26 17 22 28 23
  12786005.718   -59537323.24949 -46360248.61749  12786007.1214   12786010.8234
  14492885.981   -44828955.39449 -34890053.83449  14492886.7764   14492891.6024
  16010695.720   -12762752.15149  -9173909.73049  16010695.9384   16010702.5914
  13932480.082   -45259904.71649 -34816604.80449  13932483.0604   13932488.2454
  16594454.807   -14292819.00449 -10315026.19949  16594457.7264   16594462.3104
  16935152.678    -6534763.492 9  -5072804.557 9  16935156.127    16935162.280
  15573650.365   -20752961.88549 -16132533.38749  15573652.7804   15573660.0564
 96  7 15 20 34 59.9750000  0  7  6 16 26 17 22 28 23
  12772292.151   -59609388.03049 -46416402.99949  12772293.5614   12772297.4604
  14492494.611   -44831015.98749 -34891659.50649  14492494.3224   14492499.6014
  15982933.515   -12908635.60449  -9287585.04149  15982934.4394   15982941.5964
  13909345.425   -45381487.59049 -34911344.68349  13909346.8224   13909351.5624
  16568029.130   -14431702.75449 -10423247.27149  16568028.4064   16568034.3794
  16902555.177    -6706055.254 9  -5206278.590 9  16902560.620    16902566.161
  15541804.983   -20920343.35549 -16262960.46449  15541801.6084   15541809.0664
 96  7 15 20 35 29.9750000  0  7  6 16 26 17 22 28 23
  12758657.390   -59681033.21049 -46472230.42149  12758659.9184   12758663.9784
  14492182.275   -44832649.84749 -34892932.64749  14492184.1334   14492189.1204
  15955220.693   -13054268.45049  -9401065.10149  15955221.7384   15955228.4754
  13886254.464   -45502826.87149 -35005894.75349  13886256.2724   13886261.3414
  16541673.169   -14570175.80849 -10531148.32149  16541678.0484   16541684.5474
  16869958.913    -6877355.819 9  -5339759.495 9  16869963.511    16869968.582
  15509993.299   -21087503.11149 -16393214.78249  15509993.0954   15509998.7744
 96  7 15 20 35 59.9750000  0  7  6 16 26 17 22 28 23
  12745104.383   -59752259.11549 -46527731.12749  12745105.9064   12745110.1874
  14491952.031   -44833867.30949 -34893881.33249  14491951.6974   14491956.6274
  15927557.245   -13199649.20549  -9514348.76349  15927557.0514   15927563.5444
  13863209.718   -45623933.89549 -35100263.83749  13863210.4814   13863215.5304
  16515405.919   -14708242.28849 -10638732.57649  16515404.5674   16515410.2364
  16837364.760    -7048663.569 9  -5473246.000 9  16837365.077    16837370.192
  15478219.518   -21254443.07749 -16523297.82849  15478224.8144   15478230.4774
 96  7 15 20 36 29.9750000  0  7  6 16 26 17 22 28 23
  12731631.753   -59823059.83949 -46582900.52549  12731632.8924   12731637.2304
  14491795.679   -44834676.75349 -34894512.08049  14491798.0484   14491802.8874
  15899936.658   -13344777.87749  -9627435.96949  15899940.8484   15899946.6084
  13840200.671   -45744829.20349 -35194467.95649  13840204.9154   13840209.8834
  16489210.000   -14845893.09349 -10745992.93149  16489211.1384   16489216.1774
  16804761.115    -7219975.979 9  -5606736.151 9  16804765.664    16804770.136
  15446497.900   -21421167.70149 -16653213.08849  15446497.7794   15446504.2454
 96  7 15 20 36 59.9750000  0  7  6 16 26 17 22 28 23
  12718237.738   -59893440.27149 -46637742.42849  12718239.9724   12718244.3344
  14491717.811   -44835085.46849 -34894830.56449  14491719.9804   14491725.3844
  15872366.729   -13489654.88949  -9740327.07549  15872371.6494   15872376.3094
  13817239.551   -45865498.16849 -35288495.70149  13817242.1954   13817247.5924
  16463093.822   -14983128.30049 -10852929.43449  16463096.4924   16463100.6804
  16772165.001    -7391285.626 9  -5740224.178 9  16772166.654    16772170.926
  15414814.870   -21587652.52749 -16782941.47749  15414816.8844   15414823.9584
 96  7 15 20 37 29.9750000  0  7  6 16 26 17 22 28 23
  12704926.481   -59963394.37449 -46692252.12549  12704928.2804   12704932.4744
  14491711.055   -44835124.20049 -34894860.75449  14491712.2194   14491718.0064
  15844846.998   -13634280.58749  -9853022.29949  15844849.9444   15844855.5614
  13794324.993   -45985926.66349 -35382336.07049  13794325.4134   13794330.7474
  16437061.232   -15119949.00249 -10959542.93949  16437059.7904   16437064.5354
  16739566.771    -7562586.608 9  -5873705.431 9  16739568.433    16739573.290
  15383183.682   -21753874.73249 -16912465.20749  15383186.9734   15383190.9474
 96  7 15 20 37 59.9740000  0  7  6 16 26 17 22 28 23
  12691698.542   -60032907.37849 -46746418.11249  12691700.2824   12691704.3484
  14491773.143   -44834803.58349 -34894610.93749  14491773.9214   14491778.6674
  15817374.606   -13778641.96449  -9965511.53849  15817377.7414   15817384.2634
  13771457.530   -46106095.67249 -35475974.24149  13771458.4224   13771463.2954
  16411098.859   -15256341.00849 -11065822.39649  16411104.3934   16411110.9114
  16706973.777    -7733873.731 9  -6007175.832 9  16706973.867    16706978.636
  15351607.100   -21919835.90749 -17041785.58949  15351605.4294   15351610.8574
 96  7 15 20 38 29.9740000  0  7  6 16 26 17 22 28 23
  12678552.154   -60101997.75849 -46800254.78149  12678552.7674   12678557.1954
  14491902.847   -44834118.14949 -34894076.84149  14491904.2184   14491909.2944
  15789958.077   -13922742.68149 -10077797.77649  15789957.3394   15789964.3374
  13748639.947   -46226005.24249 -35569410.25849  13748640.5384   13748645.6014
  16385229.371   -15392320.18849 -11171780.18549  16385229.5654   16385234.9374
  16674375.834    -7905158.464 9  -6140644.417 9  16674379.691    16674384.039
  15320066.220   -22085548.30849 -17170912.08949  15320070.4264   15320076.5824
 96  7 15 20 38 59.9740000  0  7  6 16 26 17 22 28 23
  12665480.677   -60170680.90049 -46853774.12049  12665483.1614   12665487.0984
  14492102.719   -44833067.11949 -34893257.86349  14492104.3434   14492109.0734
  15762583.977   -14066574.20349 -10189874.24049  15762586.6214   15762592.9274
  13725868.166   -46345654.51449 -35662643.43849  13725872.0114   13725876.9184
  16359427.505   -15527894.27149 -11277422.33349  16359429.8584   16359435.4234
  16641777.254    -8076438.027 9  -6274108.957 9  16641785.740    16641790.917
  15288587.024   -22251007.11749 -17299840.98849  15288584.6754   15288590.9544
 96  7 15 20 39 29.9740000  0  7  6 16 26 17 22 28 23
  12652489.933   -60238947.65049 -46906969.00149  12652492.1104   12652496.1784
  14492371.515   -44831650.47449 -34892153.99649  14492373.8084   14492379.1364
  15735259.690   -14210129.80749 -10301735.66649  15735268.5704   15735273.8574
  13703148.898   -46465057.76249 -35755684.90949  13703150.1894   13703155.0144
  16333709.026   -15663051.82549 -11382739.91449  16333710.2404   16333715.9984
  16609193.183    -8247710.505 9  -6407567.996 9  16609194.066    16609198.937
  15257141.553   -22416228.82649 -17428585.15949  15257143.9664   15257150.6714
 96  7 15 20 39 59.9740000  0  7  6 16 26 17 22 28 23
  12639579.819   -60306797.58649 -46959839.08349  12639580.5504   12639584.8584
  14492713.952   -44829858.89849 -34890757.97949  14492714.8104   14492720.2154
  15708003.335   -14353388.93749 -10413366.03549  15708005.8024   15708012.0654
  13680472.122   -46584227.83349 -35848544.68449  13680472.5744   13680477.9294
  16308066.023   -15797791.54549 -11487731.90349  16308070.1664   16308076.4824
  16576605.525    -8418974.164 9  -6541020.150 9  16576603.639    16576608.779
  15225740.045   -22581223.74249 -17557152.57449  15225746.0404   15225753.3104
 96  7 15 20 40 29.9740000  0  7  6 16 26 17 22 28 23
  12626744.476   -60374238.20149 -47012390.22249  12626747.1724   12626751.3834
  14493124.067   -44827694.40049 -34889071.36649  14493126.5264   14493131.8514
  15680802.387   -14496349.81949 -10524764.02649  15680801.8514   15680808.5824
  13657838.613   -46703171.57149 -35941228.10249  13657838.1494   13657843.5704
  16282515.691   -15932113.42949 -11592398.32249  16282510.0344   16282514.6654
  16544014.511    -8590222.847 9  -6674460.632 9  16544016.429    16544020.945
  15194396.381   -22745977.03449 -17685531.74849  15194395.8054   15194401.6944
 96  7 15 20 40 59.9740000  0  7  6 16 26 17 22 28 23
  12613993.695   -60441247.30249 -47064605.11649  12613996.0174   12613999.8784
  14493609.289   -44825156.02349 -34887093.41749  14493609.6474   14493614.7954
  15653653.260   -14639031.26949 -10635944.32249  15653652.3654   15653658.0544
  13635246.574   -46821880.66049 -36033728.67549  13635248.6884   13635254.4144
  16257023.710   -16066010.15949 -11696733.43549  16257029.2834   16257035.0954
  16511429.796    -8761453.461 9  -6807887.042 9  16511431.520    16511436.647
  15163089.878   -22910476.72049 -17813713.29549  15163091.6134   15163098.3074
 96  7 15 20 41 29.9740000  0  7  6 16 26 17 22 28 23
  12601327.663   -60507815.02749 -47116476.07749  12601328.3414   12601332.1954
  14494161.173   -44822243.40549 -34884823.86049  14494163.8384   14494169.1404
  15626550.160   -14781437.52449 -10746910.17949  15626552.2734   15626558.1614
  13612704.698   -46940339.79349 -36126034.46949  13612706.5474   13612712.0084
  16231632.931   -16199476.39349 -11800733.09649  16231632.2174   16231638.3714
  16478851.361    -8932662.378 9  -6941296.536 9  16478851.721    16478856.717
  15131836.987   -23074722.17749 -17941696.73249  15131836.0894   15131843.6524
 96  7 15 20 41 59.9740000  0  7  6 16 26 17 22 28 23
  12588742.629   -60573945.99749 -47168006.70649  12588744.0324   12588748.1954
  14494789.148   -44818957.71149 -34882263.58949  14494789.1564   14494794.0324
  15599500.657   -14923571.29749 -10857663.72749  15599504.5164   15599509.8084
  13590212.313   -47058536.32249 -36218135.63849  13590214.5674   13590220.1264
  16206316.370   -16332521.90749 -11904404.90749  16206315.1464   16206320.0904
  16446272.937    -9103850.276 9  -7074689.671 9  16446275.957    16446280.490
  15100634.126   -23238692.80049 -18069466.00549  15100634.5274   15100641.5214
 96  7 15 20 42 29.9740000  0  7  6 16 26 17 22 28 23
  12576243.793   -60639626.83549 -47219186.58249  12576245.4264   12576249.6214
  14495484.829   -44815274.63649 -34879393.66049  14495490.4384   14495495.0744
  15572508.651   -15065443.12549 -10968213.09449  15572507.8424   15572513.6174
  13567772.213   -47176462.75949 -36310026.35349  13567773.9014   13567779.3344
  16181079.312   -16465119.83349 -12007727.90849  16181082.6284   16181086.9014
  16413703.500    -9275008.086 9  -7208059.379 9  16413705.863    16413710.607
  15069489.080   -23402379.12949 -18197013.74949  15069485.6534   15069491.9954
 96  7 15 20 42 59.9740000  0  7  6 16 26 17 22 28 23
  12563832.579   -60704842.61649 -47270004.07949  12563835.0784   12563839.4534
  14496262.835   -44811199.58149 -34876218.31449  14496265.3704   14496270.8994
  15545562.449   -15207040.45049 -11078548.58049  15545562.5094   15545568.4384
  13545380.186   -47294133.59049 -36401717.89149  13545381.9064   13545387.0554
  16155940.267   -16597259.82749 -12110694.15449  16155936.6824   16155941.2744
  16381134.747    -9446140.072 9  -7341408.921 9  16381140.440    16381145.724
  15038384.042   -23565803.92249 -18324357.71449  15038386.7984   15038393.4884
 96  7 15 20 43 29.9740000  0  7  6 16 26 17 22 28 23
  12551507.351   -60769607.65249 -47320470.34049  12551510.7004   12551515.2094
  14497113.171   -44806756.97249 -34872756.54749  14497110.9614   14497116.4974
  15518674.224   -15348336.16649 -11188649.07649  15518674.5534   15518680.4214
  13523032.831   -47411567.32349 -36493224.67549  13523035.1684   13523040.1604
  16130874.155   -16728945.25049 -12213306.12549  16130878.1624   16130883.3294
  16348579.885    -9617252.996 9  -7474743.592 9  16348578.204    16348583.367
  15007334.397   -23728990.64649 -18451516.16849  15007333.6774   15007339.0114
 96  7 15 20 43 59.9740000  0  7  6 16 26 17 22 28 23
  12539269.511   -60833924.20149 -47370587.13349  12539271.6234   12539276.0724
  14498020.810   -44801966.96549 -34869024.08349  14498022.5784   14498026.8644
  15491842.552   -15489321.45849 -11298507.67349  15491846.4904   15491851.3644
  13500730.482   -47528776.20349 -36584556.24949  13500730.9834   13500736.0544
  16105904.009   -16860182.55449 -12315568.93249  16105904.3234   16105909.0054
  16316015.779    -9788355.175 9  -7608069.906 9  16316018.929    16316023.802
  14976320.725   -23891951.42749 -18578498.57949  14976323.8684   14976329.5134
 96  7 15 20 44 29.9740000  0  7  6 16 26 17 22 28 23
  12527115.353   -60897791.69449 -47420354.01249  12527118.1804   12527122.6444
  14498995.975   -44796850.41749 -34865037.16749  14498996.0744   14499001.4464
  15465074.599   -15629991.84549 -11408120.85849  15465077.4514   15465082.4064
  13478461.896   -47645776.41349 -36675725.22549  13478466.5104   13478471.5454
  16081017.870   -16990968.47449 -12417480.01149  16081015.6724   16081022.5094
  16283456.221    -9959448.560 9  -7741389.375 9  16283460.619    16283465.581
  14945350.832   -24054704.42049 -18705319.05449  14945352.6174   14945358.6914
 96  7 15 20 44 59.9740000  0  7  6 16 26 17 22 28 23
  12515046.811   -60961221.13249 -47469779.54149  12515047.8714   12515052.4364
  14500023.297   -44791446.45149 -34860826.29749  14500024.6084   14500029.1184
  15438365.867   -15770344.19549 -11517486.26849  15438368.5624   15438374.0304
  13456241.647   -47762565.30349 -36766729.53649  13456242.3634   13456247.7164
  16056209.716   -17121324.71249 -12519056.26949  16056210.8564   16056216.9394
  16250903.689   -10130536.864 9  -7874704.900 9  16250904.508    16250908.703
  14914422.214   -24217237.02549 -18831967.81349  14914423.7724   14914430.2664
 96  7 15 20 45 29.9740000  0  7  6 16 26 17 22 28 23
  12503058.909   -61024211.67249 -47518863.07649  12503061.6154   12503065.6234
  14501110.024   -44785738.72149 -34856378.71549  14501110.6714   14501115.5334
  15411721.840   -15910379.12649 -11626604.38949  15411723.3144   15411726.4774
  13434060.166   -47879122.63049 -36857553.40649  13434062.0274   13434067.2784
  16031483.685   -17251260.98249 -12620305.27349  16031483.9184   16031488.8484
  16218347.178   -10301607.143 9  -8008006.356 9  16218349.889    16218354.933
  14883541.584   -24379518.18849 -18958420.62649  14883542.1804   14883548.4044
 96  7 15 20 45 59.9740000  0  7  6 16 26 17 22 28 23
  12491158.715   -61086756.34249 -47567599.18949  12491159.5514   12491163.8404
  14502258.289   -44779702.91749 -34851675.49449  14502259.2344   14502264.2374
  15385132.444   -16050104.49649 -11735481.25449  15385132.5264   15385139.1214
  13411923.741   -47995445.71849 -36948194.75349  13411926.5244   13411931.9024
  16006840.775   -17380771.03749 -12721222.17049  16006838.7494   16006844.9624
  16185801.573   -10472650.988 9  -8141287.197 9  16185800.953    16185806.323
  14852713.629   -24541518.12449 -19084654.30849  14852715.3574   14852720.7714
 96  7 15 20 46 29.9740000  0  7  6 16 26 17 22 28 23
  12479339.308   -61148868.61349 -47615998.36249  12479340.1214   12479343.9464
  14503469.443   -44773339.29649 -34846716.84549  14503470.0324   14503475.4604
  15358598.372   -16189526.83649 -11844121.92449  15358601.8224   15358605.8764
  13389829.201   -48111551.10749 -37038666.46549  13389832.2964   13389837.5994
  15982273.372   -17509864.02749 -12821814.06249  15982274.3414   15982280.2734
  16153254.156   -10643672.920 9  -8274551.019 9  16153256.230    16153261.969
  14821942.076   -24703230.33449 -19210663.78449  14821942.0464   14821947.5614
 96  7 15 20 46 59.9740000  0  7  6 16 26 17 22 28 23
  12467597.388   -61210558.03649 -47664068.04549  12467600.8484   12467604.7874
  14504742.192   -44766630.89149 -34841489.52049  14504746.5894   14504751.2954
  15332126.822   -16328645.75949 -11952526.23249  15332128.0724   15332133.1444
  13367779.353   -48227429.16149 -37128961.03149  13367781.7114   13367787.1984
  15957787.521   -17638545.24449 -12922085.14049  15957786.2614   15957792.4144
  16120715.137   -10814671.092 9  -8407796.268 9  16120717.163    16120722.263
  14791224.985   -24864643.47049 -19336440.20749  14791226.7294   14791232.1874
 96  7 15 20 47 29.9740000  0  7  6 16 26 17 22 28 23
  12455943.708   -61271811.52249 -47711798.04549  12455945.0244   12455948.8314
  14506091.116   -44759558.24149 -34835978.38349  14506093.2904   14506098.0534
  15305713.320   -16467445.74249 -12060682.03649  15305715.5834   15305719.2084
  13345770.721   -48343084.73149 -37219082.24249  13345773.0224   13345778.2164
  15933377.532   -17766803.46249 -13022026.59049  15933379.7744   15933384.4104
  16088182.197   -10985639.529 9  -8541018.397 9  16088182.125    16088187.418
  14760566.460   -25025761.90149 -19461986.99949  14760566.3114   14760571.8484
 96  7 15 20 47 59.9740000  0  7  6 16 26 17 22 28 23
  12444368.377   -61332633.83449 -47759192.06249  12444370.7924   12444374.7104
  14507503.966   -44752134.80749 -34830193.89649  14507505.4574   14507510.1674
  15279365.048   -16605916.41149 -12168581.21449  15279364.0224   15279370.2494
  13323805.439   -48458517.87449 -37309030.13149  13323807.1604   13323812.1554
  15909061.901   -17894604.91749 -13121612.11649  15909059.5374   15909065.5504
  16055651.946   -11156576.311 9  -8674215.820 9  16055653.814    16055659.702
  14729959.848   -25186591.41849 -19587308.66849  14729962.3534   14729967.3734
 96  7 15 20 48 29.9740000  0  7  6 16 26 17 22 28 23
  12432876.891   -61393024.89849 -47806250.03049  12432878.4164   12432882.5854
  14508982.997   -44744361.24249 -34824136.58249  14508984.5184   14508988.9144
  15253077.149   -16744049.86849 -12276217.61249  15253078.1084   15253084.6674
  13301885.673   -48573701.99849 -37398783.97549  13301888.0614   13301893.0354
  15884824.480   -18021937.50849 -13220832.27249  15884828.2604   15884835.4584
  16023137.426   -11327474.048 9  -8807382.835 9  16023134.324    16023137.850
  14699408.320   -25347139.76449 -19712411.24949  14699410.1964   14699415.8614
 96  7 15 20 48 59.9730000  0  7  6 16 26 17 22 28 23
  12421468.843   -61452977.29449 -47852966.18549  12421470.1224   12421474.1014
  14510527.380   -44736249.40349 -34817815.69849  14510527.9624   14510533.3274
  15226853.249   -16881844.53249 -12383590.00949  15226857.2574   15226864.0154
  13280018.513   -48688619.17849 -37488329.81849  13280020.0924   13280025.3974
  15860688.217   -18148785.01849 -13319674.48249  15860690.2294   15860697.4674
  15990615.941   -11498329.230 9  -8940516.683 9  15990620.793    15990626.175
  14668909.521   -25507407.32649 -19837295.03649  14668912.2254   14668916.8714
